<?xml version="1.0" encoding="UTF-8"?><gpx xmlns="http://www.topografix.com/GPX/1/1" version="1.1" creator="iOrient"><trk><name>Рогейн "КурсОр-2025"</name><trkseg><trkpt lat="55.6287811" lon="49.4889365"><time>2025-05-18T07:27:12.807</time></trkpt><trkpt lat="55.6287340" lon="49.4889199"><time>2025-05-18T07:27:16.867</time></trkpt><trkpt lat="55.6286851" lon="49.4888928"><time>2025-05-18T07:27:21.823</time></trkpt><trkpt lat="55.6286341" lon="49.4888788"><time>2025-05-18T07:27:25.807</time></trkpt><trkpt lat="55.6285882" lon="49.4888936"><time>2025-05-18T07:27:29.820</time></trkpt><trkpt lat="55.6285545" lon="49.4889575"><time>2025-05-18T07:27:32.807</time></trkpt><trkpt lat="55.6285224" lon="49.4890132"><time>2025-05-18T07:27:36.810</time></trkpt><trkpt lat="55.6284718" lon="49.4889999"><time>2025-05-18T07:27:41.817</time></trkpt><trkpt lat="55.6284387" lon="49.4889381"><time>2025-05-18T07:27:45.837</time></trkpt><trkpt lat="55.6284101" lon="49.4888743"><time>2025-05-18T07:27:49.827</time></trkpt><trkpt lat="55.6283670" lon="49.4888516"><time>2025-05-18T07:27:59.820</time></trkpt><trkpt lat="55.6283492" lon="49.4887698"><time>2025-05-18T07:28:04.817</time></trkpt><trkpt lat="55.6283327" lon="49.4886948"><time>2025-05-18T07:28:07.817</time></trkpt><trkpt lat="55.6283045" lon="49.4886150"><time>2025-05-18T07:28:11.843</time></trkpt><trkpt lat="55.6283181" lon="49.4885206"><time>2025-05-18T07:28:17.837</time></trkpt><trkpt lat="55.6283040" lon="49.4884408"><time>2025-05-18T07:28:34.943</time></trkpt><trkpt lat="55.6282605" lon="49.4884071"><time>2025-05-18T07:28:39.870</time></trkpt><trkpt lat="55.6282160" lon="49.4884382"><time>2025-05-18T07:28:43.950</time></trkpt><trkpt lat="55.6281700" lon="49.4884467"><time>2025-05-18T07:28:50.047</time></trkpt><trkpt lat="55.6281292" lon="49.4883755"><time>2025-05-18T07:28:53.893</time></trkpt><trkpt lat="55.6281024" lon="49.4882977"><time>2025-05-18T07:28:57.790</time></trkpt><trkpt lat="55.6280781" lon="49.4882263"><time>2025-05-18T07:29:02.817</time></trkpt><trkpt lat="55.6280460" lon="49.4881666"><time>2025-05-18T07:29:06.827</time></trkpt><trkpt lat="55.6280768" lon="49.4880887"><time>2025-05-18T07:29:11.813</time></trkpt><trkpt lat="55.6281144" lon="49.4880228"><time>2025-05-18T07:29:15.853</time></trkpt><trkpt lat="55.6281579" lon="49.4880439"><time>2025-05-18T07:29:22.910</time></trkpt><trkpt lat="55.6281991" lon="49.4879795"><time>2025-05-18T07:29:26.817</time></trkpt><trkpt lat="55.6282016" lon="49.4879544"><time>2025-05-18T07:29:36.410</time></trkpt><trkpt lat="55.6281512" lon="49.4880133"><time>2025-05-18T07:29:47.933</time></trkpt><trkpt lat="55.6281039" lon="49.4879797"><time>2025-05-18T07:29:51.893</time></trkpt><trkpt lat="55.6280521" lon="49.4880008"><time>2025-05-18T07:29:56.077</time></trkpt><trkpt lat="55.6280045" lon="49.4879940"><time>2025-05-18T07:29:58.877</time></trkpt><trkpt lat="55.6279816" lon="49.4879041"><time>2025-05-18T07:30:03.900</time></trkpt><trkpt lat="55.6279573" lon="49.4878189"><time>2025-05-18T07:30:08.970</time></trkpt><trkpt lat="55.6279208" lon="49.4877429"><time>2025-05-18T07:30:14.130</time></trkpt><trkpt lat="55.6278933" lon="49.4876557"><time>2025-05-18T07:30:17.903</time></trkpt><trkpt lat="55.6278614" lon="49.4875835"><time>2025-05-18T07:30:23.067</time></trkpt><trkpt lat="55.6278375" lon="49.4875044"><time>2025-05-18T07:30:26.890</time></trkpt><trkpt lat="55.6278085" lon="49.4874087"><time>2025-05-18T07:30:30.887</time></trkpt><trkpt lat="55.6277756" lon="49.4873280"><time>2025-05-18T07:30:33.890</time></trkpt><trkpt lat="55.6277406" lon="49.4872629"><time>2025-05-18T07:30:36.903</time></trkpt><trkpt lat="55.6277099" lon="49.4872032"><time>2025-05-18T07:30:39.840</time></trkpt><trkpt lat="55.6277024" lon="49.4871127"><time>2025-05-18T07:30:42.830</time></trkpt><trkpt lat="55.6277112" lon="49.4870139"><time>2025-05-18T07:30:45.827</time></trkpt><trkpt lat="55.6277258" lon="49.4869309"><time>2025-05-18T07:30:47.897</time></trkpt><trkpt lat="55.6277410" lon="49.4868399"><time>2025-05-18T07:30:49.887</time></trkpt><trkpt lat="55.6277636" lon="49.4867454"><time>2025-05-18T07:30:52.907</time></trkpt><trkpt lat="55.6277984" lon="49.4866797"><time>2025-05-18T07:30:55.830</time></trkpt><trkpt lat="55.6278454" lon="49.4866234"><time>2025-05-18T07:30:59.870</time></trkpt><trkpt lat="55.6278788" lon="49.4865493"><time>2025-05-18T07:31:04.887</time></trkpt><trkpt lat="55.6279349" lon="49.4865153"><time>2025-05-18T07:31:07.863</time></trkpt><trkpt lat="55.6279557" lon="49.4864242"><time>2025-05-18T07:31:11.833</time></trkpt><trkpt lat="55.6279806" lon="49.4863527"><time>2025-05-18T07:31:15.833</time></trkpt><trkpt lat="55.6279968" lon="49.4862762"><time>2025-05-18T07:31:20.083</time></trkpt><trkpt lat="55.6280139" lon="49.4861962"><time>2025-05-18T07:31:23.963</time></trkpt><trkpt lat="55.6280332" lon="49.4860982"><time>2025-05-18T07:31:27.893</time></trkpt><trkpt lat="55.6280513" lon="49.4859986"><time>2025-05-18T07:31:31.847</time></trkpt><trkpt lat="55.6280527" lon="49.4859129"><time>2025-05-18T07:31:35.833</time></trkpt><trkpt lat="55.6280567" lon="49.4858254"><time>2025-05-18T07:31:39.890</time></trkpt><trkpt lat="55.6280572" lon="49.4857294"><time>2025-05-18T07:31:42.903</time></trkpt><trkpt lat="55.6280613" lon="49.4856357"><time>2025-05-18T07:31:44.903</time></trkpt><trkpt lat="55.6280570" lon="49.4855491"><time>2025-05-18T07:31:46.893</time></trkpt><trkpt lat="55.6280585" lon="49.4854633"><time>2025-05-18T07:31:49.107</time></trkpt><trkpt lat="55.6280605" lon="49.4853824"><time>2025-05-18T07:31:50.893</time></trkpt><trkpt lat="55.6280653" lon="49.4852780"><time>2025-05-18T07:31:54.077</time></trkpt><trkpt lat="55.6280635" lon="49.4851696"><time>2025-05-18T07:31:56.867</time></trkpt><trkpt lat="55.6280661" lon="49.4850546"><time>2025-05-18T07:32:00.047</time></trkpt><trkpt lat="55.6280737" lon="49.4849504"><time>2025-05-18T07:32:02.893</time></trkpt><trkpt lat="55.6280782" lon="49.4848690"><time>2025-05-18T07:32:04.950</time></trkpt><trkpt lat="55.6280855" lon="49.4847578"><time>2025-05-18T07:32:07.837</time></trkpt><trkpt lat="55.6281011" lon="49.4846707"><time>2025-05-18T07:32:11.097</time></trkpt><trkpt lat="55.6281073" lon="49.4845835"><time>2025-05-18T07:32:13.940</time></trkpt><trkpt lat="55.6281180" lon="49.4844850"><time>2025-05-18T07:32:16.903</time></trkpt><trkpt lat="55.6281280" lon="49.4843822"><time>2025-05-18T07:32:20.077</time></trkpt><trkpt lat="55.6281496" lon="49.4842905"><time>2025-05-18T07:32:23.887</time></trkpt><trkpt lat="55.6281586" lon="49.4842046"><time>2025-05-18T07:32:26.880</time></trkpt><trkpt lat="55.6281671" lon="49.4841152"><time>2025-05-18T07:32:29.883</time></trkpt><trkpt lat="55.6281671" lon="49.4840299"><time>2025-05-18T07:32:32.840</time></trkpt><trkpt lat="55.6281775" lon="49.4839481"><time>2025-05-18T07:32:35.830</time></trkpt><trkpt lat="55.6281722" lon="49.4838341"><time>2025-05-18T07:32:40.087</time></trkpt><trkpt lat="55.6281783" lon="49.4837530"><time>2025-05-18T07:32:42.887</time></trkpt><trkpt lat="55.6281791" lon="49.4836551"><time>2025-05-18T07:32:46.903</time></trkpt><trkpt lat="55.6281860" lon="49.4835672"><time>2025-05-18T07:32:50.893</time></trkpt><trkpt lat="55.6282081" lon="49.4834969"><time>2025-05-18T07:32:54.083</time></trkpt><trkpt lat="55.6282220" lon="49.4834180"><time>2025-05-18T07:32:56.917</time></trkpt><trkpt lat="55.6282443" lon="49.4833395"><time>2025-05-18T07:32:59.887</time></trkpt><trkpt lat="55.6282592" lon="49.4832623"><time>2025-05-18T07:33:02.823</time></trkpt><trkpt lat="55.6282898" lon="49.4831824"><time>2025-05-18T07:33:05.837</time></trkpt><trkpt lat="55.6283114" lon="49.4830998"><time>2025-05-18T07:33:08.973</time></trkpt><trkpt lat="55.6283404" lon="49.4830139"><time>2025-05-18T07:33:10.920</time></trkpt><trkpt lat="55.6283635" lon="49.4829385"><time>2025-05-18T07:33:12.903</time></trkpt><trkpt lat="55.6283915" lon="49.4828556"><time>2025-05-18T07:33:15.887</time></trkpt><trkpt lat="55.6284302" lon="49.4828019"><time>2025-05-18T07:33:19.080</time></trkpt><trkpt lat="55.6284621" lon="49.4827257"><time>2025-05-18T07:33:22.900</time></trkpt><trkpt lat="55.6284965" lon="49.4826474"><time>2025-05-18T07:33:26.897</time></trkpt><trkpt lat="55.6285296" lon="49.4825668"><time>2025-05-18T07:33:30.893</time></trkpt><trkpt lat="55.6285549" lon="49.4824857"><time>2025-05-18T07:33:33.880</time></trkpt><trkpt lat="55.6285703" lon="49.4824070"><time>2025-05-18T07:33:36.883</time></trkpt><trkpt lat="55.6285818" lon="49.4823267"><time>2025-05-18T07:33:39.853</time></trkpt><trkpt lat="55.6286020" lon="49.4822485"><time>2025-05-18T07:33:42.840</time></trkpt><trkpt lat="55.6286270" lon="49.4821578"><time>2025-05-18T07:33:46.893</time></trkpt><trkpt lat="55.6286494" lon="49.4820769"><time>2025-05-18T07:33:51.063</time></trkpt><trkpt lat="55.6286785" lon="49.4820133"><time>2025-05-18T07:33:53.947</time></trkpt><trkpt lat="55.6287162" lon="49.4819544"><time>2025-05-18T07:33:56.880</time></trkpt><trkpt lat="55.6287484" lon="49.4818714"><time>2025-05-18T07:34:00.890</time></trkpt><trkpt lat="55.6287758" lon="49.4818056"><time>2025-05-18T07:34:03.877</time></trkpt><trkpt lat="55.6288069" lon="49.4817320"><time>2025-05-18T07:34:06.833</time></trkpt><trkpt lat="55.6288258" lon="49.4816470"><time>2025-05-18T07:34:10.837</time></trkpt><trkpt lat="55.6288459" lon="49.4815626"><time>2025-05-18T07:34:14.820</time></trkpt><trkpt lat="55.6288567" lon="49.4814821"><time>2025-05-18T07:34:19.037</time></trkpt><trkpt lat="55.6288335" lon="49.4814037"><time>2025-05-18T07:34:22.843</time></trkpt><trkpt lat="55.6287911" lon="49.4813623"><time>2025-05-18T07:34:27.820</time></trkpt><trkpt lat="55.6287918" lon="49.4813543"><time>2025-05-18T07:34:33.587</time></trkpt><trkpt lat="55.6287525" lon="49.4813044"><time>2025-05-18T07:34:48.817</time></trkpt><trkpt lat="55.6287032" lon="49.4812727"><time>2025-05-18T07:34:53.837</time></trkpt><trkpt lat="55.6286619" lon="49.4812404"><time>2025-05-18T07:34:58.863</time></trkpt><trkpt lat="55.6286116" lon="49.4812244"><time>2025-05-18T07:35:05.820</time></trkpt><trkpt lat="55.6285578" lon="49.4811818"><time>2025-05-18T07:35:09.827</time></trkpt><trkpt lat="55.6285037" lon="49.4811575"><time>2025-05-18T07:35:13.893</time></trkpt><trkpt lat="55.6284475" lon="49.4811259"><time>2025-05-18T07:35:17.907</time></trkpt><trkpt lat="55.6283923" lon="49.4811089"><time>2025-05-18T07:35:21.897</time></trkpt><trkpt lat="55.6283422" lon="49.4810767"><time>2025-05-18T07:35:25.890</time></trkpt><trkpt lat="55.6282999" lon="49.4810401"><time>2025-05-18T07:35:28.900</time></trkpt><trkpt lat="55.6282473" lon="49.4810211"><time>2025-05-18T07:35:32.903</time></trkpt><trkpt lat="55.6281980" lon="49.4809992"><time>2025-05-18T07:35:36.837</time></trkpt><trkpt lat="55.6281436" lon="49.4809772"><time>2025-05-18T07:35:40.940</time></trkpt><trkpt lat="55.6280849" lon="49.4809482"><time>2025-05-18T07:35:45.077</time></trkpt><trkpt lat="55.6280371" lon="49.4809124"><time>2025-05-18T07:35:47.913</time></trkpt><trkpt lat="55.6279862" lon="49.4808792"><time>2025-05-18T07:35:51.057</time></trkpt><trkpt lat="55.6279309" lon="49.4808430"><time>2025-05-18T07:35:55.077</time></trkpt><trkpt lat="55.6278793" lon="49.4808159"><time>2025-05-18T07:35:59.117</time></trkpt><trkpt lat="55.6278272" lon="49.4807954"><time>2025-05-18T07:36:02.903</time></trkpt><trkpt lat="55.6277838" lon="49.4807749"><time>2025-05-18T07:36:06.083</time></trkpt><trkpt lat="55.6277371" lon="49.4807424"><time>2025-05-18T07:36:09.963</time></trkpt><trkpt lat="55.6276900" lon="49.4807222"><time>2025-05-18T07:36:12.830</time></trkpt><trkpt lat="55.6276401" lon="49.4806887"><time>2025-05-18T07:36:16.873</time></trkpt><trkpt lat="55.6275956" lon="49.4806590"><time>2025-05-18T07:36:20.103</time></trkpt><trkpt lat="55.6275520" lon="49.4806391"><time>2025-05-18T07:36:22.890</time></trkpt><trkpt lat="55.6275053" lon="49.4806172"><time>2025-05-18T07:36:25.907</time></trkpt><trkpt lat="55.6274623" lon="49.4805888"><time>2025-05-18T07:36:28.890</time></trkpt><trkpt lat="55.6274110" lon="49.4805696"><time>2025-05-18T07:36:31.837</time></trkpt><trkpt lat="55.6273542" lon="49.4805432"><time>2025-05-18T07:36:36.027</time></trkpt><trkpt lat="55.6273090" lon="49.4805119"><time>2025-05-18T07:36:39.097</time></trkpt><trkpt lat="55.6272647" lon="49.4804918"><time>2025-05-18T07:36:41.847</time></trkpt><trkpt lat="55.6272116" lon="49.4804644"><time>2025-05-18T07:36:46.073</time></trkpt><trkpt lat="55.6271677" lon="49.4804447"><time>2025-05-18T07:36:48.907</time></trkpt><trkpt lat="55.6271205" lon="49.4804254"><time>2025-05-18T07:36:51.847</time></trkpt><trkpt lat="55.6270659" lon="49.4804037"><time>2025-05-18T07:36:56.077</time></trkpt><trkpt lat="55.6270168" lon="49.4803817"><time>2025-05-18T07:36:59.083</time></trkpt><trkpt lat="55.6269725" lon="49.4803592"><time>2025-05-18T07:37:01.837</time></trkpt><trkpt lat="55.6269158" lon="49.4803410"><time>2025-05-18T07:37:05.860</time></trkpt><trkpt lat="55.6268683" lon="49.4803142"><time>2025-05-18T07:37:08.943</time></trkpt><trkpt lat="55.6268223" lon="49.4802852"><time>2025-05-18T07:37:11.853</time></trkpt><trkpt lat="55.6267713" lon="49.4802646"><time>2025-05-18T07:37:15.070</time></trkpt><trkpt lat="55.6267196" lon="49.4802316"><time>2025-05-18T07:37:18.900</time></trkpt><trkpt lat="55.6266708" lon="49.4802075"><time>2025-05-18T07:37:22.897</time></trkpt><trkpt lat="55.6266206" lon="49.4801900"><time>2025-05-18T07:37:26.920</time></trkpt><trkpt lat="55.6265685" lon="49.4801578"><time>2025-05-18T07:37:30.897</time></trkpt><trkpt lat="55.6265118" lon="49.4801205"><time>2025-05-18T07:37:34.947</time></trkpt><trkpt lat="55.6264641" lon="49.4800966"><time>2025-05-18T07:37:38.063</time></trkpt><trkpt lat="55.6264181" lon="49.4800757"><time>2025-05-18T07:37:40.900</time></trkpt><trkpt lat="55.6263737" lon="49.4800599"><time>2025-05-18T07:37:44.053</time></trkpt><trkpt lat="55.6263139" lon="49.4800402"><time>2025-05-18T07:37:48.063</time></trkpt><trkpt lat="55.6262559" lon="49.4800226"><time>2025-05-18T07:37:51.870</time></trkpt><trkpt lat="55.6262011" lon="49.4799959"><time>2025-05-18T07:37:56.073</time></trkpt><trkpt lat="55.6261506" lon="49.4799713"><time>2025-05-18T07:37:58.897</time></trkpt><trkpt lat="55.6261045" lon="49.4799468"><time>2025-05-18T07:38:01.837</time></trkpt><trkpt lat="55.6260573" lon="49.4799252"><time>2025-05-18T07:38:04.927</time></trkpt><trkpt lat="55.6259995" lon="49.4799049"><time>2025-05-18T07:38:08.827</time></trkpt><trkpt lat="55.6259514" lon="49.4798968"><time>2025-05-18T07:38:11.797</time></trkpt><trkpt lat="55.6258940" lon="49.4798654"><time>2025-05-18T07:38:15.977</time></trkpt><trkpt lat="55.6258392" lon="49.4798439"><time>2025-05-18T07:38:19.940</time></trkpt><trkpt lat="55.6257806" lon="49.4798214"><time>2025-05-18T07:38:23.887</time></trkpt><trkpt lat="55.6257364" lon="49.4797952"><time>2025-05-18T07:38:26.883</time></trkpt><trkpt lat="55.6256918" lon="49.4797745"><time>2025-05-18T07:38:30.067</time></trkpt><trkpt lat="55.6256488" lon="49.4797446"><time>2025-05-18T07:38:32.900</time></trkpt><trkpt lat="55.6256013" lon="49.4797153"><time>2025-05-18T07:38:36.903</time></trkpt><trkpt lat="55.6255473" lon="49.4796869"><time>2025-05-18T07:38:41.110</time></trkpt><trkpt lat="55.6254908" lon="49.4796780"><time>2025-05-18T07:38:44.837</time></trkpt><trkpt lat="55.6254457" lon="49.4796565"><time>2025-05-18T07:38:47.897</time></trkpt><trkpt lat="55.6254039" lon="49.4796262"><time>2025-05-18T07:38:50.897</time></trkpt><trkpt lat="55.6253566" lon="49.4796077"><time>2025-05-18T07:38:54.070</time></trkpt><trkpt lat="55.6253131" lon="49.4795765"><time>2025-05-18T07:38:56.890</time></trkpt><trkpt lat="55.6252641" lon="49.4795441"><time>2025-05-18T07:38:59.873</time></trkpt><trkpt lat="55.6252186" lon="49.4795370"><time>2025-05-18T07:39:02.967</time></trkpt><trkpt lat="55.6251692" lon="49.4795058"><time>2025-05-18T07:39:06.823</time></trkpt><trkpt lat="55.6251162" lon="49.4794701"><time>2025-05-18T07:39:10.830</time></trkpt><trkpt lat="55.6250673" lon="49.4794670"><time>2025-05-18T07:39:13.833</time></trkpt><trkpt lat="55.6250223" lon="49.4794569"><time>2025-05-18T07:39:17.877</time></trkpt><trkpt lat="55.6249692" lon="49.4794407"><time>2025-05-18T07:39:21.837</time></trkpt><trkpt lat="55.6249234" lon="49.4794175"><time>2025-05-18T07:39:25.160</time></trkpt><trkpt lat="55.6248796" lon="49.4793946"><time>2025-05-18T07:39:27.833</time></trkpt><trkpt lat="55.6248343" lon="49.4793657"><time>2025-05-18T07:39:30.957</time></trkpt><trkpt lat="55.6247746" lon="49.4793416"><time>2025-05-18T07:39:34.907</time></trkpt><trkpt lat="55.6247263" lon="49.4793253"><time>2025-05-18T07:39:37.823</time></trkpt><trkpt lat="55.6246815" lon="49.4793068"><time>2025-05-18T07:39:41</time></trkpt><trkpt lat="55.6246256" lon="49.4792796"><time>2025-05-18T07:39:45.067</time></trkpt><trkpt lat="55.6245716" lon="49.4792531"><time>2025-05-18T07:39:49.077</time></trkpt><trkpt lat="55.6245148" lon="49.4792287"><time>2025-05-18T07:39:52.903</time></trkpt><trkpt lat="55.6244608" lon="49.4792098"><time>2025-05-18T07:39:56.910</time></trkpt><trkpt lat="55.6244099" lon="49.4791872"><time>2025-05-18T07:40:00.887</time></trkpt><trkpt lat="55.6243583" lon="49.4791669"><time>2025-05-18T07:40:04.903</time></trkpt><trkpt lat="55.6243078" lon="49.4791477"><time>2025-05-18T07:40:09.107</time></trkpt><trkpt lat="55.6242618" lon="49.4791385"><time>2025-05-18T07:40:11.847</time></trkpt><trkpt lat="55.6242051" lon="49.4791357"><time>2025-05-18T07:40:15.837</time></trkpt><trkpt lat="55.6241538" lon="49.4791191"><time>2025-05-18T07:40:19.957</time></trkpt><trkpt lat="55.6240965" lon="49.4791095"><time>2025-05-18T07:40:23.947</time></trkpt><trkpt lat="55.6240453" lon="49.4790999"><time>2025-05-18T07:40:26.880</time></trkpt><trkpt lat="55.6239953" lon="49.4790841"><time>2025-05-18T07:40:29.880</time></trkpt><trkpt lat="55.6239491" lon="49.4790758"><time>2025-05-18T07:40:33.913</time></trkpt><trkpt lat="55.6238933" lon="49.4790570"><time>2025-05-18T07:40:37.893</time></trkpt><trkpt lat="55.6238424" lon="49.4790430"><time>2025-05-18T07:40:41.087</time></trkpt><trkpt lat="55.6237932" lon="49.4790328"><time>2025-05-18T07:40:43.910</time></trkpt><trkpt lat="55.6237473" lon="49.4790238"><time>2025-05-18T07:40:46.887</time></trkpt><trkpt lat="55.6236955" lon="49.4790048"><time>2025-05-18T07:40:51.087</time></trkpt><trkpt lat="55.6236474" lon="49.4790050"><time>2025-05-18T07:40:54.137</time></trkpt><trkpt lat="55.6235946" lon="49.4790060"><time>2025-05-18T07:40:56.870</time></trkpt><trkpt lat="55.6235410" lon="49.4789995"><time>2025-05-18T07:40:59.907</time></trkpt><trkpt lat="55.6234961" lon="49.4789845"><time>2025-05-18T07:41:04.110</time></trkpt><trkpt lat="55.6234460" lon="49.4789746"><time>2025-05-18T07:41:06.907</time></trkpt><trkpt lat="55.6233953" lon="49.4789536"><time>2025-05-18T07:41:10.933</time></trkpt><trkpt lat="55.6233365" lon="49.4789290"><time>2025-05-18T07:41:16.077</time></trkpt><trkpt lat="55.6232872" lon="49.4789103"><time>2025-05-18T07:41:19.110</time></trkpt><trkpt lat="55.6232289" lon="49.4789031"><time>2025-05-18T07:41:22.860</time></trkpt><trkpt lat="55.6231837" lon="49.4788843"><time>2025-05-18T07:41:25.847</time></trkpt><trkpt lat="55.6231285" lon="49.4788580"><time>2025-05-18T07:41:29.957</time></trkpt><trkpt lat="55.6230758" lon="49.4788349"><time>2025-05-18T07:41:33.843</time></trkpt><trkpt lat="55.6230270" lon="49.4788206"><time>2025-05-18T07:41:37.913</time></trkpt><trkpt lat="55.6229809" lon="49.4788053"><time>2025-05-18T07:41:40.900</time></trkpt><trkpt lat="55.6229205" lon="49.4787857"><time>2025-05-18T07:41:44.947</time></trkpt><trkpt lat="55.6228672" lon="49.4787711"><time>2025-05-18T07:41:47.830</time></trkpt><trkpt lat="55.6228176" lon="49.4787569"><time>2025-05-18T07:41:50.947</time></trkpt><trkpt lat="55.6227579" lon="49.4787383"><time>2025-05-18T07:41:54.980</time></trkpt><trkpt lat="55.6227103" lon="49.4787205"><time>2025-05-18T07:41:57.817</time></trkpt><trkpt lat="55.6226527" lon="49.4786946"><time>2025-05-18T07:42:01.830</time></trkpt><trkpt lat="55.6225960" lon="49.4786728"><time>2025-05-18T07:42:05.843</time></trkpt><trkpt lat="55.6225346" lon="49.4786557"><time>2025-05-18T07:42:09.963</time></trkpt><trkpt lat="55.6224907" lon="49.4786297"><time>2025-05-18T07:42:14.077</time></trkpt><trkpt lat="55.6224473" lon="49.4786005"><time>2025-05-18T07:42:17.830</time></trkpt><trkpt lat="55.6223937" lon="49.4785643"><time>2025-05-18T07:42:21.843</time></trkpt><trkpt lat="55.6223449" lon="49.4785374"><time>2025-05-18T07:42:24.850</time></trkpt><trkpt lat="55.6222995" lon="49.4785136"><time>2025-05-18T07:42:27.847</time></trkpt><trkpt lat="55.6222493" lon="49.4784914"><time>2025-05-18T07:42:30.907</time></trkpt><trkpt lat="55.6222048" lon="49.4784773"><time>2025-05-18T07:42:33.900</time></trkpt><trkpt lat="55.6221499" lon="49.4784511"><time>2025-05-18T07:42:37.943</time></trkpt><trkpt lat="55.6221064" lon="49.4784261"><time>2025-05-18T07:42:40.840</time></trkpt><trkpt lat="55.6220523" lon="49.4783972"><time>2025-05-18T07:42:45.040</time></trkpt><trkpt lat="55.6220101" lon="49.4783675"><time>2025-05-18T07:42:47.833</time></trkpt><trkpt lat="55.6219549" lon="49.4783326"><time>2025-05-18T07:42:51.833</time></trkpt><trkpt lat="55.6219066" lon="49.4783106"><time>2025-05-18T07:42:55.123</time></trkpt><trkpt lat="55.6218614" lon="49.4782820"><time>2025-05-18T07:42:57.890</time></trkpt><trkpt lat="55.6218071" lon="49.4782582"><time>2025-05-18T07:43:01.903</time></trkpt><trkpt lat="55.6217495" lon="49.4782423"><time>2025-05-18T07:43:05.987</time></trkpt><trkpt lat="55.6217012" lon="49.4782067"><time>2025-05-18T07:43:09.837</time></trkpt><trkpt lat="55.6216432" lon="49.4781825"><time>2025-05-18T07:43:13.917</time></trkpt><trkpt lat="55.6215868" lon="49.4781557"><time>2025-05-18T07:43:17.903</time></trkpt><trkpt lat="55.6215304" lon="49.4781306"><time>2025-05-18T07:43:21.890</time></trkpt><trkpt lat="55.6214873" lon="49.4780969"><time>2025-05-18T07:43:24.890</time></trkpt><trkpt lat="55.6214254" lon="49.4780718"><time>2025-05-18T07:43:29.077</time></trkpt><trkpt lat="55.6213778" lon="49.4780505"><time>2025-05-18T07:43:31.907</time></trkpt><trkpt lat="55.6213239" lon="49.4780315"><time>2025-05-18T07:43:34.923</time></trkpt><trkpt lat="55.6212682" lon="49.4780116"><time>2025-05-18T07:43:39.127</time></trkpt><trkpt lat="55.6212209" lon="49.4779765"><time>2025-05-18T07:43:42.873</time></trkpt><trkpt lat="55.6211691" lon="49.4779345"><time>2025-05-18T07:43:46.900</time></trkpt><trkpt lat="55.6211118" lon="49.4779111"><time>2025-05-18T07:43:51.077</time></trkpt><trkpt lat="55.6210657" lon="49.4778868"><time>2025-05-18T07:43:54.117</time></trkpt><trkpt lat="55.6210150" lon="49.4778642"><time>2025-05-18T07:43:57.893</time></trkpt><trkpt lat="55.6209678" lon="49.4778471"><time>2025-05-18T07:44:00.873</time></trkpt><trkpt lat="55.6209100" lon="49.4778249"><time>2025-05-18T07:44:04.937</time></trkpt><trkpt lat="55.6208684" lon="49.4777916"><time>2025-05-18T07:44:08.840</time></trkpt><trkpt lat="55.6208073" lon="49.4777813"><time>2025-05-18T07:44:12.920</time></trkpt><trkpt lat="55.6207648" lon="49.4777531"><time>2025-05-18T07:44:15.883</time></trkpt><trkpt lat="55.6207156" lon="49.4777408"><time>2025-05-18T07:44:18.917</time></trkpt><trkpt lat="55.6206638" lon="49.4777103"><time>2025-05-18T07:44:22.893</time></trkpt><trkpt lat="55.6206075" lon="49.4776863"><time>2025-05-18T07:44:26.873</time></trkpt><trkpt lat="55.6205593" lon="49.4776584"><time>2025-05-18T07:44:29.897</time></trkpt><trkpt lat="55.6205013" lon="49.4776354"><time>2025-05-18T07:44:33.847</time></trkpt><trkpt lat="55.6204437" lon="49.4776107"><time>2025-05-18T07:44:37.847</time></trkpt><trkpt lat="55.6203972" lon="49.4775953"><time>2025-05-18T07:44:40.907</time></trkpt><trkpt lat="55.6203392" lon="49.4775642"><time>2025-05-18T07:44:44.840</time></trkpt><trkpt lat="55.6202892" lon="49.4775461"><time>2025-05-18T07:44:47.843</time></trkpt><trkpt lat="55.6202428" lon="49.4775096"><time>2025-05-18T07:44:50.867</time></trkpt><trkpt lat="55.6201946" lon="49.4774824"><time>2025-05-18T07:44:53.833</time></trkpt><trkpt lat="55.6201461" lon="49.4774555"><time>2025-05-18T07:44:56.827</time></trkpt><trkpt lat="55.6200960" lon="49.4774320"><time>2025-05-18T07:44:59.817</time></trkpt><trkpt lat="55.6200418" lon="49.4774067"><time>2025-05-18T07:45:03.840</time></trkpt><trkpt lat="55.6199924" lon="49.4773835"><time>2025-05-18T07:45:06.837</time></trkpt><trkpt lat="55.6199399" lon="49.4773403"><time>2025-05-18T07:45:10.880</time></trkpt><trkpt lat="55.6199051" lon="49.4772866"><time>2025-05-18T07:45:14.090</time></trkpt><trkpt lat="55.6198732" lon="49.4772253"><time>2025-05-18T07:45:17.887</time></trkpt><trkpt lat="55.6198318" lon="49.4771736"><time>2025-05-18T07:45:21.843</time></trkpt><trkpt lat="55.6197749" lon="49.4771915"><time>2025-05-18T07:45:26.107</time></trkpt><trkpt lat="55.6197405" lon="49.4772788"><time>2025-05-18T07:45:29.883</time></trkpt><trkpt lat="55.6197102" lon="49.4773398"><time>2025-05-18T07:45:33.843</time></trkpt><trkpt lat="55.6196710" lon="49.4773926"><time>2025-05-18T07:45:37.847</time></trkpt><trkpt lat="55.6196399" lon="49.4774500"><time>2025-05-18T07:45:40.840</time></trkpt><trkpt lat="55.6195926" lon="49.4774970"><time>2025-05-18T07:45:44.877</time></trkpt><trkpt lat="55.6195684" lon="49.4775688"><time>2025-05-18T07:45:47.897</time></trkpt><trkpt lat="55.6195422" lon="49.4776485"><time>2025-05-18T07:45:51.103</time></trkpt><trkpt lat="55.6194904" lon="49.4777043"><time>2025-05-18T07:45:53.847</time></trkpt><trkpt lat="55.6194507" lon="49.4777764"><time>2025-05-18T07:45:56.893</time></trkpt><trkpt lat="55.6194073" lon="49.4778563"><time>2025-05-18T07:46:01.127</time></trkpt><trkpt lat="55.6193719" lon="49.4779343"><time>2025-05-18T07:46:04.850</time></trkpt><trkpt lat="55.6193358" lon="49.4779926"><time>2025-05-18T07:46:07.853</time></trkpt><trkpt lat="55.6193075" lon="49.4780556"><time>2025-05-18T07:46:11.890</time></trkpt><trkpt lat="55.6192789" lon="49.4781347"><time>2025-05-18T07:46:16.087</time></trkpt><trkpt lat="55.6192552" lon="49.4782055"><time>2025-05-18T07:46:19.113</time></trkpt><trkpt lat="55.6192258" lon="49.4782664"><time>2025-05-18T07:46:21.863</time></trkpt><trkpt lat="55.6191716" lon="49.4782544"><time>2025-05-18T07:46:24.940</time></trkpt><trkpt lat="55.6191274" lon="49.4782298"><time>2025-05-18T07:46:27.897</time></trkpt><trkpt lat="55.6190866" lon="49.4781912"><time>2025-05-18T07:46:30.903</time></trkpt><trkpt lat="55.6190480" lon="49.4781301"><time>2025-05-18T07:46:33.907</time></trkpt><trkpt lat="55.6189997" lon="49.4780708"><time>2025-05-18T07:46:37.890</time></trkpt><trkpt lat="55.6189628" lon="49.4780206"><time>2025-05-18T07:46:40.907</time></trkpt><trkpt lat="55.6189235" lon="49.4779504"><time>2025-05-18T07:46:45.063</time></trkpt><trkpt lat="55.6188914" lon="49.4778870"><time>2025-05-18T07:46:47.910</time></trkpt><trkpt lat="55.6188519" lon="49.4778136"><time>2025-05-18T07:46:51.870</time></trkpt><trkpt lat="55.6188152" lon="49.4777434"><time>2025-05-18T07:46:56.163</time></trkpt><trkpt lat="55.6187766" lon="49.4776765"><time>2025-05-18T07:47:00.070</time></trkpt><trkpt lat="55.6187401" lon="49.4776193"><time>2025-05-18T07:47:02.897</time></trkpt><trkpt lat="55.6186969" lon="49.4775715"><time>2025-05-18T07:47:06.847</time></trkpt><trkpt lat="55.6186505" lon="49.4775495"><time>2025-05-18T07:47:11.090</time></trkpt><trkpt lat="55.6186062" lon="49.4775310"><time>2025-05-18T07:47:14.090</time></trkpt><trkpt lat="55.6185479" lon="49.4775134"><time>2025-05-18T07:47:17.847</time></trkpt><trkpt lat="55.6184985" lon="49.4775081"><time>2025-05-18T07:47:20.857</time></trkpt><trkpt lat="55.6184474" lon="49.4775054"><time>2025-05-18T07:47:24.147</time></trkpt><trkpt lat="55.6184008" lon="49.4775092"><time>2025-05-18T07:47:26.877</time></trkpt><trkpt lat="55.6183452" lon="49.4775569"><time>2025-05-18T07:47:31.083</time></trkpt><trkpt lat="55.6183081" lon="49.4776065"><time>2025-05-18T07:47:34.117</time></trkpt><trkpt lat="55.6182654" lon="49.4776710"><time>2025-05-18T07:47:37.913</time></trkpt><trkpt lat="55.6182324" lon="49.4777295"><time>2025-05-18T07:47:41.893</time></trkpt><trkpt lat="55.6182003" lon="49.4777891"><time>2025-05-18T07:47:46.090</time></trkpt><trkpt lat="55.6181672" lon="49.4778661"><time>2025-05-18T07:47:50.167</time></trkpt><trkpt lat="55.6181477" lon="49.4779415"><time>2025-05-18T07:47:53.920</time></trkpt><trkpt lat="55.6181226" lon="49.4780270"><time>2025-05-18T07:47:58.917</time></trkpt><trkpt lat="55.6180943" lon="49.4781049"><time>2025-05-18T07:48:01.923</time></trkpt><trkpt lat="55.6180724" lon="49.4781744"><time>2025-05-18T07:48:04.943</time></trkpt><trkpt lat="55.6180597" lon="49.4782529"><time>2025-05-18T07:48:08.903</time></trkpt><trkpt lat="55.6180543" lon="49.4783417"><time>2025-05-18T07:48:12.913</time></trkpt><trkpt lat="55.6180399" lon="49.4784230"><time>2025-05-18T07:48:15.920</time></trkpt><trkpt lat="55.6180204" lon="49.4785260"><time>2025-05-18T07:48:21.910</time></trkpt><trkpt lat="55.6180083" lon="49.4786334"><time>2025-05-18T07:48:26.067</time></trkpt><trkpt lat="55.6179588" lon="49.4786885"><time>2025-05-18T07:48:30.863</time></trkpt><trkpt lat="55.6179110" lon="49.4786810"><time>2025-05-18T07:48:34.910</time></trkpt><trkpt lat="55.6178719" lon="49.4786393"><time>2025-05-18T07:48:37.913</time></trkpt><trkpt lat="55.6178226" lon="49.4786046"><time>2025-05-18T07:48:41.110</time></trkpt><trkpt lat="55.6177784" lon="49.4785784"><time>2025-05-18T07:48:43.903</time></trkpt><trkpt lat="55.6177290" lon="49.4785507"><time>2025-05-18T07:48:46.907</time></trkpt><trkpt lat="55.6176816" lon="49.4785279"><time>2025-05-18T07:48:50.123</time></trkpt><trkpt lat="55.6176315" lon="49.4785143"><time>2025-05-18T07:48:52.917</time></trkpt><trkpt lat="55.6175704" lon="49.4784841"><time>2025-05-18T07:48:56.917</time></trkpt><trkpt lat="55.6175286" lon="49.4784499"><time>2025-05-18T07:49:00.083</time></trkpt><trkpt lat="55.6174838" lon="49.4784046"><time>2025-05-18T07:49:02.917</time></trkpt><trkpt lat="55.6174363" lon="49.4783655"><time>2025-05-18T07:49:05.927</time></trkpt><trkpt lat="55.6173873" lon="49.4783097"><time>2025-05-18T07:49:10.087</time></trkpt><trkpt lat="55.6173353" lon="49.4782981"><time>2025-05-18T07:49:13.843</time></trkpt><trkpt lat="55.6172900" lon="49.4783018"><time>2025-05-18T07:49:16.837</time></trkpt><trkpt lat="55.6172362" lon="49.4782815"><time>2025-05-18T07:49:20.837</time></trkpt><trkpt lat="55.6171930" lon="49.4782508"><time>2025-05-18T07:49:23.850</time></trkpt><trkpt lat="55.6171612" lon="49.4783160"><time>2025-05-18T07:49:31.900</time></trkpt><trkpt lat="55.6171444" lon="49.4783971"><time>2025-05-18T07:49:34.907</time></trkpt><trkpt lat="55.6171376" lon="49.4784841"><time>2025-05-18T07:49:39.107</time></trkpt><trkpt lat="55.6171123" lon="49.4785511"><time>2025-05-18T07:49:41.907</time></trkpt><trkpt lat="55.6170771" lon="49.4786012"><time>2025-05-18T07:49:44.920</time></trkpt><trkpt lat="55.6170470" lon="49.4786683"><time>2025-05-18T07:49:49.913</time></trkpt><trkpt lat="55.6170289" lon="49.4787571"><time>2025-05-18T07:49:56.887</time></trkpt><trkpt lat="55.6169962" lon="49.4788234"><time>2025-05-18T07:50:01.160</time></trkpt><trkpt lat="55.6169793" lon="49.4789015"><time>2025-05-18T07:50:05.083</time></trkpt><trkpt lat="55.6169544" lon="49.4789805"><time>2025-05-18T07:50:08.910</time></trkpt><trkpt lat="55.6169410" lon="49.4790767"><time>2025-05-18T07:50:13.960</time></trkpt><trkpt lat="55.6169401" lon="49.4791627"><time>2025-05-18T07:50:21.093</time></trkpt><trkpt lat="55.6169115" lon="49.4792262"><time>2025-05-18T07:50:30.933</time></trkpt><trkpt lat="55.6168706" lon="49.4791872"><time>2025-05-18T07:50:44.087</time></trkpt><trkpt lat="55.6169125" lon="49.4792195"><time>2025-05-18T07:50:54.987</time></trkpt><trkpt lat="55.6169283" lon="49.4791720"><time>2025-05-18T07:51:07.177</time></trkpt><trkpt lat="55.6169084" lon="49.4791286"><time>2025-05-18T07:51:15.850</time></trkpt><trkpt lat="55.6169266" lon="49.4790430"><time>2025-05-18T07:51:20.840</time></trkpt><trkpt lat="55.6169478" lon="49.4789594"><time>2025-05-18T07:51:24.853</time></trkpt><trkpt lat="55.6169799" lon="49.4788690"><time>2025-05-18T07:51:28.847</time></trkpt><trkpt lat="55.6170037" lon="49.4787901"><time>2025-05-18T07:51:32.827</time></trkpt><trkpt lat="55.6170340" lon="49.4787167"><time>2025-05-18T07:51:36.837</time></trkpt><trkpt lat="55.6170435" lon="49.4786383"><time>2025-05-18T07:51:40.867</time></trkpt><trkpt lat="55.6170666" lon="49.4785691"><time>2025-05-18T07:51:45.053</time></trkpt><trkpt lat="55.6170978" lon="49.4784916"><time>2025-05-18T07:51:50.060</time></trkpt><trkpt lat="55.6171274" lon="49.4784261"><time>2025-05-18T07:51:54.127</time></trkpt><trkpt lat="55.6171402" lon="49.4783287"><time>2025-05-18T07:51:57.903</time></trkpt><trkpt lat="55.6171479" lon="49.4782379"><time>2025-05-18T07:52:01.900</time></trkpt><trkpt lat="55.6170992" lon="49.4781950"><time>2025-05-18T07:52:06.907</time></trkpt><trkpt lat="55.6170527" lon="49.4781557"><time>2025-05-18T07:52:10.843</time></trkpt><trkpt lat="55.6170125" lon="49.4781118"><time>2025-05-18T07:52:14.957</time></trkpt><trkpt lat="55.6169657" lon="49.4780891"><time>2025-05-18T07:52:18.953</time></trkpt><trkpt lat="55.6169165" lon="49.4780588"><time>2025-05-18T07:52:22.847</time></trkpt><trkpt lat="55.6168708" lon="49.4780463"><time>2025-05-18T07:52:25.840</time></trkpt><trkpt lat="55.6168248" lon="49.4780545"><time>2025-05-18T07:52:28.843</time></trkpt><trkpt lat="55.6167727" lon="49.4780915"><time>2025-05-18T07:52:32.847</time></trkpt><trkpt lat="55.6167240" lon="49.4781160"><time>2025-05-18T07:52:35.957</time></trkpt><trkpt lat="55.6166687" lon="49.4781334"><time>2025-05-18T07:52:39.953</time></trkpt><trkpt lat="55.6166183" lon="49.4781651"><time>2025-05-18T07:52:44.127</time></trkpt><trkpt lat="55.6165758" lon="49.4782178"><time>2025-05-18T07:52:49.067</time></trkpt><trkpt lat="55.6165410" lon="49.4782772"><time>2025-05-18T07:52:52.917</time></trkpt><trkpt lat="55.6165087" lon="49.4783406"><time>2025-05-18T07:52:56.890</time></trkpt><trkpt lat="55.6164772" lon="49.4784254"><time>2025-05-18T07:53:01.097</time></trkpt><trkpt lat="55.6164418" lon="49.4784810"><time>2025-05-18T07:53:04.840</time></trkpt><trkpt lat="55.6163972" lon="49.4785224"><time>2025-05-18T07:53:08.850</time></trkpt><trkpt lat="55.6163598" lon="49.4785865"><time>2025-05-18T07:53:16.920</time></trkpt><trkpt lat="55.6163212" lon="49.4786470"><time>2025-05-18T07:53:19.907</time></trkpt><trkpt lat="55.6162980" lon="49.4787245"><time>2025-05-18T07:53:22.903</time></trkpt><trkpt lat="55.6162553" lon="49.4787597"><time>2025-05-18T07:53:26.900</time></trkpt><trkpt lat="55.6162289" lon="49.4788508"><time>2025-05-18T07:53:31.893</time></trkpt><trkpt lat="55.6161965" lon="49.4789152"><time>2025-05-18T07:53:36.847</time></trkpt><trkpt lat="55.6161592" lon="49.4789637"><time>2025-05-18T07:53:41.080</time></trkpt><trkpt lat="55.6161381" lon="49.4790439"><time>2025-05-18T07:53:44.963</time></trkpt><trkpt lat="55.6161096" lon="49.4791369"><time>2025-05-18T07:53:49.093</time></trkpt><trkpt lat="55.6160842" lon="49.4792202"><time>2025-05-18T07:53:53.090</time></trkpt><trkpt lat="55.6160540" lon="49.4793029"><time>2025-05-18T07:53:55.883</time></trkpt><trkpt lat="55.6160306" lon="49.4793970"><time>2025-05-18T07:54:00.183</time></trkpt><trkpt lat="55.6160043" lon="49.4794905"><time>2025-05-18T07:54:02.933</time></trkpt><trkpt lat="55.6159722" lon="49.4795633"><time>2025-05-18T07:54:05.827</time></trkpt><trkpt lat="55.6159464" lon="49.4796432"><time>2025-05-18T07:54:08.857</time></trkpt><trkpt lat="55.6159077" lon="49.4796997"><time>2025-05-18T07:54:11.930</time></trkpt><trkpt lat="55.6158744" lon="49.4797687"><time>2025-05-18T07:54:14.940</time></trkpt><trkpt lat="55.6158294" lon="49.4798181"><time>2025-05-18T07:54:18.920</time></trkpt><trkpt lat="55.6157736" lon="49.4798217"><time>2025-05-18T07:54:22.907</time></trkpt><trkpt lat="55.6157350" lon="49.4797811"><time>2025-05-18T07:54:25.910</time></trkpt><trkpt lat="55.6156908" lon="49.4797076"><time>2025-05-18T07:54:28.843</time></trkpt><trkpt lat="55.6156402" lon="49.4796293"><time>2025-05-18T07:54:30.853</time></trkpt><trkpt lat="55.6155962" lon="49.4795597"><time>2025-05-18T07:54:32.897</time></trkpt><trkpt lat="55.6155552" lon="49.4794891"><time>2025-05-18T07:54:35.100</time></trkpt><trkpt lat="55.6155292" lon="49.4794082"><time>2025-05-18T07:54:36.857</time></trkpt><trkpt lat="55.6155187" lon="49.4792922"><time>2025-05-18T07:54:39.947</time></trkpt><trkpt lat="55.6154899" lon="49.4791787"><time>2025-05-18T07:54:42.917</time></trkpt><trkpt lat="55.6154687" lon="49.4790902"><time>2025-05-18T07:54:45.123</time></trkpt><trkpt lat="55.6154401" lon="49.4790180"><time>2025-05-18T07:54:46.877</time></trkpt><trkpt lat="55.6154099" lon="49.4789342"><time>2025-05-18T07:54:49.167</time></trkpt><trkpt lat="55.6153876" lon="49.4788617"><time>2025-05-18T07:54:50.910</time></trkpt><trkpt lat="55.6153561" lon="49.4787593"><time>2025-05-18T07:54:54.090</time></trkpt><trkpt lat="55.6153266" lon="49.4786613"><time>2025-05-18T07:54:56.910</time></trkpt><trkpt lat="55.6152986" lon="49.4785623"><time>2025-05-18T07:55:00.100</time></trkpt><trkpt lat="55.6152674" lon="49.4784653"><time>2025-05-18T07:55:03.103</time></trkpt><trkpt lat="55.6152307" lon="49.4783695"><time>2025-05-18T07:55:06.117</time></trkpt><trkpt lat="55.6152062" lon="49.4782982"><time>2025-05-18T07:55:07.910</time></trkpt><trkpt lat="55.6151801" lon="49.4782297"><time>2025-05-18T07:55:09.933</time></trkpt><trkpt lat="55.6151384" lon="49.4781614"><time>2025-05-18T07:55:15.153</time></trkpt><trkpt lat="55.6151018" lon="49.4780873"><time>2025-05-18T07:55:19.187</time></trkpt><trkpt lat="55.6150803" lon="49.4780026"><time>2025-05-18T07:55:22.913</time></trkpt><trkpt lat="55.6150491" lon="49.4779299"><time>2025-05-18T07:55:26.097</time></trkpt><trkpt lat="55.6150166" lon="49.4778450"><time>2025-05-18T07:55:30.103</time></trkpt><trkpt lat="55.6149788" lon="49.4777832"><time>2025-05-18T07:55:32.920</time></trkpt><trkpt lat="55.6149609" lon="49.4776864"><time>2025-05-18T07:55:36.893</time></trkpt><trkpt lat="55.6149323" lon="49.4776176"><time>2025-05-18T07:55:40.093</time></trkpt><trkpt lat="55.6149081" lon="49.4775445"><time>2025-05-18T07:55:42.923</time></trkpt><trkpt lat="55.6148907" lon="49.4774569"><time>2025-05-18T07:55:46.090</time></trkpt><trkpt lat="55.6148624" lon="49.4773657"><time>2025-05-18T07:55:48.930</time></trkpt><trkpt lat="55.6148317" lon="49.4772916"><time>2025-05-18T07:55:51.877</time></trkpt><trkpt lat="55.6148104" lon="49.4772174"><time>2025-05-18T07:55:55.110</time></trkpt><trkpt lat="55.6148016" lon="49.4771314"><time>2025-05-18T07:55:57.917</time></trkpt><trkpt lat="55.6147783" lon="49.4770606"><time>2025-05-18T07:56:01.100</time></trkpt><trkpt lat="55.6147630" lon="49.4769586"><time>2025-05-18T07:56:04.900</time></trkpt><trkpt lat="55.6147324" lon="49.4768855"><time>2025-05-18T07:56:07.913</time></trkpt><trkpt lat="55.6147074" lon="49.4767928"><time>2025-05-18T07:56:11.910</time></trkpt><trkpt lat="55.6146936" lon="49.4767000"><time>2025-05-18T07:56:15.080</time></trkpt><trkpt lat="55.6146841" lon="49.4766085"><time>2025-05-18T07:56:17.917</time></trkpt><trkpt lat="55.6146694" lon="49.4765198"><time>2025-05-18T07:56:21.080</time></trkpt><trkpt lat="55.6146512" lon="49.4764269"><time>2025-05-18T07:56:25.113</time></trkpt><trkpt lat="55.6146588" lon="49.4763440"><time>2025-05-18T07:56:27.917</time></trkpt><trkpt lat="55.6146664" lon="49.4762658"><time>2025-05-18T07:56:31.100</time></trkpt><trkpt lat="55.6146558" lon="49.4761650"><time>2025-05-18T07:56:34.920</time></trkpt><trkpt lat="55.6146461" lon="49.4760631"><time>2025-05-18T07:56:37.910</time></trkpt><trkpt lat="55.6146408" lon="49.4759748"><time>2025-05-18T07:56:40.917</time></trkpt><trkpt lat="55.6146361" lon="49.4758825"><time>2025-05-18T07:56:44.840</time></trkpt><trkpt lat="55.6146179" lon="49.4757896"><time>2025-05-18T07:56:48.847</time></trkpt><trkpt lat="55.6145775" lon="49.4757243"><time>2025-05-18T07:56:51.840</time></trkpt><trkpt lat="55.6145312" lon="49.4757102"><time>2025-05-18T07:56:56.823</time></trkpt><trkpt lat="55.6144618" lon="49.4757188"><time>2025-05-18T07:57:03.840</time></trkpt><trkpt lat="55.6144051" lon="49.4757010"><time>2025-05-18T07:57:07.867</time></trkpt><trkpt lat="55.6143589" lon="49.4756867"><time>2025-05-18T07:57:12.857</time></trkpt><trkpt lat="55.6143039" lon="49.4756596"><time>2025-05-18T07:57:17.823</time></trkpt><trkpt lat="55.6142574" lon="49.4756457"><time>2025-05-18T07:57:20.867</time></trkpt><trkpt lat="55.6142077" lon="49.4756454"><time>2025-05-18T07:57:24.983</time></trkpt><trkpt lat="55.6141574" lon="49.4756526"><time>2025-05-18T07:57:29.977</time></trkpt><trkpt lat="55.6140943" lon="49.4756113"><time>2025-05-18T07:57:32.860</time></trkpt><trkpt lat="55.6140496" lon="49.4755869"><time>2025-05-18T07:57:35.967</time></trkpt><trkpt lat="55.6140060" lon="49.4755482"><time>2025-05-18T07:57:38.993</time></trkpt><trkpt lat="55.6139628" lon="49.4755122"><time>2025-05-18T07:57:41.873</time></trkpt><trkpt lat="55.6139062" lon="49.4755237"><time>2025-05-18T07:57:44.933</time></trkpt><trkpt lat="55.6138524" lon="49.4755339"><time>2025-05-18T07:57:48.853</time></trkpt><trkpt lat="55.6138022" lon="49.4755392"><time>2025-05-18T07:57:51.850</time></trkpt><trkpt lat="55.6137449" lon="49.4755362"><time>2025-05-18T07:57:54.937</time></trkpt><trkpt lat="55.6136896" lon="49.4755291"><time>2025-05-18T07:57:57.927</time></trkpt><trkpt lat="55.6136342" lon="49.4755279"><time>2025-05-18T07:58:00.943</time></trkpt><trkpt lat="55.6135844" lon="49.4754910"><time>2025-05-18T07:58:03.907</time></trkpt><trkpt lat="55.6135330" lon="49.4754847"><time>2025-05-18T07:58:08.867</time></trkpt><trkpt lat="55.6134844" lon="49.4754517"><time>2025-05-18T07:58:12.867</time></trkpt><trkpt lat="55.6134343" lon="49.4754555"><time>2025-05-18T07:58:15.920</time></trkpt><trkpt lat="55.6133712" lon="49.4754400"><time>2025-05-18T07:58:18.913</time></trkpt><trkpt lat="55.6133186" lon="49.4754097"><time>2025-05-18T07:58:21.893</time></trkpt><trkpt lat="55.6132710" lon="49.4753714"><time>2025-05-18T07:58:24.920</time></trkpt><trkpt lat="55.6131961" lon="49.4753568"><time>2025-05-18T07:58:30.877</time></trkpt><trkpt lat="55.6131466" lon="49.4753441"><time>2025-05-18T07:58:33.863</time></trkpt><trkpt lat="55.6130895" lon="49.4753280"><time>2025-05-18T07:58:36.867</time></trkpt><trkpt lat="55.6130443" lon="49.4753096"><time>2025-05-18T07:58:40.923</time></trkpt><trkpt lat="55.6129805" lon="49.4753160"><time>2025-05-18T07:58:45.910</time></trkpt><trkpt lat="55.6129321" lon="49.4753109"><time>2025-05-18T07:58:48.853</time></trkpt><trkpt lat="55.6128798" lon="49.4753114"><time>2025-05-18T07:58:52.850</time></trkpt><trkpt lat="55.6128261" lon="49.4753012"><time>2025-05-18T07:58:56.870</time></trkpt><trkpt lat="55.6127760" lon="49.4752973"><time>2025-05-18T07:59:00.827</time></trkpt><trkpt lat="55.6127187" lon="49.4752835"><time>2025-05-18T07:59:03.857</time></trkpt><trkpt lat="55.6126668" lon="49.4752359"><time>2025-05-18T07:59:06.857</time></trkpt><trkpt lat="55.6126134" lon="49.4752185"><time>2025-05-18T07:59:10.863</time></trkpt><trkpt lat="55.6125687" lon="49.4751904"><time>2025-05-18T07:59:13.873</time></trkpt><trkpt lat="55.6125144" lon="49.4751794"><time>2025-05-18T07:59:16.877</time></trkpt><trkpt lat="55.6124566" lon="49.4751585"><time>2025-05-18T07:59:20.870</time></trkpt><trkpt lat="55.6124038" lon="49.4751240"><time>2025-05-18T07:59:23.863</time></trkpt><trkpt lat="55.6123568" lon="49.4751246"><time>2025-05-18T07:59:27.847</time></trkpt><trkpt lat="55.6123018" lon="49.4751092"><time>2025-05-18T07:59:31.833</time></trkpt><trkpt lat="55.6122522" lon="49.4750892"><time>2025-05-18T07:59:34.867</time></trkpt><trkpt lat="55.6121973" lon="49.4750721"><time>2025-05-18T07:59:38.833</time></trkpt><trkpt lat="55.6121398" lon="49.4750431"><time>2025-05-18T07:59:42.860</time></trkpt><trkpt lat="55.6120919" lon="49.4750296"><time>2025-05-18T07:59:44.857</time></trkpt><trkpt lat="55.6120361" lon="49.4750077"><time>2025-05-18T07:59:47.933</time></trkpt><trkpt lat="55.6119884" lon="49.4750155"><time>2025-05-18T07:59:51.917</time></trkpt><trkpt lat="55.6119381" lon="49.4750292"><time>2025-05-18T07:59:55.917</time></trkpt><trkpt lat="55.6118850" lon="49.4750318"><time>2025-05-18T08:00:00.920</time></trkpt><trkpt lat="55.6118378" lon="49.4750224"><time>2025-05-18T08:00:03.867</time></trkpt><trkpt lat="55.6117827" lon="49.4750152"><time>2025-05-18T08:00:06.837</time></trkpt><trkpt lat="55.6117228" lon="49.4750110"><time>2025-05-18T08:00:10.933</time></trkpt><trkpt lat="55.6116733" lon="49.4749848"><time>2025-05-18T08:00:13.930</time></trkpt><trkpt lat="55.6116349" lon="49.4749393"><time>2025-05-18T08:00:17.950</time></trkpt><trkpt lat="55.6115846" lon="49.4749145"><time>2025-05-18T08:00:20.927</time></trkpt><trkpt lat="55.6115348" lon="49.4748949"><time>2025-05-18T08:00:23.917</time></trkpt><trkpt lat="55.6114786" lon="49.4748720"><time>2025-05-18T08:00:26.910</time></trkpt><trkpt lat="55.6114182" lon="49.4748850"><time>2025-05-18T08:00:30.910</time></trkpt><trkpt lat="55.6113668" lon="49.4748692"><time>2025-05-18T08:00:34.853</time></trkpt><trkpt lat="55.6113100" lon="49.4748693"><time>2025-05-18T08:00:38.920</time></trkpt><trkpt lat="55.6112651" lon="49.4748350"><time>2025-05-18T08:00:42.927</time></trkpt><trkpt lat="55.6112094" lon="49.4748374"><time>2025-05-18T08:00:45.937</time></trkpt><trkpt lat="55.6111559" lon="49.4748383"><time>2025-05-18T08:00:48.933</time></trkpt><trkpt lat="55.6111063" lon="49.4748114"><time>2025-05-18T08:00:52.870</time></trkpt><trkpt lat="55.6110557" lon="49.4747801"><time>2025-05-18T08:00:55.860</time></trkpt><trkpt lat="55.6110160" lon="49.4747260"><time>2025-05-18T08:00:59.857</time></trkpt><trkpt lat="55.6109780" lon="49.4746513"><time>2025-05-18T08:01:03.853</time></trkpt><trkpt lat="55.6109491" lon="49.4745894"><time>2025-05-18T08:01:06.907</time></trkpt><trkpt lat="55.6109295" lon="49.4745023"><time>2025-05-18T08:01:09.870</time></trkpt><trkpt lat="55.6108998" lon="49.4744128"><time>2025-05-18T08:01:12.863</time></trkpt><trkpt lat="55.6108641" lon="49.4743329"><time>2025-05-18T08:01:15.847</time></trkpt><trkpt lat="55.6108425" lon="49.4742566"><time>2025-05-18T08:01:18.867</time></trkpt><trkpt lat="55.6108120" lon="49.4741950"><time>2025-05-18T08:01:21.887</time></trkpt><trkpt lat="55.6107959" lon="49.4741191"><time>2025-05-18T08:01:24.927</time></trkpt><trkpt lat="55.6107829" lon="49.4740241"><time>2025-05-18T08:01:29.847</time></trkpt><trkpt lat="55.6107777" lon="49.4739426"><time>2025-05-18T08:01:32.860</time></trkpt><trkpt lat="55.6107834" lon="49.4738468"><time>2025-05-18T08:01:35.923</time></trkpt><trkpt lat="55.6107884" lon="49.4737536"><time>2025-05-18T08:01:38.907</time></trkpt><trkpt lat="55.6107949" lon="49.4736563"><time>2025-05-18T08:01:41.857</time></trkpt><trkpt lat="55.6107781" lon="49.4735741"><time>2025-05-18T08:01:44.960</time></trkpt><trkpt lat="55.6107790" lon="49.4734891"><time>2025-05-18T08:01:47.857</time></trkpt><trkpt lat="55.6107733" lon="49.4733902"><time>2025-05-18T08:01:51.897</time></trkpt><trkpt lat="55.6107638" lon="49.4732936"><time>2025-05-18T08:01:56.843</time></trkpt><trkpt lat="55.6107598" lon="49.4732105"><time>2025-05-18T08:01:59.960</time></trkpt><trkpt lat="55.6107718" lon="49.4731134"><time>2025-05-18T08:02:02.957</time></trkpt><trkpt lat="55.6107658" lon="49.4730270"><time>2025-05-18T08:02:05.850</time></trkpt><trkpt lat="55.6107596" lon="49.4729275"><time>2025-05-18T08:02:08.860</time></trkpt><trkpt lat="55.6107513" lon="49.4728375"><time>2025-05-18T08:02:11.867</time></trkpt><trkpt lat="55.6107405" lon="49.4727462"><time>2025-05-18T08:02:14.847</time></trkpt><trkpt lat="55.6107421" lon="49.4726503"><time>2025-05-18T08:02:18.853</time></trkpt><trkpt lat="55.6107473" lon="49.4725599"><time>2025-05-18T08:02:22.877</time></trkpt><trkpt lat="55.6107546" lon="49.4724706"><time>2025-05-18T08:02:25.857</time></trkpt><trkpt lat="55.6107718" lon="49.4723768"><time>2025-05-18T08:02:29.030</time></trkpt><trkpt lat="55.6107990" lon="49.4722990"><time>2025-05-18T08:02:31.863</time></trkpt><trkpt lat="55.6108132" lon="49.4722152"><time>2025-05-18T08:02:36.043</time></trkpt><trkpt lat="55.6108297" lon="49.4721331"><time>2025-05-18T08:02:40.843</time></trkpt><trkpt lat="55.6108414" lon="49.4720539"><time>2025-05-18T08:02:43.853</time></trkpt><trkpt lat="55.6108507" lon="49.4719636"><time>2025-05-18T08:02:46.863</time></trkpt><trkpt lat="55.6108453" lon="49.4718837"><time>2025-05-18T08:02:49.860</time></trkpt><trkpt lat="55.6108399" lon="49.4717919"><time>2025-05-18T08:02:54.010</time></trkpt><trkpt lat="55.6108272" lon="49.4717033"><time>2025-05-18T08:02:57.887</time></trkpt><trkpt lat="55.6108128" lon="49.4716273"><time>2025-05-18T08:03:00.980</time></trkpt><trkpt lat="55.6108030" lon="49.4715223"><time>2025-05-18T08:03:03.940</time></trkpt><trkpt lat="55.6108018" lon="49.4714241"><time>2025-05-18T08:03:08.077</time></trkpt><trkpt lat="55.6107853" lon="49.4713473"><time>2025-05-18T08:03:10.960</time></trkpt><trkpt lat="55.6107621" lon="49.4712769"><time>2025-05-18T08:03:14.133</time></trkpt><trkpt lat="55.6107452" lon="49.4711792"><time>2025-05-18T08:03:19.153</time></trkpt><trkpt lat="55.6107336" lon="49.4710975"><time>2025-05-18T08:03:21.920</time></trkpt><trkpt lat="55.6107141" lon="49.4710096"><time>2025-05-18T08:03:24.927</time></trkpt><trkpt lat="55.6107025" lon="49.4709266"><time>2025-05-18T08:03:27.927</time></trkpt><trkpt lat="55.6106775" lon="49.4708548"><time>2025-05-18T08:03:30.980</time></trkpt><trkpt lat="55.6106387" lon="49.4708045"><time>2025-05-18T08:03:33.910</time></trkpt><trkpt lat="55.6105985" lon="49.4707565"><time>2025-05-18T08:03:37.920</time></trkpt><trkpt lat="55.6105500" lon="49.4706725"><time>2025-05-18T08:03:41.913</time></trkpt><trkpt lat="55.6105031" lon="49.4705888"><time>2025-05-18T08:03:44.147</time></trkpt><trkpt lat="55.6104553" lon="49.4705567"><time>2025-05-18T08:03:49.933</time></trkpt><trkpt lat="55.6104278" lon="49.4704648"><time>2025-05-18T08:03:55.907</time></trkpt><trkpt lat="55.6104201" lon="49.4703584"><time>2025-05-18T08:03:58.877</time></trkpt><trkpt lat="55.6103959" lon="49.4702817"><time>2025-05-18T08:04:01.847</time></trkpt><trkpt lat="55.6103528" lon="49.4702315"><time>2025-05-18T08:04:06.087</time></trkpt><trkpt lat="55.6103275" lon="49.4701581"><time>2025-05-18T08:04:10.183</time></trkpt><trkpt lat="55.6103152" lon="49.4700667"><time>2025-05-18T08:04:13.907</time></trkpt><trkpt lat="55.6102993" lon="49.4699607"><time>2025-05-18T08:04:16.913</time></trkpt><trkpt lat="55.6102739" lon="49.4698538"><time>2025-05-18T08:04:19.907</time></trkpt><trkpt lat="55.6102558" lon="49.4697761"><time>2025-05-18T08:04:24.127</time></trkpt><trkpt lat="55.6102364" lon="49.4697020"><time>2025-05-18T08:04:26.927</time></trkpt><trkpt lat="55.6102070" lon="49.4696059"><time>2025-05-18T08:04:30.977</time></trkpt><trkpt lat="55.6101846" lon="49.4695275"><time>2025-05-18T08:04:33.917</time></trkpt><trkpt lat="55.6101354" lon="49.4694650"><time>2025-05-18T08:04:37.920</time></trkpt><trkpt lat="55.6101135" lon="49.4693873"><time>2025-05-18T08:04:41.127</time></trkpt><trkpt lat="55.6100763" lon="49.4692969"><time>2025-05-18T08:04:45.047</time></trkpt><trkpt lat="55.6100576" lon="49.4692190"><time>2025-05-18T08:04:47.857</time></trkpt><trkpt lat="55.6100266" lon="49.4691456"><time>2025-05-18T08:04:51.897</time></trkpt><trkpt lat="55.6100029" lon="49.4690539"><time>2025-05-18T08:04:56.103</time></trkpt><trkpt lat="55.6099661" lon="49.4689837"><time>2025-05-18T08:04:58.867</time></trkpt><trkpt lat="55.6099386" lon="49.4689196"><time>2025-05-18T08:05:01.867</time></trkpt><trkpt lat="55.6099070" lon="49.4688404"><time>2025-05-18T08:05:06.917</time></trkpt><trkpt lat="55.6098747" lon="49.4687536"><time>2025-05-18T08:05:10.100</time></trkpt><trkpt lat="55.6098352" lon="49.4686642"><time>2025-05-18T08:05:12.917</time></trkpt><trkpt lat="55.6098103" lon="49.4685705"><time>2025-05-18T08:05:16.150</time></trkpt><trkpt lat="55.6097902" lon="49.4684842"><time>2025-05-18T08:05:19.187</time></trkpt><trkpt lat="55.6097617" lon="49.4684010"><time>2025-05-18T08:05:22.927</time></trkpt><trkpt lat="55.6097412" lon="49.4683122"><time>2025-05-18T08:05:27.933</time></trkpt><trkpt lat="55.6097464" lon="49.4682166"><time>2025-05-18T08:05:31.850</time></trkpt><trkpt lat="55.6097345" lon="49.4681362"><time>2025-05-18T08:05:34.923</time></trkpt><trkpt lat="55.6097151" lon="49.4680576"><time>2025-05-18T08:05:37.900</time></trkpt><trkpt lat="55.6096853" lon="49.4679892"><time>2025-05-18T08:05:41.860</time></trkpt><trkpt lat="55.6096841" lon="49.4679048"><time>2025-05-18T08:05:46.897</time></trkpt><trkpt lat="55.6096721" lon="49.4678237"><time>2025-05-18T08:05:50.120</time></trkpt><trkpt lat="55.6096640" lon="49.4677445"><time>2025-05-18T08:05:51.917</time></trkpt><trkpt lat="55.6096546" lon="49.4676541"><time>2025-05-18T08:05:54.927</time></trkpt><trkpt lat="55.6096395" lon="49.4675711"><time>2025-05-18T08:05:57.927</time></trkpt><trkpt lat="55.6096458" lon="49.4674905"><time>2025-05-18T08:06:00.860</time></trkpt><trkpt lat="55.6096532" lon="49.4674008"><time>2025-05-18T08:06:04.853</time></trkpt><trkpt lat="55.6096278" lon="49.4673148"><time>2025-05-18T08:06:14.160</time></trkpt><trkpt lat="55.6095938" lon="49.4672516"><time>2025-05-18T08:06:19.100</time></trkpt><trkpt lat="55.6095868" lon="49.4671548"><time>2025-05-18T08:06:23.910</time></trkpt><trkpt lat="55.6095501" lon="49.4670856"><time>2025-05-18T08:06:28.857</time></trkpt><trkpt lat="55.6095364" lon="49.4670726"><time>2025-05-18T08:06:31.400</time></trkpt><trkpt lat="55.6095303" lon="49.4671745"><time>2025-05-18T08:06:40.983</time></trkpt><trkpt lat="55.6095227" lon="49.4672645"><time>2025-05-18T08:06:46.120</time></trkpt><trkpt lat="55.6095221" lon="49.4673440"><time>2025-05-18T08:06:51.087</time></trkpt><trkpt lat="55.6095195" lon="49.4674300"><time>2025-05-18T08:06:54.840</time></trkpt><trkpt lat="55.6095429" lon="49.4675096"><time>2025-05-18T08:07:00.970</time></trkpt><trkpt lat="55.6095702" lon="49.4675800"><time>2025-05-18T08:07:05.893</time></trkpt><trkpt lat="55.6095691" lon="49.4676748"><time>2025-05-18T08:07:11.857</time></trkpt><trkpt lat="55.6096086" lon="49.4677503"><time>2025-05-18T08:07:15.877</time></trkpt><trkpt lat="55.6096385" lon="49.4678177"><time>2025-05-18T08:07:18.887</time></trkpt><trkpt lat="55.6096430" lon="49.4678978"><time>2025-05-18T08:07:21.853</time></trkpt><trkpt lat="55.6096528" lon="49.4679918"><time>2025-05-18T08:07:28.183</time></trkpt><trkpt lat="55.6096901" lon="49.4680475"><time>2025-05-18T08:07:40.867</time></trkpt><trkpt lat="55.6096953" lon="49.4681270"><time>2025-05-18T08:07:44.860</time></trkpt><trkpt lat="55.6097206" lon="49.4682019"><time>2025-05-18T08:07:50.850</time></trkpt><trkpt lat="55.6097571" lon="49.4682733"><time>2025-05-18T08:07:56.083</time></trkpt><trkpt lat="55.6097907" lon="49.4683492"><time>2025-05-18T08:07:59.913</time></trkpt><trkpt lat="55.6098106" lon="49.4684250"><time>2025-05-18T08:08:04.863</time></trkpt><trkpt lat="55.6098246" lon="49.4685104"><time>2025-05-18T08:08:10.880</time></trkpt><trkpt lat="55.6098486" lon="49.4686255"><time>2025-05-18T08:08:16.913</time></trkpt><trkpt lat="55.6098737" lon="49.4687058"><time>2025-05-18T08:08:19.853</time></trkpt><trkpt lat="55.6098937" lon="49.4687776"><time>2025-05-18T08:08:22.850</time></trkpt><trkpt lat="55.6099206" lon="49.4688497"><time>2025-05-18T08:08:24.837</time></trkpt><trkpt lat="55.6099427" lon="49.4689376"><time>2025-05-18T08:08:27.850</time></trkpt><trkpt lat="55.6099728" lon="49.4690014"><time>2025-05-18T08:08:29.833</time></trkpt><trkpt lat="55.6099949" lon="49.4690779"><time>2025-05-18T08:08:32.923</time></trkpt><trkpt lat="55.6100082" lon="49.4691620"><time>2025-05-18T08:08:36.853</time></trkpt><trkpt lat="55.6100431" lon="49.4692462"><time>2025-05-18T08:08:40.877</time></trkpt><trkpt lat="55.6100624" lon="49.4693334"><time>2025-05-18T08:08:45.973</time></trkpt><trkpt lat="55.6100872" lon="49.4694279"><time>2025-05-18T08:08:49.927</time></trkpt><trkpt lat="55.6101002" lon="49.4695096"><time>2025-05-18T08:08:52.850</time></trkpt><trkpt lat="55.6101226" lon="49.4695831"><time>2025-05-18T08:08:57.917</time></trkpt><trkpt lat="55.6101497" lon="49.4696635"><time>2025-05-18T08:09:01.840</time></trkpt><trkpt lat="55.6101825" lon="49.4697326"><time>2025-05-18T08:09:04.840</time></trkpt><trkpt lat="55.6102062" lon="49.4698050"><time>2025-05-18T08:09:07.870</time></trkpt><trkpt lat="55.6102342" lon="49.4698877"><time>2025-05-18T08:09:10.837</time></trkpt><trkpt lat="55.6102574" lon="49.4699701"><time>2025-05-18T08:09:15.837</time></trkpt><trkpt lat="55.6102970" lon="49.4700218"><time>2025-05-18T08:09:18.890</time></trkpt><trkpt lat="55.6103250" lon="49.4700990"><time>2025-05-18T08:09:22.840</time></trkpt><trkpt lat="55.6103415" lon="49.4701857"><time>2025-05-18T08:09:26.830</time></trkpt><trkpt lat="55.6103786" lon="49.4702502"><time>2025-05-18T08:09:30.990</time></trkpt><trkpt lat="55.6103906" lon="49.4703493"><time>2025-05-18T08:09:37.870</time></trkpt><trkpt lat="55.6103896" lon="49.4704340"><time>2025-05-18T08:09:43.857</time></trkpt><trkpt lat="55.6104448" lon="49.4704891"><time>2025-05-18T08:09:50.977</time></trkpt><trkpt lat="55.6104908" lon="49.4705715"><time>2025-05-18T08:09:53.903</time></trkpt><trkpt lat="55.6105238" lon="49.4706584"><time>2025-05-18T08:09:56.887</time></trkpt><trkpt lat="55.6105522" lon="49.4707453"><time>2025-05-18T08:10:00.067</time></trkpt><trkpt lat="55.6105798" lon="49.4708122"><time>2025-05-18T08:10:03.970</time></trkpt><trkpt lat="55.6106133" lon="49.4708666"><time>2025-05-18T08:10:07.937</time></trkpt><trkpt lat="55.6106488" lon="49.4709290"><time>2025-05-18T08:10:13.103</time></trkpt><trkpt lat="55.6106762" lon="49.4710224"><time>2025-05-18T08:10:16.933</time></trkpt><trkpt lat="55.6107073" lon="49.4710974"><time>2025-05-18T08:10:21.090</time></trkpt><trkpt lat="55.6107385" lon="49.4711842"><time>2025-05-18T08:10:25.113</time></trkpt><trkpt lat="55.6107647" lon="49.4712725"><time>2025-05-18T08:10:28.867</time></trkpt><trkpt lat="55.6107722" lon="49.4713645"><time>2025-05-18T08:10:31.847</time></trkpt><trkpt lat="55.6107923" lon="49.4714529"><time>2025-05-18T08:10:35.067</time></trkpt><trkpt lat="55.6108040" lon="49.4715492"><time>2025-05-18T08:10:39.127</time></trkpt><trkpt lat="55.6108131" lon="49.4716331"><time>2025-05-18T08:10:41.927</time></trkpt><trkpt lat="55.6108210" lon="49.4717204"><time>2025-05-18T08:10:46.883</time></trkpt><trkpt lat="55.6108356" lon="49.4718002"><time>2025-05-18T08:10:51.140</time></trkpt><trkpt lat="55.6108442" lon="49.4718837"><time>2025-05-18T08:10:54.127</time></trkpt><trkpt lat="55.6108434" lon="49.4719691"><time>2025-05-18T08:10:56.853</time></trkpt><trkpt lat="55.6108347" lon="49.4720479"><time>2025-05-18T08:10:58.867</time></trkpt><trkpt lat="55.6108306" lon="49.4721443"><time>2025-05-18T08:11:02.827</time></trkpt><trkpt lat="55.6108152" lon="49.4722339"><time>2025-05-18T08:11:06.853</time></trkpt><trkpt lat="55.6107982" lon="49.4723236"><time>2025-05-18T08:11:10.990</time></trkpt><trkpt lat="55.6107880" lon="49.4724015"><time>2025-05-18T08:11:13.873</time></trkpt><trkpt lat="55.6108006" lon="49.4724853"><time>2025-05-18T08:11:17.883</time></trkpt><trkpt lat="55.6108034" lon="49.4725672"><time>2025-05-18T08:11:21</time></trkpt><trkpt lat="55.6108445" lon="49.4726533"><time>2025-05-18T08:11:23.893</time></trkpt><trkpt lat="55.6108645" lon="49.4727414"><time>2025-05-18T08:11:26.870</time></trkpt><trkpt lat="55.6108683" lon="49.4728472"><time>2025-05-18T08:11:31.840</time></trkpt><trkpt lat="55.6108767" lon="49.4729279"><time>2025-05-18T08:11:34.963</time></trkpt><trkpt lat="55.6108667" lon="49.4730147"><time>2025-05-18T08:11:40.040</time></trkpt><trkpt lat="55.6108689" lon="49.4730958"><time>2025-05-18T08:11:42.867</time></trkpt><trkpt lat="55.6108592" lon="49.4731898"><time>2025-05-18T08:11:45.980</time></trkpt><trkpt lat="55.6108526" lon="49.4732803"><time>2025-05-18T08:11:49.980</time></trkpt><trkpt lat="55.6108336" lon="49.4733531"><time>2025-05-18T08:11:51.830</time></trkpt><trkpt lat="55.6108220" lon="49.4734466"><time>2025-05-18T08:11:54.890</time></trkpt><trkpt lat="55.6108117" lon="49.4735282"><time>2025-05-18T08:11:57.877</time></trkpt><trkpt lat="55.6108168" lon="49.4736360"><time>2025-05-18T08:12:01.863</time></trkpt><trkpt lat="55.6108115" lon="49.4737265"><time>2025-05-18T08:12:05.837</time></trkpt><trkpt lat="55.6107994" lon="49.4738060"><time>2025-05-18T08:12:08.887</time></trkpt><trkpt lat="55.6107872" lon="49.4738982"><time>2025-05-18T08:12:12.870</time></trkpt><trkpt lat="55.6107670" lon="49.4739711"><time>2025-05-18T08:12:19.993</time></trkpt><trkpt lat="55.6107826" lon="49.4740792"><time>2025-05-18T08:12:23.837</time></trkpt><trkpt lat="55.6108174" lon="49.4741669"><time>2025-05-18T08:12:26.860</time></trkpt><trkpt lat="55.6108390" lon="49.4742608"><time>2025-05-18T08:12:29.820</time></trkpt><trkpt lat="55.6108563" lon="49.4743500"><time>2025-05-18T08:12:33.977</time></trkpt><trkpt lat="55.6108654" lon="49.4744400"><time>2025-05-18T08:12:37.853</time></trkpt><trkpt lat="55.6108729" lon="49.4745227"><time>2025-05-18T08:12:40.940</time></trkpt><trkpt lat="55.6108354" lon="49.4745996"><time>2025-05-18T08:12:45.857</time></trkpt><trkpt lat="55.6107859" lon="49.4746268"><time>2025-05-18T08:12:50.863</time></trkpt><trkpt lat="55.6107375" lon="49.4746478"><time>2025-05-18T08:13:00.853</time></trkpt><trkpt lat="55.6106918" lon="49.4746450"><time>2025-05-18T08:13:07.857</time></trkpt><trkpt lat="55.6106408" lon="49.4746366"><time>2025-05-18T08:13:12.867</time></trkpt><trkpt lat="55.6105918" lon="49.4746428"><time>2025-05-18T08:13:16.867</time></trkpt><trkpt lat="55.6105441" lon="49.4746481"><time>2025-05-18T08:13:20.870</time></trkpt><trkpt lat="55.6104923" lon="49.4746339"><time>2025-05-18T08:13:25.930</time></trkpt><trkpt lat="55.6104423" lon="49.4746164"><time>2025-05-18T08:13:29.867</time></trkpt><trkpt lat="55.6103913" lon="49.4746193"><time>2025-05-18T08:13:32.873</time></trkpt><trkpt lat="55.6103426" lon="49.4745771"><time>2025-05-18T08:13:36.113</time></trkpt><trkpt lat="55.6102964" lon="49.4745718"><time>2025-05-18T08:13:38.913</time></trkpt><trkpt lat="55.6102398" lon="49.4745747"><time>2025-05-18T08:13:41.837</time></trkpt><trkpt lat="55.6101889" lon="49.4745509"><time>2025-05-18T08:13:45.997</time></trkpt><trkpt lat="55.6101324" lon="49.4745302"><time>2025-05-18T08:13:49.867</time></trkpt><trkpt lat="55.6100803" lon="49.4745275"><time>2025-05-18T08:13:53.927</time></trkpt><trkpt lat="55.6100217" lon="49.4744985"><time>2025-05-18T08:13:57.877</time></trkpt><trkpt lat="55.6099696" lon="49.4744662"><time>2025-05-18T08:14:01.857</time></trkpt><trkpt lat="55.6099146" lon="49.4744617"><time>2025-05-18T08:14:04.967</time></trkpt><trkpt lat="55.6098601" lon="49.4744364"><time>2025-05-18T08:14:07.920</time></trkpt><trkpt lat="55.6097950" lon="49.4744150"><time>2025-05-18T08:14:11.113</time></trkpt><trkpt lat="55.6097417" lon="49.4744058"><time>2025-05-18T08:14:13.853</time></trkpt><trkpt lat="55.6096964" lon="49.4744013"><time>2025-05-18T08:14:17.990</time></trkpt><trkpt lat="55.6096480" lon="49.4743731"><time>2025-05-18T08:14:21.867</time></trkpt><trkpt lat="55.6095978" lon="49.4743731"><time>2025-05-18T08:14:25.993</time></trkpt><trkpt lat="55.6095412" lon="49.4743755"><time>2025-05-18T08:14:30.133</time></trkpt><trkpt lat="55.6094825" lon="49.4743566"><time>2025-05-18T08:14:34.070</time></trkpt><trkpt lat="55.6094325" lon="49.4743485"><time>2025-05-18T08:14:36.887</time></trkpt><trkpt lat="55.6093816" lon="49.4743311"><time>2025-05-18T08:14:40.970</time></trkpt><trkpt lat="55.6093294" lon="49.4743105"><time>2025-05-18T08:14:44.867</time></trkpt><trkpt lat="55.6092830" lon="49.4743005"><time>2025-05-18T08:14:49.880</time></trkpt><trkpt lat="55.6092420" lon="49.4742659"><time>2025-05-18T08:14:53.880</time></trkpt><trkpt lat="55.6091841" lon="49.4742822"><time>2025-05-18T08:14:56.877</time></trkpt><trkpt lat="55.6091398" lon="49.4743299"><time>2025-05-18T08:14:59.877</time></trkpt><trkpt lat="55.6090998" lon="49.4743673"><time>2025-05-18T08:15:02.930</time></trkpt><trkpt lat="55.6090507" lon="49.4744136"><time>2025-05-18T08:15:06.873</time></trkpt><trkpt lat="55.6090196" lon="49.4744790"><time>2025-05-18T08:15:11.087</time></trkpt><trkpt lat="55.6089993" lon="49.4745720"><time>2025-05-18T08:15:15.153</time></trkpt><trkpt lat="55.6089908" lon="49.4746501"><time>2025-05-18T08:15:17.867</time></trkpt><trkpt lat="55.6089632" lon="49.4747211"><time>2025-05-18T08:15:24.110</time></trkpt><trkpt lat="55.6089375" lon="49.4747865"><time>2025-05-18T08:15:27.877</time></trkpt><trkpt lat="55.6089071" lon="49.4748647"><time>2025-05-18T08:15:31.870</time></trkpt><trkpt lat="55.6088788" lon="49.4749331"><time>2025-05-18T08:15:34.980</time></trkpt><trkpt lat="55.6088524" lon="49.4750106"><time>2025-05-18T08:15:39.060</time></trkpt><trkpt lat="55.6088261" lon="49.4750968"><time>2025-05-18T08:15:42.873</time></trkpt><trkpt lat="55.6088119" lon="49.4751797"><time>2025-05-18T08:15:46.870</time></trkpt><trkpt lat="55.6088147" lon="49.4752740"><time>2025-05-18T08:15:51.007</time></trkpt><trkpt lat="55.6088080" lon="49.4753579"><time>2025-05-18T08:15:54.100</time></trkpt><trkpt lat="55.6087971" lon="49.4754518"><time>2025-05-18T08:15:57.890</time></trkpt><trkpt lat="55.6087998" lon="49.4755327"><time>2025-05-18T08:16:01.007</time></trkpt><trkpt lat="55.6088203" lon="49.4756091"><time>2025-05-18T08:16:04.997</time></trkpt><trkpt lat="55.6088524" lon="49.4756941"><time>2025-05-18T08:16:08.983</time></trkpt><trkpt lat="55.6088604" lon="49.4757893"><time>2025-05-18T08:16:12.890</time></trkpt><trkpt lat="55.6088720" lon="49.4758920"><time>2025-05-18T08:16:16.877</time></trkpt><trkpt lat="55.6088800" lon="49.4759778"><time>2025-05-18T08:16:20.873</time></trkpt><trkpt lat="55.6088800" lon="49.4760708"><time>2025-05-18T08:16:26.007</time></trkpt><trkpt lat="55.6089008" lon="49.4761527"><time>2025-05-18T08:16:29.987</time></trkpt><trkpt lat="55.6088975" lon="49.4762378"><time>2025-05-18T08:16:32.883</time></trkpt><trkpt lat="55.6089007" lon="49.4763178"><time>2025-05-18T08:16:36.003</time></trkpt><trkpt lat="55.6089012" lon="49.4764162"><time>2025-05-18T08:16:41.007</time></trkpt><trkpt lat="55.6089065" lon="49.4765027"><time>2025-05-18T08:16:43.887</time></trkpt><trkpt lat="55.6089010" lon="49.4765987"><time>2025-05-18T08:16:47.873</time></trkpt><trkpt lat="55.6089013" lon="49.4766961"><time>2025-05-18T08:16:51.860</time></trkpt><trkpt lat="55.6089067" lon="49.4767980"><time>2025-05-18T08:16:56.027</time></trkpt><trkpt lat="55.6089161" lon="49.4768829"><time>2025-05-18T08:16:59.880</time></trkpt><trkpt lat="55.6089291" lon="49.4769633"><time>2025-05-18T08:17:02.877</time></trkpt><trkpt lat="55.6089560" lon="49.4770383"><time>2025-05-18T08:17:06.877</time></trkpt><trkpt lat="55.6089617" lon="49.4771197"><time>2025-05-18T08:17:09.873</time></trkpt><trkpt lat="55.6089804" lon="49.4772081"><time>2025-05-18T08:17:12.890</time></trkpt><trkpt lat="55.6090034" lon="49.4772957"><time>2025-05-18T08:17:16.867</time></trkpt><trkpt lat="55.6090095" lon="49.4773862"><time>2025-05-18T08:17:20.833</time></trkpt><trkpt lat="55.6090378" lon="49.4774601"><time>2025-05-18T08:17:23.863</time></trkpt><trkpt lat="55.6090575" lon="49.4775351"><time>2025-05-18T08:17:27.860</time></trkpt><trkpt lat="55.6090857" lon="49.4776043"><time>2025-05-18T08:17:30.990</time></trkpt><trkpt lat="55.6091197" lon="49.4776580"><time>2025-05-18T08:17:33.963</time></trkpt><trkpt lat="55.6091461" lon="49.4777392"><time>2025-05-18T08:17:37.883</time></trkpt><trkpt lat="55.6091735" lon="49.4778137"><time>2025-05-18T08:17:41.867</time></trkpt><trkpt lat="55.6092034" lon="49.4778989"><time>2025-05-18T08:17:45.997</time></trkpt><trkpt lat="55.6092254" lon="49.4779777"><time>2025-05-18T08:17:49.993</time></trkpt><trkpt lat="55.6092525" lon="49.4780603"><time>2025-05-18T08:17:54.013</time></trkpt><trkpt lat="55.6092809" lon="49.4781451"><time>2025-05-18T08:17:59.080</time></trkpt><trkpt lat="55.6093250" lon="49.4781998"><time>2025-05-18T08:18:01.860</time></trkpt><trkpt lat="55.6093611" lon="49.4782577"><time>2025-05-18T08:18:06.047</time></trkpt><trkpt lat="55.6093909" lon="49.4783244"><time>2025-05-18T08:18:11</time></trkpt><trkpt lat="55.6094051" lon="49.4784022"><time>2025-05-18T08:18:13.857</time></trkpt><trkpt lat="55.6094203" lon="49.4784942"><time>2025-05-18T08:18:17.860</time></trkpt><trkpt lat="55.6094464" lon="49.4785745"><time>2025-05-18T08:18:20.987</time></trkpt><trkpt lat="55.6094807" lon="49.4786588"><time>2025-05-18T08:18:23.857</time></trkpt><trkpt lat="55.6095029" lon="49.4787291"><time>2025-05-18T08:18:27.847</time></trkpt><trkpt lat="55.6095367" lon="49.4787917"><time>2025-05-18T08:18:30.863</time></trkpt><trkpt lat="55.6095767" lon="49.4788291"><time>2025-05-18T08:18:33.860</time></trkpt><trkpt lat="55.6096156" lon="49.4788716"><time>2025-05-18T08:18:36.867</time></trkpt><trkpt lat="55.6096561" lon="49.4789306"><time>2025-05-18T08:18:40.977</time></trkpt><trkpt lat="55.6096928" lon="49.4789818"><time>2025-05-18T08:18:44.980</time></trkpt><trkpt lat="55.6097401" lon="49.4790248"><time>2025-05-18T08:18:48.857</time></trkpt><trkpt lat="55.6097889" lon="49.4790545"><time>2025-05-18T08:18:53.863</time></trkpt><trkpt lat="55.6098367" lon="49.4790819"><time>2025-05-18T08:18:58.860</time></trkpt><trkpt lat="55.6098814" lon="49.4791270"><time>2025-05-18T08:19:03.857</time></trkpt><trkpt lat="55.6099041" lon="49.4792044"><time>2025-05-18T08:19:10.847</time></trkpt><trkpt lat="55.6099489" lon="49.4792357"><time>2025-05-18T08:19:14.870</time></trkpt><trkpt lat="55.6100005" lon="49.4792898"><time>2025-05-18T08:19:18.850</time></trkpt><trkpt lat="55.6100147" lon="49.4793868"><time>2025-05-18T08:19:24.850</time></trkpt><trkpt lat="55.6100392" lon="49.4794609"><time>2025-05-18T08:19:30.867</time></trkpt><trkpt lat="55.6100701" lon="49.4795277"><time>2025-05-18T08:19:36.853</time></trkpt><trkpt lat="55.6101124" lon="49.4795754"><time>2025-05-18T08:19:40.847</time></trkpt><trkpt lat="55.6101449" lon="49.4796341"><time>2025-05-18T08:19:44.987</time></trkpt><trkpt lat="55.6101718" lon="49.4797030"><time>2025-05-18T08:19:48.857</time></trkpt><trkpt lat="55.6101777" lon="49.4797999"><time>2025-05-18T08:19:52.927</time></trkpt><trkpt lat="55.6101383" lon="49.4798651"><time>2025-05-18T08:19:57.883</time></trkpt><trkpt lat="55.6101073" lon="49.4799275"><time>2025-05-18T08:20:00.980</time></trkpt><trkpt lat="55.6100929" lon="49.4800076"><time>2025-05-18T08:20:05.867</time></trkpt><trkpt lat="55.6100712" lon="49.4800796"><time>2025-05-18T08:20:08.850</time></trkpt><trkpt lat="55.6100546" lon="49.4801639"><time>2025-05-18T08:20:13.847</time></trkpt><trkpt lat="55.6100659" lon="49.4802413"><time>2025-05-18T08:20:17.840</time></trkpt><trkpt lat="55.6100828" lon="49.4803219"><time>2025-05-18T08:20:20.863</time></trkpt><trkpt lat="55.6100930" lon="49.4803826"><time>2025-05-18T08:20:25.773</time></trkpt><trkpt lat="55.6100424" lon="49.4802717"><time>2025-05-18T08:20:46.867</time></trkpt><trkpt lat="55.6100114" lon="49.4801841"><time>2025-05-18T08:20:59.883</time></trkpt><trkpt lat="55.6099718" lon="49.4801245"><time>2025-05-18T08:21:03.860</time></trkpt><trkpt lat="55.6099218" lon="49.4801220"><time>2025-05-18T08:21:07.977</time></trkpt><trkpt lat="55.6098766" lon="49.4801419"><time>2025-05-18T08:21:16.053</time></trkpt><trkpt lat="55.6098266" lon="49.4801294"><time>2025-05-18T08:21:26.863</time></trkpt><trkpt lat="55.6097774" lon="49.4801134"><time>2025-05-18T08:21:30.877</time></trkpt><trkpt lat="55.6097251" lon="49.4801138"><time>2025-05-18T08:21:34.983</time></trkpt><trkpt lat="55.6096760" lon="49.4801334"><time>2025-05-18T08:21:38.870</time></trkpt><trkpt lat="55.6096022" lon="49.4801433"><time>2025-05-18T08:21:46.080</time></trkpt><trkpt lat="55.6095572" lon="49.4801219"><time>2025-05-18T08:21:48.867</time></trkpt><trkpt lat="55.6095054" lon="49.4801187"><time>2025-05-18T08:21:51.853</time></trkpt><trkpt lat="55.6094496" lon="49.4801165"><time>2025-05-18T08:21:55.843</time></trkpt><trkpt lat="55.6094042" lon="49.4800842"><time>2025-05-18T08:21:58.863</time></trkpt><trkpt lat="55.6093556" lon="49.4800738"><time>2025-05-18T08:22:01.867</time></trkpt><trkpt lat="55.6093045" lon="49.4800556"><time>2025-05-18T08:22:04.873</time></trkpt><trkpt lat="55.6092496" lon="49.4800210"><time>2025-05-18T08:22:09.850</time></trkpt><trkpt lat="55.6091903" lon="49.4799924"><time>2025-05-18T08:22:15.857</time></trkpt><trkpt lat="55.6091379" lon="49.4799713"><time>2025-05-18T08:22:18.857</time></trkpt><trkpt lat="55.6090879" lon="49.4799759"><time>2025-05-18T08:22:21.847</time></trkpt><trkpt lat="55.6090315" lon="49.4799677"><time>2025-05-18T08:22:24.873</time></trkpt><trkpt lat="55.6089760" lon="49.4799476"><time>2025-05-18T08:22:28.860</time></trkpt><trkpt lat="55.6089341" lon="49.4799014"><time>2025-05-18T08:22:33.863</time></trkpt><trkpt lat="55.6088874" lon="49.4798482"><time>2025-05-18T08:22:37.863</time></trkpt><trkpt lat="55.6088409" lon="49.4798320"><time>2025-05-18T08:22:40.867</time></trkpt><trkpt lat="55.6087837" lon="49.4797968"><time>2025-05-18T08:22:43.863</time></trkpt><trkpt lat="55.6087352" lon="49.4798129"><time>2025-05-18T08:22:46.863</time></trkpt><trkpt lat="55.6086803" lon="49.4798178"><time>2025-05-18T08:22:52.847</time></trkpt><trkpt lat="55.6086249" lon="49.4798070"><time>2025-05-18T08:22:55.867</time></trkpt><trkpt lat="55.6085802" lon="49.4797661"><time>2025-05-18T08:23:01.087</time></trkpt><trkpt lat="55.6085355" lon="49.4797292"><time>2025-05-18T08:23:03.967</time></trkpt><trkpt lat="55.6084904" lon="49.4796760"><time>2025-05-18T08:23:06.857</time></trkpt><trkpt lat="55.6084547" lon="49.4796135"><time>2025-05-18T08:23:12.877</time></trkpt><trkpt lat="55.6083926" lon="49.4794962"><time>2025-05-18T08:23:19.013</time></trkpt><trkpt lat="55.6083467" lon="49.4794538"><time>2025-05-18T08:23:21.867</time></trkpt><trkpt lat="55.6083084" lon="49.4793801"><time>2025-05-18T08:23:26.873</time></trkpt><trkpt lat="55.6082690" lon="49.4793201"><time>2025-05-18T08:23:29.983</time></trkpt><trkpt lat="55.6082240" lon="49.4792544"><time>2025-05-18T08:23:33.993</time></trkpt><trkpt lat="55.6081913" lon="49.4791964"><time>2025-05-18T08:23:36.860</time></trkpt><trkpt lat="55.6081527" lon="49.4791185"><time>2025-05-18T08:23:40.867</time></trkpt><trkpt lat="55.6081110" lon="49.4790586"><time>2025-05-18T08:23:43.997</time></trkpt><trkpt lat="55.6080645" lon="49.4790047"><time>2025-05-18T08:23:46.877</time></trkpt><trkpt lat="55.6080174" lon="49.4789550"><time>2025-05-18T08:23:49.977</time></trkpt><trkpt lat="55.6079632" lon="49.4788985"><time>2025-05-18T08:23:53.973</time></trkpt><trkpt lat="55.6079117" lon="49.4788721"><time>2025-05-18T08:23:57.877</time></trkpt><trkpt lat="55.6078653" lon="49.4788480"><time>2025-05-18T08:24:00.890</time></trkpt><trkpt lat="55.6078261" lon="49.4788051"><time>2025-05-18T08:24:03.880</time></trkpt><trkpt lat="55.6077827" lon="49.4787719"><time>2025-05-18T08:24:08.870</time></trkpt><trkpt lat="55.6077366" lon="49.4787389"><time>2025-05-18T08:24:11.877</time></trkpt><trkpt lat="55.6076942" lon="49.4787036"><time>2025-05-18T08:24:15.157</time></trkpt><trkpt lat="55.6076439" lon="49.4786614"><time>2025-05-18T08:24:19.057</time></trkpt><trkpt lat="55.6075920" lon="49.4786476"><time>2025-05-18T08:24:22.873</time></trkpt><trkpt lat="55.6075391" lon="49.4786152"><time>2025-05-18T08:24:26.883</time></trkpt><trkpt lat="55.6074884" lon="49.4785883"><time>2025-05-18T08:24:30.863</time></trkpt><trkpt lat="55.6074440" lon="49.4785563"><time>2025-05-18T08:24:33.873</time></trkpt><trkpt lat="55.6073841" lon="49.4785262"><time>2025-05-18T08:24:37.877</time></trkpt><trkpt lat="55.6073397" lon="49.4784907"><time>2025-05-18T08:24:40.993</time></trkpt><trkpt lat="55.6072922" lon="49.4784551"><time>2025-05-18T08:24:43.880</time></trkpt><trkpt lat="55.6072397" lon="49.4784139"><time>2025-05-18T08:24:47.880</time></trkpt><trkpt lat="55.6071894" lon="49.4784250"><time>2025-05-18T08:24:50.870</time></trkpt><trkpt lat="55.6071328" lon="49.4784312"><time>2025-05-18T08:24:54.873</time></trkpt><trkpt lat="55.6070854" lon="49.4784403"><time>2025-05-18T08:24:57.873</time></trkpt><trkpt lat="55.6070395" lon="49.4784469"><time>2025-05-18T08:25:00.860</time></trkpt><trkpt lat="55.6069849" lon="49.4784465"><time>2025-05-18T08:25:03.873</time></trkpt><trkpt lat="55.6069395" lon="49.4784310"><time>2025-05-18T08:25:07.877</time></trkpt><trkpt lat="55.6068933" lon="49.4784327"><time>2025-05-18T08:25:11.883</time></trkpt><trkpt lat="55.6068411" lon="49.4784370"><time>2025-05-18T08:25:15.873</time></trkpt><trkpt lat="55.6067848" lon="49.4784136"><time>2025-05-18T08:25:20.873</time></trkpt><trkpt lat="55.6067352" lon="49.4784090"><time>2025-05-18T08:25:25.863</time></trkpt><trkpt lat="55.6066870" lon="49.4784102"><time>2025-05-18T08:25:32.897</time></trkpt><trkpt lat="55.6066344" lon="49.4784150"><time>2025-05-18T08:25:37.933</time></trkpt><trkpt lat="55.6065870" lon="49.4784316"><time>2025-05-18T08:25:46.100</time></trkpt><trkpt lat="55.6065389" lon="49.4784361"><time>2025-05-18T08:25:54.930</time></trkpt><trkpt lat="55.6064937" lon="49.4784181"><time>2025-05-18T08:26:01.870</time></trkpt><trkpt lat="55.6064458" lon="49.4784378"><time>2025-05-18T08:26:10.077</time></trkpt><trkpt lat="55.6063947" lon="49.4784630"><time>2025-05-18T08:26:15.873</time></trkpt><trkpt lat="55.6063357" lon="49.4784780"><time>2025-05-18T08:26:25.967</time></trkpt><trkpt lat="55.6062881" lon="49.4784960"><time>2025-05-18T08:26:31.127</time></trkpt><trkpt lat="55.6062457" lon="49.4785354"><time>2025-05-18T08:26:37.927</time></trkpt><trkpt lat="55.6061985" lon="49.4785525"><time>2025-05-18T08:26:43.923</time></trkpt><trkpt lat="55.6061526" lon="49.4785773"><time>2025-05-18T08:26:47.937</time></trkpt><trkpt lat="55.6060963" lon="49.4785683"><time>2025-05-18T08:26:50.887</time></trkpt><trkpt lat="55.6060399" lon="49.4785350"><time>2025-05-18T08:26:54.003</time></trkpt><trkpt lat="55.6059906" lon="49.4785049"><time>2025-05-18T08:26:56.933</time></trkpt><trkpt lat="55.6059444" lon="49.4784906"><time>2025-05-18T08:27:00.920</time></trkpt><trkpt lat="55.6058983" lon="49.4784862"><time>2025-05-18T08:27:04.877</time></trkpt><trkpt lat="55.6058396" lon="49.4784946"><time>2025-05-18T08:27:10.877</time></trkpt><trkpt lat="55.6057925" lon="49.4784996"><time>2025-05-18T08:27:14.870</time></trkpt><trkpt lat="55.6057444" lon="49.4784996"><time>2025-05-18T08:27:29.867</time></trkpt><trkpt lat="55.6056926" lon="49.4785038"><time>2025-05-18T08:27:35.867</time></trkpt><trkpt lat="55.6056395" lon="49.4785175"><time>2025-05-18T08:27:41.137</time></trkpt><trkpt lat="55.6055929" lon="49.4784882"><time>2025-05-18T08:27:44.080</time></trkpt><trkpt lat="55.6055447" lon="49.4784670"><time>2025-05-18T08:27:47.887</time></trkpt><trkpt lat="55.6054900" lon="49.4784594"><time>2025-05-18T08:27:52.883</time></trkpt><trkpt lat="55.6054421" lon="49.4784432"><time>2025-05-18T08:27:56.863</time></trkpt><trkpt lat="55.6053949" lon="49.4784250"><time>2025-05-18T08:28:00.880</time></trkpt><trkpt lat="55.6053339" lon="49.4784268"><time>2025-05-18T08:28:04.870</time></trkpt><trkpt lat="55.6052866" lon="49.4784250"><time>2025-05-18T08:28:08.873</time></trkpt><trkpt lat="55.6052410" lon="49.4784217"><time>2025-05-18T08:28:12.877</time></trkpt><trkpt lat="55.6051882" lon="49.4784307"><time>2025-05-18T08:28:16.867</time></trkpt><trkpt lat="55.6051396" lon="49.4784536"><time>2025-05-18T08:28:20.983</time></trkpt><trkpt lat="55.6050813" lon="49.4784583"><time>2025-05-18T08:28:24.887</time></trkpt><trkpt lat="55.6050330" lon="49.4784669"><time>2025-05-18T08:28:27.877</time></trkpt><trkpt lat="55.6049750" lon="49.4784714"><time>2025-05-18T08:28:30.877</time></trkpt><trkpt lat="55.6049197" lon="49.4784421"><time>2025-05-18T08:28:33.897</time></trkpt><trkpt lat="55.6048735" lon="49.4784179"><time>2025-05-18T08:28:37.877</time></trkpt><trkpt lat="55.6048286" lon="49.4784148"><time>2025-05-18T08:28:40.863</time></trkpt><trkpt lat="55.6047802" lon="49.4784102"><time>2025-05-18T08:28:43.870</time></trkpt><trkpt lat="55.6047271" lon="49.4784115"><time>2025-05-18T08:28:47.977</time></trkpt><trkpt lat="55.6046808" lon="49.4783953"><time>2025-05-18T08:28:51.873</time></trkpt><trkpt lat="55.6046310" lon="49.4783919"><time>2025-05-18T08:28:55.107</time></trkpt><trkpt lat="55.6045855" lon="49.4783774"><time>2025-05-18T08:28:58.933</time></trkpt><trkpt lat="55.6045403" lon="49.4783689"><time>2025-05-18T08:29:01.883</time></trkpt><trkpt lat="55.6044940" lon="49.4783351"><time>2025-05-18T08:29:06.060</time></trkpt><trkpt lat="55.6044374" lon="49.4783112"><time>2025-05-18T08:29:10.083</time></trkpt><trkpt lat="55.6043886" lon="49.4783011"><time>2025-05-18T08:29:15.123</time></trkpt><trkpt lat="55.6043376" lon="49.4783130"><time>2025-05-18T08:29:20.113</time></trkpt><trkpt lat="55.6042886" lon="49.4782865"><time>2025-05-18T08:29:24.147</time></trkpt><trkpt lat="55.6042352" lon="49.4782655"><time>2025-05-18T08:29:26.920</time></trkpt><trkpt lat="55.6041853" lon="49.4782458"><time>2025-05-18T08:29:30.160</time></trkpt><trkpt lat="55.6041437" lon="49.4782045"><time>2025-05-18T08:29:35.033</time></trkpt><trkpt lat="55.6041223" lon="49.4781339"><time>2025-05-18T08:29:46.107</time></trkpt><trkpt lat="55.6041380" lon="49.4780384"><time>2025-05-18T08:29:54.067</time></trkpt><trkpt lat="55.6040890" lon="49.4780863"><time>2025-05-18T08:30:45.880</time></trkpt><trkpt lat="55.6040825" lon="49.4781795"><time>2025-05-18T08:30:51.873</time></trkpt><trkpt lat="55.6040277" lon="49.4781993"><time>2025-05-18T08:30:55.890</time></trkpt><trkpt lat="55.6039781" lon="49.4781789"><time>2025-05-18T08:31:28.950</time></trkpt><trkpt lat="55.6039328" lon="49.4781334"><time>2025-05-18T08:31:44.930</time></trkpt><trkpt lat="55.6038812" lon="49.4781187"><time>2025-05-18T08:31:50.110</time></trkpt><trkpt lat="55.6038182" lon="49.4780759"><time>2025-05-18T08:32:04.917</time></trkpt><trkpt lat="55.6037618" lon="49.4780867"><time>2025-05-18T08:32:11.123</time></trkpt><trkpt lat="55.6037105" lon="49.4780635"><time>2025-05-18T08:32:16.100</time></trkpt><trkpt lat="55.6036554" lon="49.4780362"><time>2025-05-18T08:32:19.920</time></trkpt><trkpt lat="55.6035961" lon="49.4780522"><time>2025-05-18T08:32:25.030</time></trkpt><trkpt lat="55.6035397" lon="49.4780398"><time>2025-05-18T08:32:28.887</time></trkpt><trkpt lat="55.6034818" lon="49.4780290"><time>2025-05-18T08:32:34.007</time></trkpt><trkpt lat="55.6034215" lon="49.4780179"><time>2025-05-18T08:32:37.877</time></trkpt><trkpt lat="55.6033726" lon="49.4779972"><time>2025-05-18T08:32:41.887</time></trkpt><trkpt lat="55.6033245" lon="49.4779469"><time>2025-05-18T08:32:47.883</time></trkpt><trkpt lat="55.6032746" lon="49.4778852"><time>2025-05-18T08:32:51.873</time></trkpt><trkpt lat="55.6032292" lon="49.4778605"><time>2025-05-18T08:32:55.880</time></trkpt><trkpt lat="55.6031781" lon="49.4778259"><time>2025-05-18T08:32:58.883</time></trkpt><trkpt lat="55.6031258" lon="49.4777934"><time>2025-05-18T08:33:01.867</time></trkpt><trkpt lat="55.6030797" lon="49.4777808"><time>2025-05-18T08:33:06.890</time></trkpt><trkpt lat="55.6030274" lon="49.4777727"><time>2025-05-18T08:33:11.937</time></trkpt><trkpt lat="55.6029834" lon="49.4777475"><time>2025-05-18T08:33:16.107</time></trkpt><trkpt lat="55.6029325" lon="49.4777703"><time>2025-05-18T08:33:20.963</time></trkpt><trkpt lat="55.6028866" lon="49.4777563"><time>2025-05-18T08:33:26.903</time></trkpt><trkpt lat="55.6028398" lon="49.4777649"><time>2025-05-18T08:33:31.930</time></trkpt><trkpt lat="55.6027836" lon="49.4777720"><time>2025-05-18T08:33:35.100</time></trkpt><trkpt lat="55.6027344" lon="49.4777873"><time>2025-05-18T08:33:36.877</time></trkpt><trkpt lat="55.6026882" lon="49.4778000"><time>2025-05-18T08:33:39.157</time></trkpt><trkpt lat="55.6026315" lon="49.4778003"><time>2025-05-18T08:33:41.117</time></trkpt><trkpt lat="55.6025845" lon="49.4777744"><time>2025-05-18T08:33:42.933</time></trkpt><trkpt lat="55.6025265" lon="49.4777589"><time>2025-05-18T08:33:46.887</time></trkpt><trkpt lat="55.6024821" lon="49.4777156"><time>2025-05-18T08:33:51.123</time></trkpt><trkpt lat="55.6024366" lon="49.4776576"><time>2025-05-18T08:33:56.887</time></trkpt><trkpt lat="55.6023971" lon="49.4776174"><time>2025-05-18T08:33:59.883</time></trkpt><trkpt lat="55.6023541" lon="49.4775525"><time>2025-05-18T08:34:03.873</time></trkpt><trkpt lat="55.6023093" lon="49.4775119"><time>2025-05-18T08:34:06.880</time></trkpt><trkpt lat="55.6022732" lon="49.4774507"><time>2025-05-18T08:34:10.867</time></trkpt><trkpt lat="55.6022270" lon="49.4774110"><time>2025-05-18T08:34:13.887</time></trkpt><trkpt lat="55.6021789" lon="49.4773445"><time>2025-05-18T08:34:16.887</time></trkpt><trkpt lat="55.6021398" lon="49.4772980"><time>2025-05-18T08:34:19.887</time></trkpt><trkpt lat="55.6020956" lon="49.4772664"><time>2025-05-18T08:34:23.883</time></trkpt><trkpt lat="55.6020489" lon="49.4771990"><time>2025-05-18T08:34:28.897</time></trkpt><trkpt lat="55.6019959" lon="49.4771325"><time>2025-05-18T08:34:32.887</time></trkpt><trkpt lat="55.6019472" lon="49.4770973"><time>2025-05-18T08:34:36.883</time></trkpt><trkpt lat="55.6018985" lon="49.4770568"><time>2025-05-18T08:34:41.040</time></trkpt><trkpt lat="55.6018470" lon="49.4770241"><time>2025-05-18T08:34:45.053</time></trkpt><trkpt lat="55.6017994" lon="49.4770121"><time>2025-05-18T08:34:48.980</time></trkpt><trkpt lat="55.6017393" lon="49.4770311"><time>2025-05-18T08:34:52.887</time></trkpt><trkpt lat="55.6016875" lon="49.4770257"><time>2025-05-18T08:34:55.893</time></trkpt><trkpt lat="55.6016401" lon="49.4770120"><time>2025-05-18T08:34:59.883</time></trkpt><trkpt lat="55.6015899" lon="49.4769883"><time>2025-05-18T08:35:03.170</time></trkpt><trkpt lat="55.6015426" lon="49.4769852"><time>2025-05-18T08:35:05.890</time></trkpt><trkpt lat="55.6014951" lon="49.4769586"><time>2025-05-18T08:35:09.857</time></trkpt><trkpt lat="55.6014382" lon="49.4769310"><time>2025-05-18T08:35:14.070</time></trkpt><trkpt lat="55.6013806" lon="49.4768983"><time>2025-05-18T08:35:17.880</time></trkpt><trkpt lat="55.6013443" lon="49.4768403"><time>2025-05-18T08:35:21.880</time></trkpt><trkpt lat="55.6013067" lon="49.4767699"><time>2025-05-18T08:35:26.897</time></trkpt><trkpt lat="55.6012761" lon="49.4767006"><time>2025-05-18T08:35:31.010</time></trkpt><trkpt lat="55.6012380" lon="49.4766457"><time>2025-05-18T08:35:34.017</time></trkpt><trkpt lat="55.6011863" lon="49.4766011"><time>2025-05-18T08:35:37.900</time></trkpt><trkpt lat="55.6011398" lon="49.4765825"><time>2025-05-18T08:35:42.890</time></trkpt><trkpt lat="55.6010993" lon="49.4765443"><time>2025-05-18T08:35:46.887</time></trkpt><trkpt lat="55.6010336" lon="49.4765276"><time>2025-05-18T08:35:50.893</time></trkpt><trkpt lat="55.6009700" lon="49.4765283"><time>2025-05-18T08:35:54.007</time></trkpt><trkpt lat="55.6009244" lon="49.4765350"><time>2025-05-18T08:35:56.900</time></trkpt><trkpt lat="55.6008737" lon="49.4765540"><time>2025-05-18T08:36:00.890</time></trkpt><trkpt lat="55.6008232" lon="49.4765629"><time>2025-05-18T08:36:04.897</time></trkpt><trkpt lat="55.6007640" lon="49.4765695"><time>2025-05-18T08:36:09.013</time></trkpt><trkpt lat="55.6007136" lon="49.4765561"><time>2025-05-18T08:36:12.880</time></trkpt><trkpt lat="55.6006557" lon="49.4765402"><time>2025-05-18T08:36:16.893</time></trkpt><trkpt lat="55.6006021" lon="49.4765291"><time>2025-05-18T08:36:20.907</time></trkpt><trkpt lat="55.6005507" lon="49.4765155"><time>2025-05-18T08:36:25.013</time></trkpt><trkpt lat="55.6005067" lon="49.4764862"><time>2025-05-18T08:36:27.907</time></trkpt><trkpt lat="55.6004453" lon="49.4764718"><time>2025-05-18T08:36:31.893</time></trkpt><trkpt lat="55.6003953" lon="49.4764845"><time>2025-05-18T08:36:35.007</time></trkpt><trkpt lat="55.6003487" lon="49.4764946"><time>2025-05-18T08:36:37.867</time></trkpt><trkpt lat="55.6003030" lon="49.4765026"><time>2025-05-18T08:36:41</time></trkpt><trkpt lat="55.6002546" lon="49.4764962"><time>2025-05-18T08:36:49.877</time></trkpt><trkpt lat="55.6002007" lon="49.4765035"><time>2025-05-18T08:36:54.890</time></trkpt><trkpt lat="55.6001519" lon="49.4765308"><time>2025-05-18T08:36:58.880</time></trkpt><trkpt lat="55.6001015" lon="49.4765393"><time>2025-05-18T08:37:03.890</time></trkpt><trkpt lat="55.6000528" lon="49.4764951"><time>2025-05-18T08:37:07.883</time></trkpt><trkpt lat="55.6000034" lon="49.4764819"><time>2025-05-18T08:37:10.877</time></trkpt><trkpt lat="55.5999402" lon="49.4764929"><time>2025-05-18T08:37:13.880</time></trkpt><trkpt lat="55.5998893" lon="49.4764823"><time>2025-05-18T08:37:16.880</time></trkpt><trkpt lat="55.5998377" lon="49.4764835"><time>2025-05-18T08:37:21.897</time></trkpt><trkpt lat="55.5997845" lon="49.4764763"><time>2025-05-18T08:37:26.880</time></trkpt><trkpt lat="55.5997381" lon="49.4764920"><time>2025-05-18T08:37:29.993</time></trkpt><trkpt lat="55.5996820" lon="49.4765034"><time>2025-05-18T08:37:33.990</time></trkpt><trkpt lat="55.5996354" lon="49.4764944"><time>2025-05-18T08:37:36.890</time></trkpt><trkpt lat="55.5995831" lon="49.4764929"><time>2025-05-18T08:37:40.877</time></trkpt><trkpt lat="55.5995369" lon="49.4765115"><time>2025-05-18T08:37:44.987</time></trkpt><trkpt lat="55.5994856" lon="49.4765218"><time>2025-05-18T08:37:49</time></trkpt><trkpt lat="55.5994394" lon="49.4765331"><time>2025-05-18T08:37:52.993</time></trkpt><trkpt lat="55.5993862" lon="49.4765255"><time>2025-05-18T08:37:57.877</time></trkpt><trkpt lat="55.5993378" lon="49.4765107"><time>2025-05-18T08:38:00.997</time></trkpt><trkpt lat="55.5992855" lon="49.4765158"><time>2025-05-18T08:38:05.880</time></trkpt><trkpt lat="55.5992354" lon="49.4764992"><time>2025-05-18T08:38:10.113</time></trkpt><trkpt lat="55.5991759" lon="49.4764810"><time>2025-05-18T08:38:15.010</time></trkpt><trkpt lat="55.5991496" lon="49.4765477"><time>2025-05-18T08:38:21.877</time></trkpt><trkpt lat="55.5991339" lon="49.4766342"><time>2025-05-18T08:38:26.007</time></trkpt><trkpt lat="55.5991199" lon="49.4767127"><time>2025-05-18T08:38:30.007</time></trkpt><trkpt lat="55.5991027" lon="49.4768078"><time>2025-05-18T08:38:34.017</time></trkpt><trkpt lat="55.5990840" lon="49.4768824"><time>2025-05-18T08:38:36.900</time></trkpt><trkpt lat="55.5990712" lon="49.4769729"><time>2025-05-18T08:38:41.060</time></trkpt><trkpt lat="55.5990641" lon="49.4770663"><time>2025-05-18T08:38:45.017</time></trkpt><trkpt lat="55.5990689" lon="49.4771541"><time>2025-05-18T08:38:49.010</time></trkpt><trkpt lat="55.5990709" lon="49.4772364"><time>2025-05-18T08:38:54.040</time></trkpt><trkpt lat="55.5990663" lon="49.4773438"><time>2025-05-18T08:38:57.887</time></trkpt><trkpt lat="55.5990822" lon="49.4774284"><time>2025-05-18T08:39:01.897</time></trkpt><trkpt lat="55.5990905" lon="49.4775092"><time>2025-05-18T08:39:04.897</time></trkpt><trkpt lat="55.5991070" lon="49.4776035"><time>2025-05-18T08:39:14.007</time></trkpt><trkpt lat="55.5991403" lon="49.4776879"><time>2025-05-18T08:39:20.897</time></trkpt><trkpt lat="55.5991756" lon="49.4777590"><time>2025-05-18T08:39:29</time></trkpt><trkpt lat="55.5992181" lon="49.4778081"><time>2025-05-18T08:39:34.047</time></trkpt><trkpt lat="55.5992538" lon="49.4778780"><time>2025-05-18T08:39:37.900</time></trkpt><trkpt lat="55.5992934" lon="49.4779487"><time>2025-05-18T08:39:42.887</time></trkpt><trkpt lat="55.5993128" lon="49.4780355"><time>2025-05-18T08:39:46.880</time></trkpt><trkpt lat="55.5993614" lon="49.4781356"><time>2025-05-18T08:39:51.890</time></trkpt><trkpt lat="55.5993972" lon="49.4781925"><time>2025-05-18T08:39:55.007</time></trkpt><trkpt lat="55.5994430" lon="49.4782380"><time>2025-05-18T08:39:58.880</time></trkpt><trkpt lat="55.5994754" lon="49.4783078"><time>2025-05-18T08:40:04.003</time></trkpt><trkpt lat="55.5995154" lon="49.4783460"><time>2025-05-18T08:40:07.903</time></trkpt><trkpt lat="55.5995607" lon="49.4783967"><time>2025-05-18T08:40:11.903</time></trkpt><trkpt lat="55.5996064" lon="49.4784312"><time>2025-05-18T08:40:16.900</time></trkpt><trkpt lat="55.5996515" lon="49.4784565"><time>2025-05-18T08:40:21.893</time></trkpt><trkpt lat="55.5997053" lon="49.4784951"><time>2025-05-18T08:40:26.887</time></trkpt><trkpt lat="55.5997506" lon="49.4784996"><time>2025-05-18T08:40:30.007</time></trkpt><trkpt lat="55.5997925" lon="49.4785280"><time>2025-05-18T08:40:32.897</time></trkpt><trkpt lat="55.5998433" lon="49.4785446"><time>2025-05-18T08:40:36.903</time></trkpt><trkpt lat="55.5998895" lon="49.4785846"><time>2025-05-18T08:40:42.890</time></trkpt><trkpt lat="55.5999226" lon="49.4786400"><time>2025-05-18T08:40:46.893</time></trkpt><trkpt lat="55.5999730" lon="49.4787536"><time>2025-05-18T08:40:52.863</time></trkpt><trkpt lat="55.6000103" lon="49.4788152"><time>2025-05-18T08:40:55.863</time></trkpt><trkpt lat="55.6000406" lon="49.4788804"><time>2025-05-18T08:40:58.883</time></trkpt><trkpt lat="55.6000773" lon="49.4789333"><time>2025-05-18T08:41:01.883</time></trkpt><trkpt lat="55.6000998" lon="49.4790257"><time>2025-05-18T08:41:06.903</time></trkpt><trkpt lat="55.6001359" lon="49.4790930"><time>2025-05-18T08:41:10.040</time></trkpt><trkpt lat="55.6001666" lon="49.4791803"><time>2025-05-18T08:41:14</time></trkpt><trkpt lat="55.6001785" lon="49.4792594"><time>2025-05-18T08:41:17.883</time></trkpt><trkpt lat="55.6001822" lon="49.4793461"><time>2025-05-18T08:41:21.883</time></trkpt><trkpt lat="55.6001911" lon="49.4794322"><time>2025-05-18T08:41:26.900</time></trkpt><trkpt lat="55.6001879" lon="49.4795148"><time>2025-05-18T08:41:31.897</time></trkpt><trkpt lat="55.6001693" lon="49.4795947"><time>2025-05-18T08:41:36.010</time></trkpt><trkpt lat="55.6001331" lon="49.4796662"><time>2025-05-18T08:41:40</time></trkpt><trkpt lat="55.6001124" lon="49.4797621"><time>2025-05-18T08:41:45.093</time></trkpt><trkpt lat="55.6000920" lon="49.4798367"><time>2025-05-18T08:41:50.027</time></trkpt><trkpt lat="55.6000758" lon="49.4799242"><time>2025-05-18T08:41:56</time></trkpt><trkpt lat="55.6000589" lon="49.4800255"><time>2025-05-18T08:41:59.997</time></trkpt><trkpt lat="55.6000169" lon="49.4800855"><time>2025-05-18T08:42:04.893</time></trkpt><trkpt lat="55.5999705" lon="49.4800992"><time>2025-05-18T08:42:07.890</time></trkpt><trkpt lat="55.5999019" lon="49.4801101"><time>2025-05-18T08:42:12.893</time></trkpt><trkpt lat="55.5998455" lon="49.4800952"><time>2025-05-18T08:42:16.897</time></trkpt><trkpt lat="55.5998025" lon="49.4801208"><time>2025-05-18T08:42:19.880</time></trkpt><trkpt lat="55.5997414" lon="49.4801447"><time>2025-05-18T08:42:24.017</time></trkpt><trkpt lat="55.5996843" lon="49.4801734"><time>2025-05-18T08:42:29.937</time></trkpt><trkpt lat="55.5996323" lon="49.4802101"><time>2025-05-18T08:42:34.997</time></trkpt><trkpt lat="55.5996029" lon="49.4802719"><time>2025-05-18T08:42:37.897</time></trkpt><trkpt lat="55.5995595" lon="49.4803190"><time>2025-05-18T08:42:41.910</time></trkpt><trkpt lat="55.5995157" lon="49.4803506"><time>2025-05-18T08:42:46.020</time></trkpt><trkpt lat="55.5994663" lon="49.4803517"><time>2025-05-18T08:42:50.017</time></trkpt><trkpt lat="55.5994138" lon="49.4803804"><time>2025-05-18T08:42:53.907</time></trkpt><trkpt lat="55.5993579" lon="49.4804111"><time>2025-05-18T08:42:57.910</time></trkpt><trkpt lat="55.5993114" lon="49.4804069"><time>2025-05-18T08:43:00.910</time></trkpt><trkpt lat="55.5992629" lon="49.4804200"><time>2025-05-18T08:43:06.033</time></trkpt><trkpt lat="55.5992069" lon="49.4804359"><time>2025-05-18T08:43:10.020</time></trkpt><trkpt lat="55.5991591" lon="49.4804504"><time>2025-05-18T08:43:13.017</time></trkpt><trkpt lat="55.5991113" lon="49.4804458"><time>2025-05-18T08:43:17.907</time></trkpt><trkpt lat="55.5990588" lon="49.4804392"><time>2025-05-18T08:43:22.903</time></trkpt><trkpt lat="55.5990115" lon="49.4804664"><time>2025-05-18T08:43:26.900</time></trkpt><trkpt lat="55.5989614" lon="49.4804701"><time>2025-05-18T08:43:31.023</time></trkpt><trkpt lat="55.5989166" lon="49.4804865"><time>2025-05-18T08:43:35.950</time></trkpt><trkpt lat="55.5988638" lon="49.4804956"><time>2025-05-18T08:43:41.017</time></trkpt><trkpt lat="55.5988157" lon="49.4805197"><time>2025-05-18T08:43:44.030</time></trkpt><trkpt lat="55.5987718" lon="49.4805754"><time>2025-05-18T08:43:49.093</time></trkpt><trkpt lat="55.5987055" lon="49.4806411"><time>2025-05-18T08:43:56.007</time></trkpt><trkpt lat="55.5986616" lon="49.4806704"><time>2025-05-18T08:43:59.017</time></trkpt><trkpt lat="55.5986107" lon="49.4806649"><time>2025-05-18T08:44:05.017</time></trkpt><trkpt lat="55.5985605" lon="49.4806565"><time>2025-05-18T08:44:11.010</time></trkpt><trkpt lat="55.5985135" lon="49.4806499"><time>2025-05-18T08:44:15.017</time></trkpt><trkpt lat="55.5984522" lon="49.4806095"><time>2025-05-18T08:44:17.897</time></trkpt><trkpt lat="55.5984045" lon="49.4806025"><time>2025-05-18T08:44:21.003</time></trkpt><trkpt lat="55.5983576" lon="49.4806092"><time>2025-05-18T08:44:25.027</time></trkpt><trkpt lat="55.5982992" lon="49.4806494"><time>2025-05-18T08:44:30.880</time></trkpt><trkpt lat="55.5982369" lon="49.4806735"><time>2025-05-18T08:44:35.863</time></trkpt><trkpt lat="55.5981862" lon="49.4806811"><time>2025-05-18T08:44:40.020</time></trkpt><trkpt lat="55.5981417" lon="49.4807259"><time>2025-05-18T08:44:43.890</time></trkpt><trkpt lat="55.5980818" lon="49.4807725"><time>2025-05-18T08:44:48.900</time></trkpt><trkpt lat="55.5980531" lon="49.4808355"><time>2025-05-18T08:44:51.893</time></trkpt><trkpt lat="55.5980206" lon="49.4808976"><time>2025-05-18T08:44:55.187</time></trkpt><trkpt lat="55.5979885" lon="49.4809590"><time>2025-05-18T08:44:58.897</time></trkpt><trkpt lat="55.5979579" lon="49.4810187"><time>2025-05-18T08:45:03.873</time></trkpt><trkpt lat="55.5979118" lon="49.4810636"><time>2025-05-18T08:45:09.907</time></trkpt><trkpt lat="55.5978483" lon="49.4811037"><time>2025-05-18T08:45:15.013</time></trkpt><trkpt lat="55.5978032" lon="49.4810969"><time>2025-05-18T08:45:16.913</time></trkpt><trkpt lat="55.5977543" lon="49.4810819"><time>2025-05-18T08:45:19.940</time></trkpt><trkpt lat="55.5977018" lon="49.4810687"><time>2025-05-18T08:45:22.903</time></trkpt><trkpt lat="55.5976469" lon="49.4810475"><time>2025-05-18T08:45:26.890</time></trkpt><trkpt lat="55.5976019" lon="49.4810106"><time>2025-05-18T08:45:30.160</time></trkpt><trkpt lat="55.5975556" lon="49.4809790"><time>2025-05-18T08:45:33.883</time></trkpt><trkpt lat="55.5975004" lon="49.4809533"><time>2025-05-18T08:45:38.933</time></trkpt><trkpt lat="55.5974460" lon="49.4809147"><time>2025-05-18T08:45:44.013</time></trkpt><trkpt lat="55.5973899" lon="49.4808416"><time>2025-05-18T08:45:50.007</time></trkpt><trkpt lat="55.5973413" lon="49.4808544"><time>2025-05-18T08:45:52.897</time></trkpt><trkpt lat="55.5972956" lon="49.4808383"><time>2025-05-18T08:45:56.003</time></trkpt><trkpt lat="55.5972451" lon="49.4808418"><time>2025-05-18T08:46:01.013</time></trkpt><trkpt lat="55.5971862" lon="49.4808395"><time>2025-05-18T08:46:05</time></trkpt><trkpt lat="55.5971313" lon="49.4808426"><time>2025-05-18T08:46:08.887</time></trkpt><trkpt lat="55.5970848" lon="49.4808133"><time>2025-05-18T08:46:13</time></trkpt><trkpt lat="55.5970336" lon="49.4807856"><time>2025-05-18T08:46:16.907</time></trkpt><trkpt lat="55.5969859" lon="49.4807494"><time>2025-05-18T08:46:21.003</time></trkpt><trkpt lat="55.5969299" lon="49.4807315"><time>2025-05-18T08:46:24.023</time></trkpt><trkpt lat="55.5968840" lon="49.4807081"><time>2025-05-18T08:46:26.903</time></trkpt><trkpt lat="55.5968308" lon="49.4806722"><time>2025-05-18T08:46:32.930</time></trkpt><trkpt lat="55.5967812" lon="49.4806641"><time>2025-05-18T08:46:36.007</time></trkpt><trkpt lat="55.5967307" lon="49.4806746"><time>2025-05-18T08:46:40.027</time></trkpt><trkpt lat="55.5966733" lon="49.4806820"><time>2025-05-18T08:46:46.023</time></trkpt><trkpt lat="55.5966103" lon="49.4806738"><time>2025-05-18T08:46:50.910</time></trkpt><trkpt lat="55.5965695" lon="49.4806286"><time>2025-05-18T08:46:54.017</time></trkpt><trkpt lat="55.5965140" lon="49.4806064"><time>2025-05-18T08:47:00.013</time></trkpt><trkpt lat="55.5964665" lon="49.4805896"><time>2025-05-18T08:47:04.993</time></trkpt><trkpt lat="55.5964147" lon="49.4805687"><time>2025-05-18T08:47:09.137</time></trkpt><trkpt lat="55.5963650" lon="49.4805703"><time>2025-05-18T08:47:11.897</time></trkpt><trkpt lat="55.5963238" lon="49.4805370"><time>2025-05-18T08:47:16.157</time></trkpt><trkpt lat="55.5962913" lon="49.4806062"><time>2025-05-18T08:47:31.017</time></trkpt><trkpt lat="55.5962379" lon="49.4806242"><time>2025-05-18T08:47:36.010</time></trkpt><trkpt lat="55.5961934" lon="49.4806416"><time>2025-05-18T08:47:40</time></trkpt><trkpt lat="55.5961424" lon="49.4806489"><time>2025-05-18T08:47:43.900</time></trkpt><trkpt lat="55.5961131" lon="49.4807262"><time>2025-05-18T08:47:51.870</time></trkpt><trkpt lat="55.5960691" lon="49.4807465"><time>2025-05-18T08:47:55.903</time></trkpt><trkpt lat="55.5960238" lon="49.4807895"><time>2025-05-18T08:48:00.900</time></trkpt><trkpt lat="55.5959844" lon="49.4808390"><time>2025-05-18T08:48:06.883</time></trkpt><trkpt lat="55.5959428" lon="49.4808869"><time>2025-05-18T08:48:10.897</time></trkpt><trkpt lat="55.5959058" lon="49.4809565"><time>2025-05-18T08:48:15.887</time></trkpt><trkpt lat="55.5958689" lon="49.4810107"><time>2025-05-18T08:48:19.863</time></trkpt><trkpt lat="55.5958346" lon="49.4810834"><time>2025-05-18T08:48:25.897</time></trkpt><trkpt lat="55.5957922" lon="49.4811161"><time>2025-05-18T08:48:29.893</time></trkpt><trkpt lat="55.5957428" lon="49.4811616"><time>2025-05-18T08:48:35.867</time></trkpt><trkpt lat="55.5956836" lon="49.4811816"><time>2025-05-18T08:48:40.730</time></trkpt><trkpt lat="55.5956357" lon="49.4812094"><time>2025-05-18T08:48:43.873</time></trkpt><trkpt lat="55.5955890" lon="49.4812439"><time>2025-05-18T08:48:47.897</time></trkpt><trkpt lat="55.5955458" lon="49.4812140"><time>2025-05-18T08:48:53.880</time></trkpt><trkpt lat="55.5955132" lon="49.4811359"><time>2025-05-18T08:49:17.913</time></trkpt><trkpt lat="55.5955208" lon="49.4810541"><time>2025-05-18T08:49:37.877</time></trkpt><trkpt lat="55.5955159" lon="49.4809671"><time>2025-05-18T08:49:43.917</time></trkpt><trkpt lat="55.5955210" lon="49.4808717"><time>2025-05-18T08:49:48.897</time></trkpt><trkpt lat="55.5955098" lon="49.4809559"><time>2025-05-18T08:49:58.897</time></trkpt><trkpt lat="55.5955265" lon="49.4810312"><time>2025-05-18T08:50:02.873</time></trkpt><trkpt lat="55.5955263" lon="49.4811283"><time>2025-05-18T08:50:08.293</time></trkpt><trkpt lat="55.5955382" lon="49.4812182"><time>2025-05-18T08:50:12.870</time></trkpt><trkpt lat="55.5955545" lon="49.4812926"><time>2025-05-18T08:50:18.907</time></trkpt><trkpt lat="55.5955116" lon="49.4813496"><time>2025-05-18T08:50:25.897</time></trkpt><trkpt lat="55.5954865" lon="49.4814202"><time>2025-05-18T08:50:31.903</time></trkpt><trkpt lat="55.5955154" lon="49.4813522"><time>2025-05-18T08:50:39.897</time></trkpt><trkpt lat="55.5955468" lon="49.4812717"><time>2025-05-18T08:50:45.897</time></trkpt><trkpt lat="55.5955518" lon="49.4811921"><time>2025-05-18T08:50:51.907</time></trkpt><trkpt lat="55.5955416" lon="49.4811140"><time>2025-05-18T08:50:57.913</time></trkpt><trkpt lat="55.5955330" lon="49.4810085"><time>2025-05-18T08:51:01.897</time></trkpt><trkpt lat="55.5955325" lon="49.4809266"><time>2025-05-18T08:51:05.890</time></trkpt><trkpt lat="55.5955161" lon="49.4808489"><time>2025-05-18T08:51:11.013</time></trkpt><trkpt lat="55.5954654" lon="49.4808718"><time>2025-05-18T08:51:20.903</time></trkpt><trkpt lat="55.5954653" lon="49.4807918"><time>2025-05-18T08:51:28.867</time></trkpt><trkpt lat="55.5954740" lon="49.4807100"><time>2025-05-18T08:51:32.877</time></trkpt><trkpt lat="55.5954770" lon="49.4806266"><time>2025-05-18T08:51:37.893</time></trkpt><trkpt lat="55.5955186" lon="49.4805686"><time>2025-05-18T08:51:46.877</time></trkpt><trkpt lat="55.5955569" lon="49.4805220"><time>2025-05-18T08:51:54.873</time></trkpt><trkpt lat="55.5955817" lon="49.4804523"><time>2025-05-18T08:51:59.887</time></trkpt><trkpt lat="55.5956185" lon="49.4803919"><time>2025-05-18T08:52:10.903</time></trkpt><trkpt lat="55.5956596" lon="49.4803348"><time>2025-05-18T08:52:17.903</time></trkpt><trkpt lat="55.5957034" lon="49.4803097"><time>2025-05-18T08:52:23.867</time></trkpt><trkpt lat="55.5957495" lon="49.4803053"><time>2025-05-18T08:52:31.150</time></trkpt><trkpt lat="55.5957932" lon="49.4802728"><time>2025-05-18T08:52:35.917</time></trkpt><trkpt lat="55.5958062" lon="49.4802768"><time>2025-05-18T08:52:39.743</time></trkpt><trkpt lat="55.5958355" lon="49.4802278"><time>2025-05-18T08:52:50.873</time></trkpt><trkpt lat="55.5957972" lon="49.4802935"><time>2025-05-18T08:53:04.897</time></trkpt><trkpt lat="55.5958361" lon="49.4803567"><time>2025-05-18T08:53:14.897</time></trkpt><trkpt lat="55.5958752" lon="49.4803147"><time>2025-05-18T08:53:22.897</time></trkpt><trkpt lat="55.5959167" lon="49.4803630"><time>2025-05-18T08:53:28.887</time></trkpt><trkpt lat="55.5959528" lon="49.4804143"><time>2025-05-18T08:53:34.887</time></trkpt><trkpt lat="55.5959865" lon="49.4804890"><time>2025-05-18T08:53:39.900</time></trkpt><trkpt lat="55.5960154" lon="49.4805553"><time>2025-05-18T08:53:55.903</time></trkpt><trkpt lat="55.5960504" lon="49.4806241"><time>2025-05-18T08:54:03.903</time></trkpt><trkpt lat="55.5960916" lon="49.4806924"><time>2025-05-18T08:54:09.893</time></trkpt><trkpt lat="55.5961273" lon="49.4807539"><time>2025-05-18T08:54:15.897</time></trkpt><trkpt lat="55.5961633" lon="49.4808290"><time>2025-05-18T08:54:20.893</time></trkpt><trkpt lat="55.5961786" lon="49.4809201"><time>2025-05-18T08:54:24.937</time></trkpt><trkpt lat="55.5962140" lon="49.4809845"><time>2025-05-18T08:54:29.883</time></trkpt><trkpt lat="55.5962522" lon="49.4810265"><time>2025-05-18T08:54:33.890</time></trkpt><trkpt lat="55.5962912" lon="49.4810744"><time>2025-05-18T08:54:41.893</time></trkpt><trkpt lat="55.5962864" lon="49.4811681"><time>2025-05-18T08:54:45.890</time></trkpt><trkpt lat="55.5962688" lon="49.4812420"><time>2025-05-18T08:54:51.867</time></trkpt><trkpt lat="55.5962535" lon="49.4813264"><time>2025-05-18T08:54:56.907</time></trkpt><trkpt lat="55.5962373" lon="49.4814047"><time>2025-05-18T08:55:00.903</time></trkpt><trkpt lat="55.5962436" lon="49.4814901"><time>2025-05-18T08:55:06.897</time></trkpt><trkpt lat="55.5962449" lon="49.4815890"><time>2025-05-18T08:55:10.900</time></trkpt><trkpt lat="55.5962587" lon="49.4816832"><time>2025-05-18T08:55:16.900</time></trkpt><trkpt lat="55.5962739" lon="49.4817951"><time>2025-05-18T08:55:24.893</time></trkpt><trkpt lat="55.5962881" lon="49.4818864"><time>2025-05-18T08:55:29.897</time></trkpt><trkpt lat="55.5963041" lon="49.4819685"><time>2025-05-18T08:55:35.937</time></trkpt><trkpt lat="55.5963168" lon="49.4820635"><time>2025-05-18T08:55:41.863</time></trkpt><trkpt lat="55.5963229" lon="49.4821533"><time>2025-05-18T08:55:47.863</time></trkpt><trkpt lat="55.5963342" lon="49.4822661"><time>2025-05-18T08:55:53.907</time></trkpt><trkpt lat="55.5963258" lon="49.4823736"><time>2025-05-18T08:55:59.907</time></trkpt><trkpt lat="55.5963271" lon="49.4824687"><time>2025-05-18T08:56:03.900</time></trkpt><trkpt lat="55.5963480" lon="49.4825552"><time>2025-05-18T08:56:08.880</time></trkpt><trkpt lat="55.5963312" lon="49.4826331"><time>2025-05-18T08:56:15.873</time></trkpt><trkpt lat="55.5963181" lon="49.4827168"><time>2025-05-18T08:56:21.903</time></trkpt><trkpt lat="55.5963270" lon="49.4828036"><time>2025-05-18T08:56:26.893</time></trkpt><trkpt lat="55.5962968" lon="49.4828668"><time>2025-05-18T08:56:30.900</time></trkpt><trkpt lat="55.5962685" lon="49.4829293"><time>2025-05-18T08:56:34.900</time></trkpt><trkpt lat="55.5962584" lon="49.4830188"><time>2025-05-18T08:56:41.907</time></trkpt><trkpt lat="55.5962584" lon="49.4831140"><time>2025-05-18T08:56:47.893</time></trkpt><trkpt lat="55.5962595" lon="49.4832022"><time>2025-05-18T08:56:51.890</time></trkpt><trkpt lat="55.5962822" lon="49.4832815"><time>2025-05-18T08:56:56.870</time></trkpt><trkpt lat="55.5962970" lon="49.4834038"><time>2025-05-18T08:57:02.893</time></trkpt><trkpt lat="55.5962707" lon="49.4834777"><time>2025-05-18T08:57:06.897</time></trkpt><trkpt lat="55.5962449" lon="49.4835560"><time>2025-05-18T08:57:13.887</time></trkpt><trkpt lat="55.5962366" lon="49.4836400"><time>2025-05-18T08:57:20.887</time></trkpt><trkpt lat="55.5962034" lon="49.4837108"><time>2025-05-18T08:57:25.903</time></trkpt><trkpt lat="55.5961839" lon="49.4837919"><time>2025-05-18T08:57:29.887</time></trkpt><trkpt lat="55.5961884" lon="49.4838865"><time>2025-05-18T08:57:37.903</time></trkpt><trkpt lat="55.5962001" lon="49.4839791"><time>2025-05-18T08:57:42.890</time></trkpt><trkpt lat="55.5961869" lon="49.4840689"><time>2025-05-18T08:57:48.897</time></trkpt><trkpt lat="55.5962029" lon="49.4841446"><time>2025-05-18T08:57:52.883</time></trkpt><trkpt lat="55.5961835" lon="49.4842384"><time>2025-05-18T08:57:57.897</time></trkpt><trkpt lat="55.5961871" lon="49.4843323"><time>2025-05-18T08:58:01.897</time></trkpt><trkpt lat="55.5961936" lon="49.4844386"><time>2025-05-18T08:58:08.887</time></trkpt><trkpt lat="55.5961945" lon="49.4845184"><time>2025-05-18T08:58:13.893</time></trkpt><trkpt lat="55.5962085" lon="49.4845942"><time>2025-05-18T08:58:20.893</time></trkpt><trkpt lat="55.5962011" lon="49.4846813"><time>2025-05-18T08:58:26.877</time></trkpt><trkpt lat="55.5962057" lon="49.4847655"><time>2025-05-18T08:58:32.897</time></trkpt><trkpt lat="55.5962051" lon="49.4848462"><time>2025-05-18T08:58:37.897</time></trkpt><trkpt lat="55.5962218" lon="49.4849410"><time>2025-05-18T08:58:43</time></trkpt><trkpt lat="55.5962092" lon="49.4850328"><time>2025-05-18T08:58:48.157</time></trkpt><trkpt lat="55.5961871" lon="49.4851088"><time>2025-05-18T08:58:52.950</time></trkpt><trkpt lat="55.5961806" lon="49.4851894"><time>2025-05-18T08:58:58.933</time></trkpt><trkpt lat="55.5961639" lon="49.4852763"><time>2025-05-18T08:59:05.957</time></trkpt><trkpt lat="55.5961647" lon="49.4854101"><time>2025-05-18T08:59:12.940</time></trkpt><trkpt lat="55.5961601" lon="49.4854977"><time>2025-05-18T08:59:17.953</time></trkpt><trkpt lat="55.5961578" lon="49.4855829"><time>2025-05-18T08:59:21.917</time></trkpt><trkpt lat="55.5961690" lon="49.4856637"><time>2025-05-18T08:59:27.970</time></trkpt><trkpt lat="55.5961978" lon="49.4857280"><time>2025-05-18T08:59:31.960</time></trkpt><trkpt lat="55.5962152" lon="49.4858244"><time>2025-05-18T08:59:40.130</time></trkpt><trkpt lat="55.5962120" lon="49.4859098"><time>2025-05-18T08:59:44.140</time></trkpt><trkpt lat="55.5961932" lon="49.4859956"><time>2025-05-18T08:59:47.953</time></trkpt><trkpt lat="55.5961835" lon="49.4860858"><time>2025-05-18T08:59:51.887</time></trkpt><trkpt lat="55.5961769" lon="49.4861657"><time>2025-05-18T09:00:09.917</time></trkpt><trkpt lat="55.5962233" lon="49.4861620"><time>2025-05-18T09:00:16.040</time></trkpt><trkpt lat="55.5962745" lon="49.4862050"><time>2025-05-18T09:00:25.160</time></trkpt><trkpt lat="55.5963173" lon="49.4862327"><time>2025-05-18T09:00:28.893</time></trkpt><trkpt lat="55.5963625" lon="49.4862348"><time>2025-05-18T09:00:32.910</time></trkpt><trkpt lat="55.5964118" lon="49.4862597"><time>2025-05-18T09:00:36.927</time></trkpt><trkpt lat="55.5964580" lon="49.4862860"><time>2025-05-18T09:00:41.190</time></trkpt><trkpt lat="55.5965114" lon="49.4862850"><time>2025-05-18T09:00:46.900</time></trkpt><trkpt lat="55.5965532" lon="49.4863173"><time>2025-05-18T09:00:51.897</time></trkpt><trkpt lat="55.5965904" lon="49.4863641"><time>2025-05-18T09:00:56.003</time></trkpt><trkpt lat="55.5966381" lon="49.4863775"><time>2025-05-18T09:00:58.890</time></trkpt><trkpt lat="55.5966855" lon="49.4864028"><time>2025-05-18T09:01:01.887</time></trkpt><trkpt lat="55.5967339" lon="49.4864223"><time>2025-05-18T09:01:04.890</time></trkpt><trkpt lat="55.5967814" lon="49.4864283"><time>2025-05-18T09:01:07.897</time></trkpt><trkpt lat="55.5968327" lon="49.4864267"><time>2025-05-18T09:01:11.867</time></trkpt><trkpt lat="55.5968886" lon="49.4864464"><time>2025-05-18T09:01:17.903</time></trkpt><trkpt lat="55.5969358" lon="49.4864654"><time>2025-05-18T09:01:20.880</time></trkpt><trkpt lat="55.5969864" lon="49.4864861"><time>2025-05-18T09:01:24.900</time></trkpt><trkpt lat="55.5970276" lon="49.4865182"><time>2025-05-18T09:01:27.893</time></trkpt><trkpt lat="55.5970687" lon="49.4865612"><time>2025-05-18T09:01:31.870</time></trkpt><trkpt lat="55.5971155" lon="49.4865931"><time>2025-05-18T09:01:37.897</time></trkpt><trkpt lat="55.5971721" lon="49.4865906"><time>2025-05-18T09:01:42.880</time></trkpt><trkpt lat="55.5972157" lon="49.4866155"><time>2025-05-18T09:01:46.887</time></trkpt><trkpt lat="55.5972664" lon="49.4866329"><time>2025-05-18T09:01:51.003</time></trkpt><trkpt lat="55.5973105" lon="49.4866479"><time>2025-05-18T09:01:54.900</time></trkpt><trkpt lat="55.5973625" lon="49.4866630"><time>2025-05-18T09:01:59.003</time></trkpt><trkpt lat="55.5974167" lon="49.4866760"><time>2025-05-18T09:02:04.127</time></trkpt><trkpt lat="55.5974716" lon="49.4866635"><time>2025-05-18T09:02:07.893</time></trkpt><trkpt lat="55.5975284" lon="49.4866798"><time>2025-05-18T09:02:11.890</time></trkpt><trkpt lat="55.5975770" lon="49.4867122"><time>2025-05-18T09:02:16.893</time></trkpt><trkpt lat="55.5976341" lon="49.4867442"><time>2025-05-18T09:02:21.897</time></trkpt><trkpt lat="55.5976878" lon="49.4867809"><time>2025-05-18T09:02:24.897</time></trkpt><trkpt lat="55.5977398" lon="49.4868072"><time>2025-05-18T09:02:28.997</time></trkpt><trkpt lat="55.5977909" lon="49.4868022"><time>2025-05-18T09:02:32.907</time></trkpt><trkpt lat="55.5978386" lon="49.4868250"><time>2025-05-18T09:02:35.887</time></trkpt><trkpt lat="55.5978897" lon="49.4868650"><time>2025-05-18T09:02:39.893</time></trkpt><trkpt lat="55.5979371" lon="49.4869157"><time>2025-05-18T09:02:45.007</time></trkpt><trkpt lat="55.5979717" lon="49.4869681"><time>2025-05-18T09:02:56.870</time></trkpt><trkpt lat="55.5979911" lon="49.4870397"><time>2025-05-18T09:03:01.893</time></trkpt><trkpt lat="55.5980171" lon="49.4871144"><time>2025-05-18T09:03:06.120</time></trkpt><trkpt lat="55.5980518" lon="49.4871829"><time>2025-05-18T09:03:10.020</time></trkpt><trkpt lat="55.5980839" lon="49.4872512"><time>2025-05-18T09:03:14.890</time></trkpt><trkpt lat="55.5981111" lon="49.4873224"><time>2025-05-18T09:03:19.010</time></trkpt><trkpt lat="55.5981344" lon="49.4873932"><time>2025-05-18T09:03:21.900</time></trkpt><trkpt lat="55.5981623" lon="49.4874689"><time>2025-05-18T09:03:26.893</time></trkpt><trkpt lat="55.5981938" lon="49.4875444"><time>2025-05-18T09:03:30.893</time></trkpt><trkpt lat="55.5982127" lon="49.4876333"><time>2025-05-18T09:03:35.890</time></trkpt><trkpt lat="55.5982282" lon="49.4877295"><time>2025-05-18T09:03:39.887</time></trkpt><trkpt lat="55.5982461" lon="49.4878156"><time>2025-05-18T09:03:43.893</time></trkpt><trkpt lat="55.5982636" lon="49.4879066"><time>2025-05-18T09:03:47.993</time></trkpt><trkpt lat="55.5982772" lon="49.4879881"><time>2025-05-18T09:03:52.897</time></trkpt><trkpt lat="55.5983084" lon="49.4880629"><time>2025-05-18T09:03:56.897</time></trkpt><trkpt lat="55.5983206" lon="49.4881496"><time>2025-05-18T09:04:00.903</time></trkpt><trkpt lat="55.5983044" lon="49.4882333"><time>2025-05-18T09:04:04.900</time></trkpt><trkpt lat="55.5982799" lon="49.4883011"><time>2025-05-18T09:04:08.893</time></trkpt><trkpt lat="55.5982805" lon="49.4883932"><time>2025-05-18T09:04:12.897</time></trkpt><trkpt lat="55.5982796" lon="49.4884908"><time>2025-05-18T09:04:17.887</time></trkpt><trkpt lat="55.5983178" lon="49.4885451"><time>2025-05-18T09:04:51.003</time></trkpt><trkpt lat="55.5983558" lon="49.4885963"><time>2025-05-18T09:05:20.910</time></trkpt><trkpt lat="55.5984100" lon="49.4886141"><time>2025-05-18T09:05:27.990</time></trkpt><trkpt lat="55.5984486" lon="49.4886590"><time>2025-05-18T09:05:40.027</time></trkpt><trkpt lat="55.5985092" lon="49.4886718"><time>2025-05-18T09:05:45.017</time></trkpt><trkpt lat="55.5985586" lon="49.4886666"><time>2025-05-18T09:05:47.903</time></trkpt><trkpt lat="55.5986192" lon="49.4886668"><time>2025-05-18T09:05:51.920</time></trkpt><trkpt lat="55.5986729" lon="49.4886727"><time>2025-05-18T09:05:55.017</time></trkpt><trkpt lat="55.5987244" lon="49.4886750"><time>2025-05-18T09:05:57.923</time></trkpt><trkpt lat="55.5987659" lon="49.4887139"><time>2025-05-18T09:06:02.910</time></trkpt><trkpt lat="55.5988211" lon="49.4887172"><time>2025-05-18T09:06:07.927</time></trkpt><trkpt lat="55.5988662" lon="49.4887450"><time>2025-05-18T09:06:11.037</time></trkpt><trkpt lat="55.5989188" lon="49.4887654"><time>2025-05-18T09:06:14.910</time></trkpt><trkpt lat="55.5989700" lon="49.4887608"><time>2025-05-18T09:06:27.913</time></trkpt><trkpt lat="55.5989936" lon="49.4888350"><time>2025-05-18T09:06:31.910</time></trkpt><trkpt lat="55.5990065" lon="49.4889155"><time>2025-05-18T09:06:36.037</time></trkpt><trkpt lat="55.5990183" lon="49.4890044"><time>2025-05-18T09:06:41.893</time></trkpt><trkpt lat="55.5989928" lon="49.4890888"><time>2025-05-18T09:06:47.913</time></trkpt><trkpt lat="55.5990025" lon="49.4891769"><time>2025-05-18T09:06:53.870</time></trkpt><trkpt lat="55.5990084" lon="49.4892638"><time>2025-05-18T09:06:57.907</time></trkpt><trkpt lat="55.5990073" lon="49.4893522"><time>2025-05-18T09:07:01.913</time></trkpt><trkpt lat="55.5989995" lon="49.4894329"><time>2025-05-18T09:07:05.120</time></trkpt><trkpt lat="55.5989793" lon="49.4895231"><time>2025-05-18T09:07:08.910</time></trkpt><trkpt lat="55.5989455" lon="49.4895895"><time>2025-05-18T09:07:13.027</time></trkpt><trkpt lat="55.5988958" lon="49.4896195"><time>2025-05-18T09:07:27.913</time></trkpt><trkpt lat="55.5988434" lon="49.4896769"><time>2025-05-18T09:07:35.190</time></trkpt><trkpt lat="55.5988032" lon="49.4897311"><time>2025-05-18T09:07:37.903</time></trkpt><trkpt lat="55.5987612" lon="49.4897785"><time>2025-05-18T09:07:41.047</time></trkpt><trkpt lat="55.5987120" lon="49.4898162"><time>2025-05-18T09:07:43.907</time></trkpt><trkpt lat="55.5986601" lon="49.4898681"><time>2025-05-18T09:07:46.923</time></trkpt><trkpt lat="55.5986100" lon="49.4899435"><time>2025-05-18T09:07:52.913</time></trkpt><trkpt lat="55.5985472" lon="49.4899563"><time>2025-05-18T09:07:58.897</time></trkpt><trkpt lat="55.5984943" lon="49.4899613"><time>2025-05-18T09:08:01.907</time></trkpt><trkpt lat="55.5984432" lon="49.4899723"><time>2025-05-18T09:08:05.017</time></trkpt><trkpt lat="55.5983978" lon="49.4899724"><time>2025-05-18T09:08:08.033</time></trkpt><trkpt lat="55.5983430" lon="49.4899829"><time>2025-05-18T09:08:11.893</time></trkpt><trkpt lat="55.5982870" lon="49.4900045"><time>2025-05-18T09:08:15.907</time></trkpt><trkpt lat="55.5982279" lon="49.4899987"><time>2025-05-18T09:08:20.037</time></trkpt><trkpt lat="55.5981764" lon="49.4899978"><time>2025-05-18T09:08:24.027</time></trkpt><trkpt lat="55.5981266" lon="49.4900430"><time>2025-05-18T09:08:28.933</time></trkpt><trkpt lat="55.5980870" lon="49.4900871"><time>2025-05-18T09:08:32.920</time></trkpt><trkpt lat="55.5980420" lon="49.4901392"><time>2025-05-18T09:08:37.903</time></trkpt><trkpt lat="55.5980023" lon="49.4901819"><time>2025-05-18T09:09:10.877</time></trkpt><trkpt lat="55.5980284" lon="49.4900997"><time>2025-05-18T09:09:22.887</time></trkpt><trkpt lat="55.5980599" lon="49.4900288"><time>2025-05-18T09:09:28.897</time></trkpt><trkpt lat="55.5981065" lon="49.4899962"><time>2025-05-18T09:09:34.907</time></trkpt><trkpt lat="55.5981595" lon="49.4899818"><time>2025-05-18T09:09:40.887</time></trkpt><trkpt lat="55.5982024" lon="49.4899510"><time>2025-05-18T09:09:44.897</time></trkpt><trkpt lat="55.5982610" lon="49.4899290"><time>2025-05-18T09:09:48.927</time></trkpt><trkpt lat="55.5983072" lon="49.4899003"><time>2025-05-18T09:09:51.897</time></trkpt><trkpt lat="55.5983563" lon="49.4898878"><time>2025-05-18T09:09:56.913</time></trkpt><trkpt lat="55.5984147" lon="49.4898660"><time>2025-05-18T09:10:00.900</time></trkpt><trkpt lat="55.5984680" lon="49.4898521"><time>2025-05-18T09:10:04.903</time></trkpt><trkpt lat="55.5985162" lon="49.4898289"><time>2025-05-18T09:10:08.893</time></trkpt><trkpt lat="55.5985723" lon="49.4898023"><time>2025-05-18T09:10:12.903</time></trkpt><trkpt lat="55.5986268" lon="49.4897769"><time>2025-05-18T09:10:16.897</time></trkpt><trkpt lat="55.5986759" lon="49.4897441"><time>2025-05-18T09:10:21.897</time></trkpt><trkpt lat="55.5987216" lon="49.4897262"><time>2025-05-18T09:10:24.900</time></trkpt><trkpt lat="55.5987696" lon="49.4896873"><time>2025-05-18T09:10:27.927</time></trkpt><trkpt lat="55.5988130" lon="49.4896529"><time>2025-05-18T09:10:30.910</time></trkpt><trkpt lat="55.5988620" lon="49.4896270"><time>2025-05-18T09:10:34.907</time></trkpt><trkpt lat="55.5989129" lon="49.4896061"><time>2025-05-18T09:10:39.877</time></trkpt><trkpt lat="55.5989602" lon="49.4895818"><time>2025-05-18T09:10:44.897</time></trkpt><trkpt lat="55.5990099" lon="49.4895638"><time>2025-05-18T09:10:49.890</time></trkpt><trkpt lat="55.5990640" lon="49.4895417"><time>2025-05-18T09:10:53.877</time></trkpt><trkpt lat="55.5991135" lon="49.4895165"><time>2025-05-18T09:10:56.883</time></trkpt><trkpt lat="55.5991629" lon="49.4894882"><time>2025-05-18T09:11:00.900</time></trkpt><trkpt lat="55.5992122" lon="49.4894423"><time>2025-05-18T09:11:04.903</time></trkpt><trkpt lat="55.5992593" lon="49.4894302"><time>2025-05-18T09:11:07.910</time></trkpt><trkpt lat="55.5993086" lon="49.4894147"><time>2025-05-18T09:11:11.893</time></trkpt><trkpt lat="55.5993498" lon="49.4893781"><time>2025-05-18T09:11:15.877</time></trkpt><trkpt lat="55.5994022" lon="49.4893582"><time>2025-05-18T09:11:28.923</time></trkpt><trkpt lat="55.5994540" lon="49.4893428"><time>2025-05-18T09:11:31.917</time></trkpt><trkpt lat="55.5995067" lon="49.4893504"><time>2025-05-18T09:11:35.917</time></trkpt><trkpt lat="55.5995549" lon="49.4893463"><time>2025-05-18T09:11:40.947</time></trkpt><trkpt lat="55.5996099" lon="49.4893444"><time>2025-05-18T09:11:45.953</time></trkpt><trkpt lat="55.5996622" lon="49.4893531"><time>2025-05-18T09:11:50.147</time></trkpt><trkpt lat="55.5997119" lon="49.4893569"><time>2025-05-18T09:11:53.943</time></trkpt><trkpt lat="55.5997669" lon="49.4893618"><time>2025-05-18T09:11:57.953</time></trkpt><trkpt lat="55.5998128" lon="49.4893318"><time>2025-05-18T09:12:01.970</time></trkpt><trkpt lat="55.5998721" lon="49.4893405"><time>2025-05-18T09:12:06.157</time></trkpt><trkpt lat="55.5999151" lon="49.4892844"><time>2025-05-18T09:12:10.183</time></trkpt><trkpt lat="55.5999591" lon="49.4892396"><time>2025-05-18T09:12:12.963</time></trkpt><trkpt lat="55.6000189" lon="49.4892392"><time>2025-05-18T09:12:16.980</time></trkpt><trkpt lat="55.6000666" lon="49.4892118"><time>2025-05-18T09:12:19.997</time></trkpt><trkpt lat="55.6001140" lon="49.4892101"><time>2025-05-18T09:12:24.217</time></trkpt><trkpt lat="55.6001607" lon="49.4891998"><time>2025-05-18T09:12:28.920</time></trkpt><trkpt lat="55.6002153" lon="49.4892195"><time>2025-05-18T09:12:35.153</time></trkpt><trkpt lat="55.6002737" lon="49.4892162"><time>2025-05-18T09:12:38.983</time></trkpt><trkpt lat="55.6003178" lon="49.4891995"><time>2025-05-18T09:12:41.970</time></trkpt><trkpt lat="55.6003571" lon="49.4891359"><time>2025-05-18T09:12:50.173</time></trkpt><trkpt lat="55.6003906" lon="49.4891891"><time>2025-05-18T09:13:19.243</time></trkpt><trkpt lat="55.6004326" lon="49.4892227"><time>2025-05-18T09:13:31.157</time></trkpt><trkpt lat="55.6003895" lon="49.4892466"><time>2025-05-18T09:14:16.923</time></trkpt><trkpt lat="55.6003400" lon="49.4892421"><time>2025-05-18T09:14:21.917</time></trkpt><trkpt lat="55.6002878" lon="49.4892355"><time>2025-05-18T09:14:26.050</time></trkpt><trkpt lat="55.6002418" lon="49.4892462"><time>2025-05-18T09:14:31.030</time></trkpt><trkpt lat="55.6001895" lon="49.4892694"><time>2025-05-18T09:14:36.017</time></trkpt><trkpt lat="55.6001463" lon="49.4892929"><time>2025-05-18T09:14:41.930</time></trkpt><trkpt lat="55.6000728" lon="49.4893278"><time>2025-05-18T09:14:47.923</time></trkpt><trkpt lat="55.6000111" lon="49.4893408"><time>2025-05-18T09:14:52.903</time></trkpt><trkpt lat="55.5999505" lon="49.4893494"><time>2025-05-18T09:14:56.063</time></trkpt><trkpt lat="55.5998979" lon="49.4893815"><time>2025-05-18T09:14:59.053</time></trkpt><trkpt lat="55.5998536" lon="49.4893996"><time>2025-05-18T09:15:01.903</time></trkpt><trkpt lat="55.5998001" lon="49.4893717"><time>2025-05-18T09:15:06.027</time></trkpt><trkpt lat="55.5997495" lon="49.4893788"><time>2025-05-18T09:15:09.923</time></trkpt><trkpt lat="55.5997065" lon="49.4893535"><time>2025-05-18T09:15:15.017</time></trkpt><trkpt lat="55.5996593" lon="49.4893543"><time>2025-05-18T09:15:21.027</time></trkpt><trkpt lat="55.5995997" lon="49.4893712"><time>2025-05-18T09:15:25.027</time></trkpt><trkpt lat="55.5995553" lon="49.4893857"><time>2025-05-18T09:15:28.037</time></trkpt><trkpt lat="55.5995095" lon="49.4893835"><time>2025-05-18T09:15:31.047</time></trkpt><trkpt lat="55.5994562" lon="49.4894118"><time>2025-05-18T09:15:55.193</time></trkpt><trkpt lat="55.5994092" lon="49.4894419"><time>2025-05-18T09:16:07.910</time></trkpt><trkpt lat="55.5993936" lon="49.4895168"><time>2025-05-18T09:16:11.130</time></trkpt><trkpt lat="55.5993738" lon="49.4895918"><time>2025-05-18T09:16:16.033</time></trkpt><trkpt lat="55.5993537" lon="49.4896699"><time>2025-05-18T09:16:20.027</time></trkpt><trkpt lat="55.5993225" lon="49.4897372"><time>2025-05-18T09:16:24.037</time></trkpt><trkpt lat="55.5992883" lon="49.4897898"><time>2025-05-18T09:16:26.927</time></trkpt><trkpt lat="55.5992598" lon="49.4898696"><time>2025-05-18T09:16:31.897</time></trkpt><trkpt lat="55.5992456" lon="49.4899679"><time>2025-05-18T09:16:36.917</time></trkpt><trkpt lat="55.5992473" lon="49.4900533"><time>2025-05-18T09:16:41.037</time></trkpt><trkpt lat="55.5992494" lon="49.4901416"><time>2025-05-18T09:16:46.920</time></trkpt><trkpt lat="55.5992707" lon="49.4902160"><time>2025-05-18T09:16:49.927</time></trkpt><trkpt lat="55.5992722" lon="49.4903065"><time>2025-05-18T09:16:53.937</time></trkpt><trkpt lat="55.5992867" lon="49.4903900"><time>2025-05-18T09:16:58.040</time></trkpt><trkpt lat="55.5993014" lon="49.4904788"><time>2025-05-18T09:17:01.913</time></trkpt><trkpt lat="55.5993196" lon="49.4905561"><time>2025-05-18T09:17:06.910</time></trkpt><trkpt lat="55.5993170" lon="49.4906398"><time>2025-05-18T09:17:10.917</time></trkpt><trkpt lat="55.5992951" lon="49.4907308"><time>2025-05-18T09:17:15.027</time></trkpt><trkpt lat="55.5992738" lon="49.4908190"><time>2025-05-18T09:17:17.920</time></trkpt><trkpt lat="55.5992470" lon="49.4908974"><time>2025-05-18T09:17:21.037</time></trkpt><trkpt lat="55.5992129" lon="49.4909631"><time>2025-05-18T09:17:24.940</time></trkpt><trkpt lat="55.5991862" lon="49.4910432"><time>2025-05-18T09:17:29.030</time></trkpt><trkpt lat="55.5991346" lon="49.4911081"><time>2025-05-18T09:17:32.930</time></trkpt><trkpt lat="55.5990908" lon="49.4911624"><time>2025-05-18T09:17:37.910</time></trkpt><trkpt lat="55.5990535" lon="49.4912362"><time>2025-05-18T09:17:42.917</time></trkpt><trkpt lat="55.5990420" lon="49.4913162"><time>2025-05-18T09:17:47.913</time></trkpt><trkpt lat="55.5990284" lon="49.4914033"><time>2025-05-18T09:17:52.917</time></trkpt><trkpt lat="55.5990310" lon="49.4914929"><time>2025-05-18T09:17:58.917</time></trkpt><trkpt lat="55.5990374" lon="49.4915742"><time>2025-05-18T09:18:02.913</time></trkpt><trkpt lat="55.5990508" lon="49.4916570"><time>2025-05-18T09:18:06.043</time></trkpt><trkpt lat="55.5990510" lon="49.4917611"><time>2025-05-18T09:18:12.920</time></trkpt><trkpt lat="55.5990710" lon="49.4918375"><time>2025-05-18T09:18:16.937</time></trkpt><trkpt lat="55.5990833" lon="49.4919188"><time>2025-05-18T09:18:21.920</time></trkpt><trkpt lat="55.5990872" lon="49.4920104"><time>2025-05-18T09:18:26.907</time></trkpt><trkpt lat="55.5991142" lon="49.4920808"><time>2025-05-18T09:18:32.933</time></trkpt><trkpt lat="55.5991541" lon="49.4921486"><time>2025-05-18T09:18:38.033</time></trkpt><trkpt lat="55.5992005" lon="49.4922427"><time>2025-05-18T09:18:43.923</time></trkpt><trkpt lat="55.5992287" lon="49.4923123"><time>2025-05-18T09:18:47.920</time></trkpt><trkpt lat="55.5992633" lon="49.4923758"><time>2025-05-18T09:18:55.160</time></trkpt><trkpt lat="55.5993031" lon="49.4924470"><time>2025-05-18T09:18:59.197</time></trkpt><trkpt lat="55.5993455" lon="49.4925109"><time>2025-05-18T09:19:02.917</time></trkpt><trkpt lat="55.5993616" lon="49.4925942"><time>2025-05-18T09:19:08.993</time></trkpt><trkpt lat="55.5993890" lon="49.4926651"><time>2025-05-18T09:19:14.920</time></trkpt><trkpt lat="55.5994092" lon="49.4927416"><time>2025-05-18T09:19:18.937</time></trkpt><trkpt lat="55.5994323" lon="49.4928261"><time>2025-05-18T09:19:24.137</time></trkpt><trkpt lat="55.5994383" lon="49.4929270"><time>2025-05-18T09:19:28.917</time></trkpt><trkpt lat="55.5994471" lon="49.4930119"><time>2025-05-18T09:19:31.920</time></trkpt><trkpt lat="55.5994477" lon="49.4930941"><time>2025-05-18T09:19:35.900</time></trkpt><trkpt lat="55.5994643" lon="49.4931817"><time>2025-05-18T09:19:41</time></trkpt><trkpt lat="55.5994512" lon="49.4932652"><time>2025-05-18T09:19:49.030</time></trkpt><trkpt lat="55.5994022" lon="49.4932644"><time>2025-05-18T09:20:09.087</time></trkpt><trkpt lat="55.5993708" lon="49.4933334"><time>2025-05-18T09:20:20.030</time></trkpt><trkpt lat="55.5993384" lon="49.4933917"><time>2025-05-18T09:20:55.903</time></trkpt><trkpt lat="55.5992990" lon="49.4934472"><time>2025-05-18T09:21:06.940</time></trkpt><trkpt lat="55.5992544" lon="49.4934982"><time>2025-05-18T09:21:12.920</time></trkpt><trkpt lat="55.5992067" lon="49.4935204"><time>2025-05-18T09:21:16.913</time></trkpt><trkpt lat="55.5991534" lon="49.4935423"><time>2025-05-18T09:21:22.920</time></trkpt><trkpt lat="55.5990999" lon="49.4935858"><time>2025-05-18T09:21:26.940</time></trkpt><trkpt lat="55.5990505" lon="49.4936238"><time>2025-05-18T09:21:29.910</time></trkpt><trkpt lat="55.5990068" lon="49.4936810"><time>2025-05-18T09:21:32.920</time></trkpt><trkpt lat="55.5989707" lon="49.4937305"><time>2025-05-18T09:21:35.920</time></trkpt><trkpt lat="55.5989378" lon="49.4937917"><time>2025-05-18T09:21:38.897</time></trkpt><trkpt lat="55.5989137" lon="49.4938845"><time>2025-05-18T09:21:44.913</time></trkpt><trkpt lat="55.5988927" lon="49.4939664"><time>2025-05-18T09:21:48.907</time></trkpt><trkpt lat="55.5988726" lon="49.4940589"><time>2025-05-18T09:21:54.047</time></trkpt><trkpt lat="55.5988514" lon="49.4941394"><time>2025-05-18T09:21:57.927</time></trkpt><trkpt lat="55.5988350" lon="49.4942179"><time>2025-05-18T09:22:01.913</time></trkpt><trkpt lat="55.5988130" lon="49.4943075"><time>2025-05-18T09:22:07.920</time></trkpt><trkpt lat="55.5987642" lon="49.4943403"><time>2025-05-18T09:22:13.033</time></trkpt><trkpt lat="55.5987159" lon="49.4943715"><time>2025-05-18T09:22:18.023</time></trkpt><trkpt lat="55.5986763" lon="49.4944120"><time>2025-05-18T09:22:22.927</time></trkpt><trkpt lat="55.5986309" lon="49.4944202"><time>2025-05-18T09:22:26.933</time></trkpt><trkpt lat="55.5985812" lon="49.4943868"><time>2025-05-18T09:22:34.043</time></trkpt><trkpt lat="55.5985467" lon="49.4944601"><time>2025-05-18T09:22:44.020</time></trkpt><trkpt lat="55.5985171" lon="49.4945343"><time>2025-05-18T09:22:51.033</time></trkpt><trkpt lat="55.5985256" lon="49.4946135"><time>2025-05-18T09:22:56.927</time></trkpt><trkpt lat="55.5985074" lon="49.4947384"><time>2025-05-18T09:23:04.920</time></trkpt><trkpt lat="55.5985105" lon="49.4948272"><time>2025-05-18T09:23:09.017</time></trkpt><trkpt lat="55.5985184" lon="49.4949218"><time>2025-05-18T09:23:13.907</time></trkpt><trkpt lat="55.5985202" lon="49.4950099"><time>2025-05-18T09:23:17.917</time></trkpt><trkpt lat="55.5985236" lon="49.4950998"><time>2025-05-18T09:23:21.907</time></trkpt><trkpt lat="55.5985150" lon="49.4951982"><time>2025-05-18T09:23:26.027</time></trkpt><trkpt lat="55.5985231" lon="49.4952979"><time>2025-05-18T09:23:29.037</time></trkpt><trkpt lat="55.5985136" lon="49.4953984"><time>2025-05-18T09:23:31.917</time></trkpt><trkpt lat="55.5984957" lon="49.4954881"><time>2025-05-18T09:23:36.900</time></trkpt><trkpt lat="55.5984849" lon="49.4955872"><time>2025-05-18T09:23:40.917</time></trkpt><trkpt lat="55.5985003" lon="49.4956672"><time>2025-05-18T09:23:46.030</time></trkpt><trkpt lat="55.5985018" lon="49.4957690"><time>2025-05-18T09:23:51.043</time></trkpt><trkpt lat="55.5984917" lon="49.4958625"><time>2025-05-18T09:23:55.037</time></trkpt><trkpt lat="55.5984982" lon="49.4959415"><time>2025-05-18T09:24:01.050</time></trkpt><trkpt lat="55.5985098" lon="49.4960296"><time>2025-05-18T09:24:06.917</time></trkpt><trkpt lat="55.5985185" lon="49.4961166"><time>2025-05-18T09:24:12.917</time></trkpt><trkpt lat="55.5985391" lon="49.4961816"><time>2025-05-18T09:24:19.693</time></trkpt><trkpt lat="55.5985434" lon="49.4961980"><time>2025-05-18T09:24:24.907</time></trkpt><trkpt lat="55.5985386" lon="49.4963060"><time>2025-05-18T09:24:49.930</time></trkpt><trkpt lat="55.5985062" lon="49.4962379"><time>2025-05-18T09:25:36.917</time></trkpt><trkpt lat="55.5984941" lon="49.4963264"><time>2025-05-18T09:25:55.053</time></trkpt><trkpt lat="55.5984666" lon="49.4963982"><time>2025-05-18T09:25:58.913</time></trkpt><trkpt lat="55.5984465" lon="49.4964827"><time>2025-05-18T09:26:02.923</time></trkpt><trkpt lat="55.5984062" lon="49.4965302"><time>2025-05-18T09:26:07.917</time></trkpt><trkpt lat="55.5983637" lon="49.4965899"><time>2025-05-18T09:26:11.920</time></trkpt><trkpt lat="55.5983257" lon="49.4966401"><time>2025-05-18T09:26:16.933</time></trkpt><trkpt lat="55.5982776" lon="49.4966742"><time>2025-05-18T09:26:21.917</time></trkpt><trkpt lat="55.5982378" lon="49.4967270"><time>2025-05-18T09:26:26.037</time></trkpt><trkpt lat="55.5981982" lon="49.4967702"><time>2025-05-18T09:26:29.930</time></trkpt><trkpt lat="55.5981485" lon="49.4968009"><time>2025-05-18T09:26:33.937</time></trkpt><trkpt lat="55.5980908" lon="49.4968182"><time>2025-05-18T09:26:41.050</time></trkpt><trkpt lat="55.5980447" lon="49.4968346"><time>2025-05-18T09:26:46.037</time></trkpt><trkpt lat="55.5979982" lon="49.4968418"><time>2025-05-18T09:26:50.187</time></trkpt><trkpt lat="55.5979531" lon="49.4968427"><time>2025-05-18T09:26:53.940</time></trkpt><trkpt lat="55.5978940" lon="49.4968683"><time>2025-05-18T09:27:01.053</time></trkpt><trkpt lat="55.5978466" lon="49.4969053"><time>2025-05-18T09:27:05.137</time></trkpt><trkpt lat="55.5978006" lon="49.4969232"><time>2025-05-18T09:27:10.043</time></trkpt><trkpt lat="55.5977516" lon="49.4969904"><time>2025-05-18T09:27:15.037</time></trkpt><trkpt lat="55.5977223" lon="49.4970640"><time>2025-05-18T09:27:20.037</time></trkpt><trkpt lat="55.5976686" lon="49.4971044"><time>2025-05-18T09:27:24.057</time></trkpt><trkpt lat="55.5976136" lon="49.4971821"><time>2025-05-18T09:27:31.037</time></trkpt><trkpt lat="55.5975705" lon="49.4972344"><time>2025-05-18T09:27:35.047</time></trkpt><trkpt lat="55.5975322" lon="49.4972977"><time>2025-05-18T09:27:39.017</time></trkpt><trkpt lat="55.5974949" lon="49.4973539"><time>2025-05-18T09:27:42.930</time></trkpt><trkpt lat="55.5974359" lon="49.4973933"><time>2025-05-18T09:27:50.040</time></trkpt><trkpt lat="55.5973922" lon="49.4974451"><time>2025-05-18T09:27:59.053</time></trkpt><trkpt lat="55.5973401" lon="49.4974971"><time>2025-05-18T09:28:02.937</time></trkpt><trkpt lat="55.5972886" lon="49.4975695"><time>2025-05-18T09:28:09.907</time></trkpt><trkpt lat="55.5972628" lon="49.4976370"><time>2025-05-18T09:28:15.050</time></trkpt><trkpt lat="55.5972336" lon="49.4977019"><time>2025-05-18T09:28:17.897</time></trkpt><trkpt lat="55.5971989" lon="49.4977692"><time>2025-05-18T09:28:21.060</time></trkpt><trkpt lat="55.5971701" lon="49.4978341"><time>2025-05-18T09:28:23.910</time></trkpt><trkpt lat="55.5971418" lon="49.4978989"><time>2025-05-18T09:28:30.047</time></trkpt><trkpt lat="55.5970906" lon="49.4979309"><time>2025-05-18T09:28:36.930</time></trkpt><trkpt lat="55.5970474" lon="49.4979822"><time>2025-05-18T09:28:41.100</time></trkpt><trkpt lat="55.5970088" lon="49.4980674"><time>2025-05-18T09:28:46.927</time></trkpt><trkpt lat="55.5969787" lon="49.4981514"><time>2025-05-18T09:28:50.043</time></trkpt><trkpt lat="55.5969435" lon="49.4982364"><time>2025-05-18T09:28:53.967</time></trkpt><trkpt lat="55.5969267" lon="49.4983281"><time>2025-05-18T09:28:57.923</time></trkpt><trkpt lat="55.5969094" lon="49.4984286"><time>2025-05-18T09:29:02.943</time></trkpt><trkpt lat="55.5968617" lon="49.4984630"><time>2025-05-18T09:29:06.953</time></trkpt><trkpt lat="55.5968125" lon="49.4984929"><time>2025-05-18T09:29:11.037</time></trkpt><trkpt lat="55.5967720" lon="49.4985451"><time>2025-05-18T09:29:19.057</time></trkpt><trkpt lat="55.5967203" lon="49.4985801"><time>2025-05-18T09:29:22.933</time></trkpt><trkpt lat="55.5966700" lon="49.4986313"><time>2025-05-18T09:29:26.913</time></trkpt><trkpt lat="55.5966181" lon="49.4986930"><time>2025-05-18T09:29:32.937</time></trkpt><trkpt lat="55.5965778" lon="49.4987321"><time>2025-05-18T09:29:37.930</time></trkpt><trkpt lat="55.5965459" lon="49.4987995"><time>2025-05-18T09:29:41.917</time></trkpt><trkpt lat="55.5965173" lon="49.4988667"><time>2025-05-18T09:29:46.937</time></trkpt><trkpt lat="55.5964696" lon="49.4989367"><time>2025-05-18T09:29:51.050</time></trkpt><trkpt lat="55.5964200" lon="49.4989646"><time>2025-05-18T09:29:53.933</time></trkpt><trkpt lat="55.5963771" lon="49.4990056"><time>2025-05-18T09:29:57.933</time></trkpt><trkpt lat="55.5963478" lon="49.4990727"><time>2025-05-18T09:30:02.937</time></trkpt><trkpt lat="55.5963069" lon="49.4991480"><time>2025-05-18T09:30:08.923</time></trkpt><trkpt lat="55.5962634" lon="49.4991881"><time>2025-05-18T09:30:12.927</time></trkpt><trkpt lat="55.5962148" lon="49.4992066"><time>2025-05-18T09:30:16.043</time></trkpt><trkpt lat="55.5961611" lon="49.4992359"><time>2025-05-18T09:30:21.047</time></trkpt><trkpt lat="55.5961147" lon="49.4992830"><time>2025-05-18T09:30:25.930</time></trkpt><trkpt lat="55.5960686" lon="49.4993326"><time>2025-05-18T09:30:33.927</time></trkpt><trkpt lat="55.5960172" lon="49.4993749"><time>2025-05-18T09:30:37.923</time></trkpt><trkpt lat="55.5959709" lon="49.4994085"><time>2025-05-18T09:30:40.953</time></trkpt><trkpt lat="55.5959255" lon="49.4994249"><time>2025-05-18T09:30:43.907</time></trkpt><trkpt lat="55.5958758" lon="49.4994321"><time>2025-05-18T09:30:48.940</time></trkpt><trkpt lat="55.5958235" lon="49.4994428"><time>2025-05-18T09:30:53.927</time></trkpt><trkpt lat="55.5957770" lon="49.4994700"><time>2025-05-18T09:30:58.933</time></trkpt><trkpt lat="55.5957278" lon="49.4995223"><time>2025-05-18T09:31:01.923</time></trkpt><trkpt lat="55.5956813" lon="49.4995661"><time>2025-05-18T09:31:04.893</time></trkpt><trkpt lat="55.5956439" lon="49.4996257"><time>2025-05-18T09:31:08.893</time></trkpt><trkpt lat="55.5955956" lon="49.4996788"><time>2025-05-18T09:31:13.920</time></trkpt><trkpt lat="55.5955516" lon="49.4997457"><time>2025-05-18T09:31:20.927</time></trkpt><trkpt lat="55.5955115" lon="49.4997841"><time>2025-05-18T09:31:25.933</time></trkpt><trkpt lat="55.5954596" lon="49.4998223"><time>2025-05-18T09:31:29.927</time></trkpt><trkpt lat="55.5954121" lon="49.4998870"><time>2025-05-18T09:31:36.910</time></trkpt><trkpt lat="55.5953763" lon="49.4999459"><time>2025-05-18T09:31:41.037</time></trkpt><trkpt lat="55.5953281" lon="49.4999792"><time>2025-05-18T09:31:43.943</time></trkpt><trkpt lat="55.5952884" lon="49.5000205"><time>2025-05-18T09:31:49.927</time></trkpt><trkpt lat="55.5952516" lon="49.5000891"><time>2025-05-18T09:31:54.913</time></trkpt><trkpt lat="55.5952151" lon="49.5001868"><time>2025-05-18T09:32:01.923</time></trkpt><trkpt lat="55.5951633" lon="49.5002369"><time>2025-05-18T09:32:05.923</time></trkpt><trkpt lat="55.5951187" lon="49.5003021"><time>2025-05-18T09:32:10.927</time></trkpt><trkpt lat="55.5950745" lon="49.5003423"><time>2025-05-18T09:32:18.037</time></trkpt><trkpt lat="55.5950188" lon="49.5003614"><time>2025-05-18T09:32:22.940</time></trkpt><trkpt lat="55.5949699" lon="49.5003920"><time>2025-05-18T09:32:26.927</time></trkpt><trkpt lat="55.5949189" lon="49.5003836"><time>2025-05-18T09:32:31.927</time></trkpt><trkpt lat="55.5948833" lon="49.5004395"><time>2025-05-18T09:32:37.977</time></trkpt><trkpt lat="55.5948361" lon="49.5004499"><time>2025-05-18T09:32:42.933</time></trkpt><trkpt lat="55.5947940" lon="49.5005078"><time>2025-05-18T09:32:49.047</time></trkpt><trkpt lat="55.5947580" lon="49.5005595"><time>2025-05-18T09:32:55.047</time></trkpt><trkpt lat="55.5947359" lon="49.5006441"><time>2025-05-18T09:33:00.933</time></trkpt><trkpt lat="55.5947038" lon="49.5007304"><time>2025-05-18T09:33:05.933</time></trkpt><trkpt lat="55.5946888" lon="49.5008209"><time>2025-05-18T09:33:11.053</time></trkpt><trkpt lat="55.5946936" lon="49.5009064"><time>2025-05-18T09:33:15.947</time></trkpt><trkpt lat="55.5946922" lon="49.5009921"><time>2025-05-18T09:33:20.933</time></trkpt><trkpt lat="55.5946827" lon="49.5010776"><time>2025-05-18T09:33:24.937</time></trkpt><trkpt lat="55.5946822" lon="49.5011748"><time>2025-05-18T09:33:28.923</time></trkpt><trkpt lat="55.5946813" lon="49.5012645"><time>2025-05-18T09:33:31.907</time></trkpt><trkpt lat="55.5946570" lon="49.5013832"><time>2025-05-18T09:33:38.947</time></trkpt><trkpt lat="55.5946405" lon="49.5015010"><time>2025-05-18T09:33:44.933</time></trkpt><trkpt lat="55.5946425" lon="49.5015811"><time>2025-05-18T09:33:47.937</time></trkpt><trkpt lat="55.5946313" lon="49.5016676"><time>2025-05-18T09:33:50.937</time></trkpt><trkpt lat="55.5946273" lon="49.5017707"><time>2025-05-18T09:33:54.933</time></trkpt><trkpt lat="55.5946203" lon="49.5018663"><time>2025-05-18T09:33:57.910</time></trkpt><trkpt lat="55.5946033" lon="49.5019692"><time>2025-05-18T09:34:01.917</time></trkpt><trkpt lat="55.5945988" lon="49.5020582"><time>2025-05-18T09:34:05.937</time></trkpt><trkpt lat="55.5946018" lon="49.5021639"><time>2025-05-18T09:34:09.937</time></trkpt><trkpt lat="55.5945864" lon="49.5022571"><time>2025-05-18T09:34:13.990</time></trkpt><trkpt lat="55.5945693" lon="49.5023393"><time>2025-05-18T09:34:16.910</time></trkpt><trkpt lat="55.5945507" lon="49.5024343"><time>2025-05-18T09:34:20.937</time></trkpt><trkpt lat="55.5945495" lon="49.5025328"><time>2025-05-18T09:34:25.903</time></trkpt><trkpt lat="55.5945441" lon="49.5026270"><time>2025-05-18T09:34:30.910</time></trkpt><trkpt lat="55.5945371" lon="49.5027062"><time>2025-05-18T09:34:34.927</time></trkpt><trkpt lat="55.5945329" lon="49.5028078"><time>2025-05-18T09:34:38.913</time></trkpt><trkpt lat="55.5945469" lon="49.5028962"><time>2025-05-18T09:34:42.917</time></trkpt><trkpt lat="55.5945287" lon="49.5029718"><time>2025-05-18T09:34:46.920</time></trkpt><trkpt lat="55.5945134" lon="49.5030484"><time>2025-05-18T09:34:52.907</time></trkpt><trkpt lat="55.5945006" lon="49.5031296"><time>2025-05-18T09:34:56.910</time></trkpt><trkpt lat="55.5945026" lon="49.5032279"><time>2025-05-18T09:35:02.893</time></trkpt><trkpt lat="55.5945020" lon="49.5033601"><time>2025-05-18T09:35:08.907</time></trkpt><trkpt lat="55.5945051" lon="49.5034564"><time>2025-05-18T09:35:11.920</time></trkpt><trkpt lat="55.5944901" lon="49.5035493"><time>2025-05-18T09:35:15.910</time></trkpt><trkpt lat="55.5944759" lon="49.5036543"><time>2025-05-18T09:35:18.907</time></trkpt><trkpt lat="55.5944736" lon="49.5037395"><time>2025-05-18T09:35:20.927</time></trkpt><trkpt lat="55.5944705" lon="49.5038209"><time>2025-05-18T09:35:22.923</time></trkpt><trkpt lat="55.5944602" lon="49.5039336"><time>2025-05-18T09:35:25.907</time></trkpt><trkpt lat="55.5944456" lon="49.5040453"><time>2025-05-18T09:35:28.920</time></trkpt><trkpt lat="55.5944266" lon="49.5041427"><time>2025-05-18T09:35:31.907</time></trkpt><trkpt lat="55.5944094" lon="49.5042407"><time>2025-05-18T09:35:35.927</time></trkpt><trkpt lat="55.5943987" lon="49.5043296"><time>2025-05-18T09:35:40.933</time></trkpt><trkpt lat="55.5943920" lon="49.5044090"><time>2025-05-18T09:35:44.950</time></trkpt><trkpt lat="55.5943867" lon="49.5045206"><time>2025-05-18T09:35:49.930</time></trkpt><trkpt lat="55.5943892" lon="49.5046284"><time>2025-05-18T09:35:53.923</time></trkpt><trkpt lat="55.5943956" lon="49.5047231"><time>2025-05-18T09:35:56.933</time></trkpt><trkpt lat="55.5943861" lon="49.5048028"><time>2025-05-18T09:35:59.910</time></trkpt><trkpt lat="55.5943619" lon="49.5048728"><time>2025-05-18T09:36:03.907</time></trkpt><trkpt lat="55.5943600" lon="49.5049837"><time>2025-05-18T09:36:08.910</time></trkpt><trkpt lat="55.5943607" lon="49.5050796"><time>2025-05-18T09:36:11.937</time></trkpt><trkpt lat="55.5943519" lon="49.5051747"><time>2025-05-18T09:36:15.930</time></trkpt><trkpt lat="55.5943536" lon="49.5052721"><time>2025-05-18T09:36:19.943</time></trkpt><trkpt lat="55.5943374" lon="49.5053509"><time>2025-05-18T09:36:23.937</time></trkpt><trkpt lat="55.5943324" lon="49.5054396"><time>2025-05-18T09:36:26.920</time></trkpt><trkpt lat="55.5943205" lon="49.5055394"><time>2025-05-18T09:36:30.933</time></trkpt><trkpt lat="55.5943026" lon="49.5056453"><time>2025-05-18T09:36:34.903</time></trkpt><trkpt lat="55.5942942" lon="49.5057418"><time>2025-05-18T09:36:38.937</time></trkpt><trkpt lat="55.5942821" lon="49.5058324"><time>2025-05-18T09:36:43.927</time></trkpt><trkpt lat="55.5942873" lon="49.5059205"><time>2025-05-18T09:36:46.930</time></trkpt><trkpt lat="55.5943038" lon="49.5059953"><time>2025-05-18T09:36:49.937</time></trkpt><trkpt lat="55.5943203" lon="49.5060712"><time>2025-05-18T09:36:52.937</time></trkpt><trkpt lat="55.5943049" lon="49.5061726"><time>2025-05-18T09:36:55.937</time></trkpt><trkpt lat="55.5942925" lon="49.5062501"><time>2025-05-18T09:36:58.923</time></trkpt><trkpt lat="55.5942751" lon="49.5063261"><time>2025-05-18T09:37:01.923</time></trkpt><trkpt lat="55.5942718" lon="49.5064092"><time>2025-05-18T09:37:06.077</time></trkpt><trkpt lat="55.5942663" lon="49.5065079"><time>2025-05-18T09:37:10.903</time></trkpt><trkpt lat="55.5942683" lon="49.5066091"><time>2025-05-18T09:37:15.053</time></trkpt><trkpt lat="55.5942724" lon="49.5067109"><time>2025-05-18T09:37:21.050</time></trkpt><trkpt lat="55.5942681" lon="49.5067934"><time>2025-05-18T09:37:24.943</time></trkpt><trkpt lat="55.5942509" lon="49.5068680"><time>2025-05-18T09:37:28.907</time></trkpt><trkpt lat="55.5942460" lon="49.5069766"><time>2025-05-18T09:37:36.027</time></trkpt><trkpt lat="55.5942366" lon="49.5070633"><time>2025-05-18T09:37:40.053</time></trkpt><trkpt lat="55.5942365" lon="49.5071496"><time>2025-05-18T09:37:46.077</time></trkpt><trkpt lat="55.5942373" lon="49.5072371"><time>2025-05-18T09:37:50.927</time></trkpt><trkpt lat="55.5942278" lon="49.5073290"><time>2025-05-18T09:37:55.977</time></trkpt><trkpt lat="55.5942171" lon="49.5074163"><time>2025-05-18T09:37:58.927</time></trkpt><trkpt lat="55.5941962" lon="49.5075001"><time>2025-05-18T09:38:04.113</time></trkpt><trkpt lat="55.5941895" lon="49.5075802"><time>2025-05-18T09:38:07.907</time></trkpt><trkpt lat="55.5941896" lon="49.5076665"><time>2025-05-18T09:38:10.923</time></trkpt><trkpt lat="55.5941757" lon="49.5077618"><time>2025-05-18T09:38:14.903</time></trkpt><trkpt lat="55.5941621" lon="49.5078455"><time>2025-05-18T09:38:16.937</time></trkpt><trkpt lat="55.5941499" lon="49.5079228"><time>2025-05-18T09:38:19.063</time></trkpt><trkpt lat="55.5941423" lon="49.5080111"><time>2025-05-18T09:38:21.927</time></trkpt><trkpt lat="55.5941172" lon="49.5081043"><time>2025-05-18T09:38:25.047</time></trkpt><trkpt lat="55.5940814" lon="49.5081580"><time>2025-05-18T09:38:27.930</time></trkpt><trkpt lat="55.5940300" lon="49.5081914"><time>2025-05-18T09:38:30.930</time></trkpt><trkpt lat="55.5939753" lon="49.5082046"><time>2025-05-18T09:38:33.923</time></trkpt><trkpt lat="55.5939220" lon="49.5082371"><time>2025-05-18T09:38:36.913</time></trkpt><trkpt lat="55.5938760" lon="49.5082358"><time>2025-05-18T09:38:39.940</time></trkpt><trkpt lat="55.5938262" lon="49.5082241"><time>2025-05-18T09:38:43.923</time></trkpt><trkpt lat="55.5937741" lon="49.5082353"><time>2025-05-18T09:38:47.937</time></trkpt><trkpt lat="55.5937298" lon="49.5082209"><time>2025-05-18T09:38:51.927</time></trkpt><trkpt lat="55.5936854" lon="49.5081873"><time>2025-05-18T09:38:55.047</time></trkpt><trkpt lat="55.5936334" lon="49.5081992"><time>2025-05-18T09:39:00.197</time></trkpt><trkpt lat="55.5935981" lon="49.5082504"><time>2025-05-18T09:39:05.940</time></trkpt><trkpt lat="55.5935337" lon="49.5083036"><time>2025-05-18T09:39:18.943</time></trkpt><trkpt lat="55.5934888" lon="49.5083594"><time>2025-05-18T09:39:22.933</time></trkpt><trkpt lat="55.5934584" lon="49.5084293"><time>2025-05-18T09:39:28.057</time></trkpt><trkpt lat="55.5934268" lon="49.5085048"><time>2025-05-18T09:39:31.923</time></trkpt><trkpt lat="55.5933911" lon="49.5085610"><time>2025-05-18T09:39:35.967</time></trkpt><trkpt lat="55.5933374" lon="49.5086025"><time>2025-05-18T09:39:39.917</time></trkpt><trkpt lat="55.5932923" lon="49.5086358"><time>2025-05-18T09:39:44.047</time></trkpt><trkpt lat="55.5932496" lon="49.5086755"><time>2025-05-18T09:39:47.937</time></trkpt><trkpt lat="55.5932006" lon="49.5086795"><time>2025-05-18T09:39:51.927</time></trkpt><trkpt lat="55.5931556" lon="49.5086867"><time>2025-05-18T09:39:55.937</time></trkpt><trkpt lat="55.5931062" lon="49.5086634"><time>2025-05-18T09:40:08.917</time></trkpt><trkpt lat="55.5930610" lon="49.5086893"><time>2025-05-18T09:40:20.907</time></trkpt><trkpt lat="55.5930165" lon="49.5087120"><time>2025-05-18T09:40:25.097</time></trkpt><trkpt lat="55.5929639" lon="49.5087297"><time>2025-05-18T09:40:29.907</time></trkpt><trkpt lat="55.5929099" lon="49.5087504"><time>2025-05-18T09:40:33.917</time></trkpt><trkpt lat="55.5928621" lon="49.5087775"><time>2025-05-18T09:40:38.910</time></trkpt><trkpt lat="55.5928101" lon="49.5088011"><time>2025-05-18T09:40:42.917</time></trkpt><trkpt lat="55.5927648" lon="49.5088265"><time>2025-05-18T09:40:45.917</time></trkpt><trkpt lat="55.5927210" lon="49.5088694"><time>2025-05-18T09:40:49.920</time></trkpt><trkpt lat="55.5926730" lon="49.5089162"><time>2025-05-18T09:40:53.913</time></trkpt><trkpt lat="55.5926235" lon="49.5089531"><time>2025-05-18T09:40:57.927</time></trkpt><trkpt lat="55.5925768" lon="49.5089690"><time>2025-05-18T09:41:01.053</time></trkpt><trkpt lat="55.5925227" lon="49.5090000"><time>2025-05-18T09:41:06.930</time></trkpt><trkpt lat="55.5924740" lon="49.5090086"><time>2025-05-18T09:41:09.923</time></trkpt><trkpt lat="55.5924292" lon="49.5090342"><time>2025-05-18T09:41:13.927</time></trkpt><trkpt lat="55.5923776" lon="49.5090626"><time>2025-05-18T09:41:17.937</time></trkpt><trkpt lat="55.5923305" lon="49.5091114"><time>2025-05-18T09:41:21.930</time></trkpt><trkpt lat="55.5922839" lon="49.5091583"><time>2025-05-18T09:41:25.920</time></trkpt><trkpt lat="55.5922355" lon="49.5091939"><time>2025-05-18T09:41:29.920</time></trkpt><trkpt lat="55.5921892" lon="49.5092586"><time>2025-05-18T09:41:34.940</time></trkpt><trkpt lat="55.5921397" lon="49.5093064"><time>2025-05-18T09:41:39.043</time></trkpt><trkpt lat="55.5920940" lon="49.5093504"><time>2025-05-18T09:41:42.930</time></trkpt><trkpt lat="55.5920486" lon="49.5093835"><time>2025-05-18T09:41:46.933</time></trkpt><trkpt lat="55.5919996" lon="49.5094240"><time>2025-05-18T09:41:51.933</time></trkpt><trkpt lat="55.5919483" lon="49.5094378"><time>2025-05-18T09:41:56.040</time></trkpt><trkpt lat="55.5919024" lon="49.5094595"><time>2025-05-18T09:41:59.917</time></trkpt><trkpt lat="55.5918506" lon="49.5094542"><time>2025-05-18T09:42:04.937</time></trkpt><trkpt lat="55.5918015" lon="49.5094639"><time>2025-05-18T09:42:09.207</time></trkpt><trkpt lat="55.5917556" lon="49.5094663"><time>2025-05-18T09:42:12.997</time></trkpt><trkpt lat="55.5917028" lon="49.5094886"><time>2025-05-18T09:42:16.037</time></trkpt><trkpt lat="55.5916562" lon="49.5095247"><time>2025-05-18T09:42:18.953</time></trkpt><trkpt lat="55.5916100" lon="49.5095488"><time>2025-05-18T09:42:22.927</time></trkpt><trkpt lat="55.5915616" lon="49.5095833"><time>2025-05-18T09:42:28.047</time></trkpt><trkpt lat="55.5915177" lon="49.5096439"><time>2025-05-18T09:42:31.907</time></trkpt><trkpt lat="55.5914807" lon="49.5096901"><time>2025-05-18T09:42:35.033</time></trkpt><trkpt lat="55.5914453" lon="49.5097407"><time>2025-05-18T09:42:39.020</time></trkpt><trkpt lat="55.5913936" lon="49.5097811"><time>2025-05-18T09:42:42.997</time></trkpt><trkpt lat="55.5913439" lon="49.5098218"><time>2025-05-18T09:42:46.980</time></trkpt><trkpt lat="55.5912988" lon="49.5098517"><time>2025-05-18T09:42:50.987</time></trkpt><trkpt lat="55.5912568" lon="49.5098839"><time>2025-05-18T09:42:55.977</time></trkpt><trkpt lat="55.5912146" lon="49.5099287"><time>2025-05-18T09:42:59.157</time></trkpt><trkpt lat="55.5911594" lon="49.5099701"><time>2025-05-18T09:43:02.967</time></trkpt><trkpt lat="55.5911179" lon="49.5100018"><time>2025-05-18T09:43:06.983</time></trkpt><trkpt lat="55.5910726" lon="49.5100558"><time>2025-05-18T09:43:11.970</time></trkpt><trkpt lat="55.5910320" lon="49.5100972"><time>2025-05-18T09:43:16.163</time></trkpt><trkpt lat="55.5909932" lon="49.5101633"><time>2025-05-18T09:43:21.207</time></trkpt><trkpt lat="55.5909467" lon="49.5102283"><time>2025-05-18T09:43:25.190</time></trkpt><trkpt lat="55.5909021" lon="49.5102817"><time>2025-05-18T09:43:29.157</time></trkpt><trkpt lat="55.5908539" lon="49.5103392"><time>2025-05-18T09:43:32.940</time></trkpt><trkpt lat="55.5908097" lon="49.5103756"><time>2025-05-18T09:43:36.287</time></trkpt><trkpt lat="55.5907546" lon="49.5104222"><time>2025-05-18T09:43:39.990</time></trkpt><trkpt lat="55.5907092" lon="49.5104769"><time>2025-05-18T09:43:42.963</time></trkpt><trkpt lat="55.5906543" lon="49.5105258"><time>2025-05-18T09:43:46.153</time></trkpt><trkpt lat="55.5906090" lon="49.5105587"><time>2025-05-18T09:43:49.183</time></trkpt><trkpt lat="55.5905629" lon="49.5106060"><time>2025-05-18T09:43:54.180</time></trkpt><trkpt lat="55.5905178" lon="49.5106689"><time>2025-05-18T09:43:57.990</time></trkpt><trkpt lat="55.5904616" lon="49.5107041"><time>2025-05-18T09:44:02.963</time></trkpt><trkpt lat="55.5904134" lon="49.5107524"><time>2025-05-18T09:44:06.963</time></trkpt><trkpt lat="55.5903720" lon="49.5108028"><time>2025-05-18T09:44:12.973</time></trkpt><trkpt lat="55.5903246" lon="49.5108553"><time>2025-05-18T09:44:16.973</time></trkpt><trkpt lat="55.5902842" lon="49.5109033"><time>2025-05-18T09:44:20.157</time></trkpt><trkpt lat="55.5902418" lon="49.5109524"><time>2025-05-18T09:44:22.997</time></trkpt><trkpt lat="55.5901999" lon="49.5109925"><time>2025-05-18T09:44:27.980</time></trkpt><trkpt lat="55.5901711" lon="49.5110725"><time>2025-05-18T09:44:31.997</time></trkpt><trkpt lat="55.5901462" lon="49.5111505"><time>2025-05-18T09:44:35.953</time></trkpt><trkpt lat="55.5901264" lon="49.5112301"><time>2025-05-18T09:44:39.990</time></trkpt><trkpt lat="55.5900957" lon="49.5113075"><time>2025-05-18T09:44:44.150</time></trkpt><trkpt lat="55.5900812" lon="49.5113833"><time>2025-05-18T09:44:47.977</time></trkpt><trkpt lat="55.5900638" lon="49.5114820"><time>2025-05-18T09:44:51.957</time></trkpt><trkpt lat="55.5900668" lon="49.5115822"><time>2025-05-18T09:44:55.980</time></trkpt><trkpt lat="55.5900682" lon="49.5116636"><time>2025-05-18T09:45:00.997</time></trkpt><trkpt lat="55.5900497" lon="49.5117367"><time>2025-05-18T09:45:04.927</time></trkpt><trkpt lat="55.5900194" lon="49.5118139"><time>2025-05-18T09:45:09.917</time></trkpt><trkpt lat="55.5899971" lon="49.5118928"><time>2025-05-18T09:45:13.933</time></trkpt><trkpt lat="55.5899670" lon="49.5119750"><time>2025-05-18T09:45:18.930</time></trkpt><trkpt lat="55.5899375" lon="49.5120428"><time>2025-05-18T09:45:31.927</time></trkpt><trkpt lat="55.5899745" lon="49.5119908"><time>2025-05-18T09:46:03.910</time></trkpt><trkpt lat="55.5899277" lon="49.5120567"><time>2025-05-18T09:46:08.927</time></trkpt><trkpt lat="55.5898947" lon="49.5121377"><time>2025-05-18T09:46:13.203</time></trkpt><trkpt lat="55.5898526" lon="49.5121891"><time>2025-05-18T09:46:15.940</time></trkpt><trkpt lat="55.5898144" lon="49.5122565"><time>2025-05-18T09:46:19.893</time></trkpt><trkpt lat="55.5897719" lon="49.5123125"><time>2025-05-18T09:46:23.900</time></trkpt><trkpt lat="55.5897451" lon="49.5123793"><time>2025-05-18T09:46:27.927</time></trkpt><trkpt lat="55.5897087" lon="49.5124590"><time>2025-05-18T09:46:32.933</time></trkpt><trkpt lat="55.5896841" lon="49.5125352"><time>2025-05-18T09:46:36.913</time></trkpt><trkpt lat="55.5896635" lon="49.5126261"><time>2025-05-18T09:46:41.043</time></trkpt><trkpt lat="55.5896499" lon="49.5127311"><time>2025-05-18T09:46:44.913</time></trkpt><trkpt lat="55.5896318" lon="49.5128233"><time>2025-05-18T09:46:50</time></trkpt><trkpt lat="55.5896081" lon="49.5128965"><time>2025-05-18T09:46:54.127</time></trkpt><trkpt lat="55.5895774" lon="49.5129730"><time>2025-05-18T09:46:56.917</time></trkpt><trkpt lat="55.5895581" lon="49.5130664"><time>2025-05-18T09:47:03.037</time></trkpt><trkpt lat="55.5895461" lon="49.5131661"><time>2025-05-18T09:47:07.977</time></trkpt><trkpt lat="55.5895441" lon="49.5132499"><time>2025-05-18T09:47:11.970</time></trkpt><trkpt lat="55.5895474" lon="49.5133460"><time>2025-05-18T09:47:16.987</time></trkpt><trkpt lat="55.5895579" lon="49.5134236"><time>2025-05-18T09:47:20.027</time></trkpt><trkpt lat="55.5895667" lon="49.5135046"><time>2025-05-18T09:47:22.987</time></trkpt><trkpt lat="55.5895749" lon="49.5135865"><time>2025-05-18T09:47:26.910</time></trkpt><trkpt lat="55.5895800" lon="49.5136787"><time>2025-05-18T09:47:31.917</time></trkpt><trkpt lat="55.5895696" lon="49.5137772"><time>2025-05-18T09:47:36.950</time></trkpt><trkpt lat="55.5895611" lon="49.5138647"><time>2025-05-18T09:47:41.923</time></trkpt><trkpt lat="55.5895321" lon="49.5139599"><time>2025-05-18T09:47:45.917</time></trkpt><trkpt lat="55.5895070" lon="49.5140265"><time>2025-05-18T09:47:49.047</time></trkpt><trkpt lat="55.5894916" lon="49.5141149"><time>2025-05-18T09:47:51.933</time></trkpt><trkpt lat="55.5894904" lon="49.5142304"><time>2025-05-18T09:47:54.930</time></trkpt><trkpt lat="55.5894925" lon="49.5143413"><time>2025-05-18T09:47:57.933</time></trkpt><trkpt lat="55.5894810" lon="49.5144548"><time>2025-05-18T09:48:00.950</time></trkpt><trkpt lat="55.5894421" lon="49.5145411"><time>2025-05-18T09:48:03.947</time></trkpt><trkpt lat="55.5893966" lon="49.5145876"><time>2025-05-18T09:48:08.943</time></trkpt><trkpt lat="55.5893539" lon="49.5146558"><time>2025-05-18T09:48:12.937</time></trkpt><trkpt lat="55.5893241" lon="49.5147188"><time>2025-05-18T09:48:15.930</time></trkpt><trkpt lat="55.5893039" lon="49.5147949"><time>2025-05-18T09:48:18.950</time></trkpt><trkpt lat="55.5892979" lon="49.5148841"><time>2025-05-18T09:48:21.937</time></trkpt><trkpt lat="55.5892906" lon="49.5149805"><time>2025-05-18T09:48:25.900</time></trkpt><trkpt lat="55.5892845" lon="49.5150591"><time>2025-05-18T09:48:29.967</time></trkpt><trkpt lat="55.5893085" lon="49.5151469"><time>2025-05-18T09:48:36.920</time></trkpt><trkpt lat="55.5893185" lon="49.5151531"><time>2025-05-18T09:48:52.763</time></trkpt><trkpt lat="55.5893607" lon="49.5151475"><time>2025-05-18T09:48:58.950</time></trkpt><trkpt lat="55.5894179" lon="49.5151255"><time>2025-05-18T09:49:02.953</time></trkpt><trkpt lat="55.5894701" lon="49.5151186"><time>2025-05-18T09:49:06.927</time></trkpt><trkpt lat="55.5895203" lon="49.5150989"><time>2025-05-18T09:49:11.943</time></trkpt><trkpt lat="55.5895689" lon="49.5150945"><time>2025-05-18T09:49:15.927</time></trkpt><trkpt lat="55.5896226" lon="49.5150853"><time>2025-05-18T09:49:24.947</time></trkpt><trkpt lat="55.5896665" lon="49.5150587"><time>2025-05-18T09:49:28.923</time></trkpt><trkpt lat="55.5897209" lon="49.5150717"><time>2025-05-18T09:49:34.217</time></trkpt><trkpt lat="55.5897644" lon="49.5150434"><time>2025-05-18T09:49:35.987</time></trkpt><trkpt lat="55.5898088" lon="49.5150147"><time>2025-05-18T09:49:46.937</time></trkpt><trkpt lat="55.5898579" lon="49.5150044"><time>2025-05-18T09:49:51.053</time></trkpt><trkpt lat="55.5899086" lon="49.5149732"><time>2025-05-18T09:49:56.177</time></trkpt><trkpt lat="55.5899620" lon="49.5149543"><time>2025-05-18T09:50:00.077</time></trkpt><trkpt lat="55.5900201" lon="49.5149396"><time>2025-05-18T09:50:04.933</time></trkpt><trkpt lat="55.5900655" lon="49.5149181"><time>2025-05-18T09:50:07.930</time></trkpt><trkpt lat="55.5901176" lon="49.5148994"><time>2025-05-18T09:50:12.963</time></trkpt><trkpt lat="55.5901729" lon="49.5149013"><time>2025-05-18T09:50:17.960</time></trkpt><trkpt lat="55.5902199" lon="49.5149163"><time>2025-05-18T09:50:21.937</time></trkpt><trkpt lat="55.5902745" lon="49.5149263"><time>2025-05-18T09:50:26.947</time></trkpt><trkpt lat="55.5903243" lon="49.5149175"><time>2025-05-18T09:50:31.063</time></trkpt><trkpt lat="55.5903854" lon="49.5148772"><time>2025-05-18T09:50:35.047</time></trkpt><trkpt lat="55.5904292" lon="49.5148401"><time>2025-05-18T09:50:37.937</time></trkpt><trkpt lat="55.5904708" lon="49.5147993"><time>2025-05-18T09:50:41.957</time></trkpt><trkpt lat="55.5904850" lon="49.5148781"><time>2025-05-18T09:50:45.930</time></trkpt><trkpt lat="55.5904964" lon="49.5149610"><time>2025-05-18T09:50:48.933</time></trkpt><trkpt lat="55.5905008" lon="49.5150624"><time>2025-05-18T09:50:52.920</time></trkpt><trkpt lat="55.5905097" lon="49.5151471"><time>2025-05-18T09:50:56.920</time></trkpt><trkpt lat="55.5905266" lon="49.5152209"><time>2025-05-18T09:50:59.937</time></trkpt><trkpt lat="55.5905391" lon="49.5153090"><time>2025-05-18T09:51:02.993</time></trkpt><trkpt lat="55.5905499" lon="49.5154050"><time>2025-05-18T09:51:06.923</time></trkpt><trkpt lat="55.5905752" lon="49.5155003"><time>2025-05-18T09:51:11.040</time></trkpt><trkpt lat="55.5906013" lon="49.5155762"><time>2025-05-18T09:51:14.913</time></trkpt><trkpt lat="55.5906285" lon="49.5156580"><time>2025-05-18T09:51:18.933</time></trkpt><trkpt lat="55.5906344" lon="49.5157372"><time>2025-05-18T09:51:21.937</time></trkpt><trkpt lat="55.5906694" lon="49.5158069"><time>2025-05-18T09:51:26.147</time></trkpt><trkpt lat="55.5906962" lon="49.5158976"><time>2025-05-18T09:51:30.173</time></trkpt><trkpt lat="55.5907049" lon="49.5159824"><time>2025-05-18T09:51:34.170</time></trkpt><trkpt lat="55.5907293" lon="49.5160634"><time>2025-05-18T09:51:38.177</time></trkpt><trkpt lat="55.5907654" lon="49.5161346"><time>2025-05-18T09:51:42.013</time></trkpt><trkpt lat="55.5908018" lon="49.5161878"><time>2025-05-18T09:51:44.913</time></trkpt><trkpt lat="55.5908349" lon="49.5162493"><time>2025-05-18T09:51:47.937</time></trkpt><trkpt lat="55.5908589" lon="49.5163251"><time>2025-05-18T09:51:50.923</time></trkpt><trkpt lat="55.5908893" lon="49.5163884"><time>2025-05-18T09:51:53.940</time></trkpt><trkpt lat="55.5909059" lon="49.5164637"><time>2025-05-18T09:51:56.937</time></trkpt><trkpt lat="55.5909216" lon="49.5165635"><time>2025-05-18T09:52:01.050</time></trkpt><trkpt lat="55.5909394" lon="49.5166538"><time>2025-05-18T09:52:04.987</time></trkpt><trkpt lat="55.5909528" lon="49.5167365"><time>2025-05-18T09:52:09.240</time></trkpt><trkpt lat="55.5909740" lon="49.5168275"><time>2025-05-18T09:52:13</time></trkpt><trkpt lat="55.5909918" lon="49.5169037"><time>2025-05-18T09:52:16.250</time></trkpt><trkpt lat="55.5910298" lon="49.5169727"><time>2025-05-18T09:52:21.167</time></trkpt><trkpt lat="55.5910501" lon="49.5170539"><time>2025-05-18T09:52:24.033</time></trkpt><trkpt lat="55.5910622" lon="49.5171339"><time>2025-05-18T09:52:26.917</time></trkpt><trkpt lat="55.5910819" lon="49.5172060"><time>2025-05-18T09:52:29.937</time></trkpt><trkpt lat="55.5911053" lon="49.5172964"><time>2025-05-18T09:52:34.050</time></trkpt><trkpt lat="55.5911133" lon="49.5173892"><time>2025-05-18T09:52:39.047</time></trkpt><trkpt lat="55.5911270" lon="49.5174816"><time>2025-05-18T09:52:42.987</time></trkpt><trkpt lat="55.5911354" lon="49.5175768"><time>2025-05-18T09:52:46.940</time></trkpt><trkpt lat="55.5911343" lon="49.5176648"><time>2025-05-18T09:52:50.927</time></trkpt><trkpt lat="55.5911368" lon="49.5177617"><time>2025-05-18T09:52:54.937</time></trkpt><trkpt lat="55.5911455" lon="49.5178472"><time>2025-05-18T09:52:59.043</time></trkpt><trkpt lat="55.5911587" lon="49.5179247"><time>2025-05-18T09:53:01.907</time></trkpt><trkpt lat="55.5911667" lon="49.5180188"><time>2025-05-18T09:53:05.967</time></trkpt><trkpt lat="55.5911738" lon="49.5181181"><time>2025-05-18T09:53:09.983</time></trkpt><trkpt lat="55.5911767" lon="49.5182202"><time>2025-05-18T09:53:13.993</time></trkpt><trkpt lat="55.5911862" lon="49.5183003"><time>2025-05-18T09:53:16.980</time></trkpt><trkpt lat="55.5911928" lon="49.5183931"><time>2025-05-18T09:53:20.990</time></trkpt><trkpt lat="55.5911962" lon="49.5184727"><time>2025-05-18T09:53:24.163</time></trkpt><trkpt lat="55.5912032" lon="49.5185526"><time>2025-05-18T09:53:26.997</time></trkpt><trkpt lat="55.5912161" lon="49.5186573"><time>2025-05-18T09:53:30.997</time></trkpt><trkpt lat="55.5912360" lon="49.5187361"><time>2025-05-18T09:53:34.180</time></trkpt><trkpt lat="55.5912513" lon="49.5188154"><time>2025-05-18T09:53:36.987</time></trkpt><trkpt lat="55.5912800" lon="49.5189039"><time>2025-05-18T09:53:40.997</time></trkpt><trkpt lat="55.5913206" lon="49.5189721"><time>2025-05-18T09:53:45.173</time></trkpt><trkpt lat="55.5913551" lon="49.5190412"><time>2025-05-18T09:53:47.933</time></trkpt><trkpt lat="55.5913944" lon="49.5190838"><time>2025-05-18T09:53:50.973</time></trkpt><trkpt lat="55.5914427" lon="49.5191282"><time>2025-05-18T09:53:55.173</time></trkpt><trkpt lat="55.5914692" lon="49.5191945"><time>2025-05-18T09:53:59.193</time></trkpt><trkpt lat="55.5915000" lon="49.5192616"><time>2025-05-18T09:54:01.927</time></trkpt><trkpt lat="55.5915477" lon="49.5193274"><time>2025-05-18T09:54:06.170</time></trkpt><trkpt lat="55.5915850" lon="49.5193725"><time>2025-05-18T09:54:09.200</time></trkpt><trkpt lat="55.5916282" lon="49.5194165"><time>2025-05-18T09:54:11.947</time></trkpt><trkpt lat="55.5916647" lon="49.5194727"><time>2025-05-18T09:54:15.077</time></trkpt><trkpt lat="55.5917029" lon="49.5195307"><time>2025-05-18T09:54:18.933</time></trkpt><trkpt lat="55.5917386" lon="49.5195946"><time>2025-05-18T09:54:24.943</time></trkpt><trkpt lat="55.5917808" lon="49.5196617"><time>2025-05-18T09:54:29.967</time></trkpt><trkpt lat="55.5918343" lon="49.5197110"><time>2025-05-18T09:54:34.240</time></trkpt><trkpt lat="55.5918704" lon="49.5197618"><time>2025-05-18T09:54:37</time></trkpt><trkpt lat="55.5919067" lon="49.5198187"><time>2025-05-18T09:54:40.923</time></trkpt><trkpt lat="55.5919415" lon="49.5198730"><time>2025-05-18T09:54:44.907</time></trkpt><trkpt lat="55.5919730" lon="49.5199451"><time>2025-05-18T09:54:49.057</time></trkpt><trkpt lat="55.5920069" lon="49.5200047"><time>2025-05-18T09:54:52.943</time></trkpt><trkpt lat="55.5920447" lon="49.5200587"><time>2025-05-18T09:55:00.147</time></trkpt><trkpt lat="55.5920673" lon="49.5201314"><time>2025-05-18T09:55:05.187</time></trkpt><trkpt lat="55.5920837" lon="49.5202232"><time>2025-05-18T09:55:10.180</time></trkpt><trkpt lat="55.5920929" lon="49.5203069"><time>2025-05-18T09:55:14.223</time></trkpt><trkpt lat="55.5921240" lon="49.5203759"><time>2025-05-18T09:55:18.007</time></trkpt><trkpt lat="55.5921672" lon="49.5204183"><time>2025-05-18T09:55:21.297</time></trkpt><trkpt lat="55.5922107" lon="49.5204683"><time>2025-05-18T09:55:34.007</time></trkpt><trkpt lat="55.5922518" lon="49.5205354"><time>2025-05-18T09:55:38.010</time></trkpt><trkpt lat="55.5922874" lon="49.5206056"><time>2025-05-18T09:55:41.983</time></trkpt><trkpt lat="55.5923345" lon="49.5206466"><time>2025-05-18T09:55:46.163</time></trkpt><trkpt lat="55.5923700" lon="49.5207082"><time>2025-05-18T09:55:50.210</time></trkpt><trkpt lat="55.5924149" lon="49.5207677"><time>2025-05-18T09:55:54.160</time></trkpt><trkpt lat="55.5924567" lon="49.5208315"><time>2025-05-18T09:55:57.957</time></trkpt><trkpt lat="55.5925049" lon="49.5209016"><time>2025-05-18T09:56:01.990</time></trkpt><trkpt lat="55.5925543" lon="49.5209557"><time>2025-05-18T09:56:06.183</time></trkpt><trkpt lat="55.5926029" lon="49.5210176"><time>2025-05-18T09:56:10.177</time></trkpt><trkpt lat="55.5926512" lon="49.5210771"><time>2025-05-18T09:56:13.997</time></trkpt><trkpt lat="55.5927006" lon="49.5211275"><time>2025-05-18T09:56:17.937</time></trkpt><trkpt lat="55.5927419" lon="49.5211671"><time>2025-05-18T09:56:20.943</time></trkpt><trkpt lat="55.5927838" lon="49.5212112"><time>2025-05-18T09:56:25.013</time></trkpt><trkpt lat="55.5928279" lon="49.5212660"><time>2025-05-18T09:56:29.047</time></trkpt><trkpt lat="55.5928784" lon="49.5213023"><time>2025-05-18T09:56:33.007</time></trkpt><trkpt lat="55.5929231" lon="49.5213333"><time>2025-05-18T09:56:36.007</time></trkpt><trkpt lat="55.5929684" lon="49.5213768"><time>2025-05-18T09:56:39.967</time></trkpt><trkpt lat="55.5930156" lon="49.5214250"><time>2025-05-18T09:56:43.927</time></trkpt><trkpt lat="55.5930587" lon="49.5214684"><time>2025-05-18T09:56:47.930</time></trkpt><trkpt lat="55.5930944" lon="49.5215168"><time>2025-05-18T09:56:51.003</time></trkpt><trkpt lat="55.5931323" lon="49.5215672"><time>2025-05-18T09:56:54</time></trkpt><trkpt lat="55.5931805" lon="49.5216206"><time>2025-05-18T09:56:57.993</time></trkpt><trkpt lat="55.5932366" lon="49.5216484"><time>2025-05-18T09:57:01.937</time></trkpt><trkpt lat="55.5932849" lon="49.5216789"><time>2025-05-18T09:57:05.933</time></trkpt><trkpt lat="55.5933309" lon="49.5217134"><time>2025-05-18T09:57:11.013</time></trkpt><trkpt lat="55.5933785" lon="49.5217477"><time>2025-05-18T09:57:15.190</time></trkpt><trkpt lat="55.5934326" lon="49.5218088"><time>2025-05-18T09:57:19.183</time></trkpt><trkpt lat="55.5934885" lon="49.5218531"><time>2025-05-18T09:57:23.007</time></trkpt><trkpt lat="55.5935369" lon="49.5218939"><time>2025-05-18T09:57:26.187</time></trkpt><trkpt lat="55.5935771" lon="49.5219400"><time>2025-05-18T09:57:29.183</time></trkpt><trkpt lat="55.5936220" lon="49.5219877"><time>2025-05-18T09:57:32.970</time></trkpt><trkpt lat="55.5936725" lon="49.5220404"><time>2025-05-18T09:57:36.933</time></trkpt><trkpt lat="55.5937257" lon="49.5220803"><time>2025-05-18T09:57:40.990</time></trkpt><trkpt lat="55.5937686" lon="49.5221181"><time>2025-05-18T09:57:45.047</time></trkpt><trkpt lat="55.5938043" lon="49.5221671"><time>2025-05-18T09:57:48.010</time></trkpt><trkpt lat="55.5938463" lon="49.5221995"><time>2025-05-18T09:57:51.990</time></trkpt><trkpt lat="55.5938886" lon="49.5222523"><time>2025-05-18T09:57:56.233</time></trkpt><trkpt lat="55.5939267" lon="49.5223127"><time>2025-05-18T09:58:00.200</time></trkpt><trkpt lat="55.5939683" lon="49.5223825"><time>2025-05-18T09:58:04.190</time></trkpt><trkpt lat="55.5940047" lon="49.5224402"><time>2025-05-18T09:58:07.980</time></trkpt><trkpt lat="55.5940444" lon="49.5224956"><time>2025-05-18T09:58:11.200</time></trkpt><trkpt lat="55.5940868" lon="49.5225427"><time>2025-05-18T09:58:14.997</time></trkpt><trkpt lat="55.5941277" lon="49.5225851"><time>2025-05-18T09:58:18.933</time></trkpt><trkpt lat="55.5941695" lon="49.5226316"><time>2025-05-18T09:58:21.937</time></trkpt><trkpt lat="55.5942206" lon="49.5226764"><time>2025-05-18T09:58:25.953</time></trkpt><trkpt lat="55.5942578" lon="49.5227399"><time>2025-05-18T09:58:30.190</time></trkpt><trkpt lat="55.5942799" lon="49.5228104"><time>2025-05-18T09:58:34.173</time></trkpt><trkpt lat="55.5943092" lon="49.5228857"><time>2025-05-18T09:58:37.987</time></trkpt><trkpt lat="55.5943600" lon="49.5229320"><time>2025-05-18T09:58:41.983</time></trkpt><trkpt lat="55.5944073" lon="49.5229632"><time>2025-05-18T09:58:45.183</time></trkpt><trkpt lat="55.5944604" lon="49.5229801"><time>2025-05-18T09:58:48.993</time></trkpt><trkpt lat="55.5945109" lon="49.5230066"><time>2025-05-18T09:58:52.977</time></trkpt><trkpt lat="55.5945630" lon="49.5230607"><time>2025-05-18T09:58:56.947</time></trkpt><trkpt lat="55.5946128" lon="49.5231189"><time>2025-05-18T09:59:01.187</time></trkpt><trkpt lat="55.5946623" lon="49.5231515"><time>2025-05-18T09:59:03.967</time></trkpt><trkpt lat="55.5947072" lon="49.5231657"><time>2025-05-18T09:59:06.967</time></trkpt><trkpt lat="55.5947540" lon="49.5232119"><time>2025-05-18T09:59:10.967</time></trkpt><trkpt lat="55.5948060" lon="49.5232345"><time>2025-05-18T09:59:14.930</time></trkpt><trkpt lat="55.5948541" lon="49.5232749"><time>2025-05-18T09:59:19.197</time></trkpt><trkpt lat="55.5949057" lon="49.5232895"><time>2025-05-18T09:59:23.007</time></trkpt><trkpt lat="55.5949500" lon="49.5233495"><time>2025-05-18T09:59:28.177</time></trkpt><trkpt lat="55.5949932" lon="49.5233997"><time>2025-05-18T09:59:31.240</time></trkpt><trkpt lat="55.5950341" lon="49.5234402"><time>2025-05-18T09:59:34.180</time></trkpt><trkpt lat="55.5950820" lon="49.5234850"><time>2025-05-18T09:59:38.003</time></trkpt><trkpt lat="55.5951310" lon="49.5235142"><time>2025-05-18T09:59:41.963</time></trkpt><trkpt lat="55.5951746" lon="49.5235375"><time>2025-05-18T09:59:45.237</time></trkpt><trkpt lat="55.5952200" lon="49.5235615"><time>2025-05-18T09:59:47.983</time></trkpt><trkpt lat="55.5952807" lon="49.5235718"><time>2025-05-18T09:59:51.993</time></trkpt><trkpt lat="55.5953268" lon="49.5236061"><time>2025-05-18T09:59:56.207</time></trkpt><trkpt lat="55.5953817" lon="49.5236295"><time>2025-05-18T10:00:00.233</time></trkpt><trkpt lat="55.5954319" lon="49.5236846"><time>2025-05-18T10:00:03.977</time></trkpt><trkpt lat="55.5954790" lon="49.5237332"><time>2025-05-18T10:00:08.007</time></trkpt><trkpt lat="55.5955189" lon="49.5237765"><time>2025-05-18T10:00:10.963</time></trkpt><trkpt lat="55.5955743" lon="49.5238013"><time>2025-05-18T10:00:15.167</time></trkpt><trkpt lat="55.5956185" lon="49.5238426"><time>2025-05-18T10:00:20.163</time></trkpt><trkpt lat="55.5956644" lon="49.5238737"><time>2025-05-18T10:00:24.997</time></trkpt><trkpt lat="55.5957068" lon="49.5239119"><time>2025-05-18T10:00:29.183</time></trkpt><trkpt lat="55.5957513" lon="49.5239640"><time>2025-05-18T10:00:33.010</time></trkpt><trkpt lat="55.5958032" lon="49.5239993"><time>2025-05-18T10:00:36.990</time></trkpt><trkpt lat="55.5958501" lon="49.5240158"><time>2025-05-18T10:00:41.200</time></trkpt><trkpt lat="55.5959049" lon="49.5240476"><time>2025-05-18T10:00:45.237</time></trkpt><trkpt lat="55.5959557" lon="49.5240888"><time>2025-05-18T10:00:49.250</time></trkpt><trkpt lat="55.5960020" lon="49.5241159"><time>2025-05-18T10:00:51.983</time></trkpt><trkpt lat="55.5960530" lon="49.5241211"><time>2025-05-18T10:00:54.997</time></trkpt><trkpt lat="55.5961056" lon="49.5241120"><time>2025-05-18T10:00:59.247</time></trkpt><trkpt lat="55.5961548" lon="49.5241306"><time>2025-05-18T10:01:04.187</time></trkpt><trkpt lat="55.5962048" lon="49.5241403"><time>2025-05-18T10:01:08.020</time></trkpt><trkpt lat="55.5962522" lon="49.5241615"><time>2025-05-18T10:01:11.167</time></trkpt><trkpt lat="55.5963011" lon="49.5241871"><time>2025-05-18T10:01:13.993</time></trkpt><trkpt lat="55.5963538" lon="49.5242139"><time>2025-05-18T10:01:19.993</time></trkpt><trkpt lat="55.5963965" lon="49.5242402"><time>2025-05-18T10:01:23.173</time></trkpt><trkpt lat="55.5964512" lon="49.5242558"><time>2025-05-18T10:01:27</time></trkpt><trkpt lat="55.5964946" lon="49.5242274"><time>2025-05-18T10:01:30.060</time></trkpt><trkpt lat="55.5965578" lon="49.5242082"><time>2025-05-18T10:01:35.947</time></trkpt><trkpt lat="55.5966075" lon="49.5241885"><time>2025-05-18T10:01:38.930</time></trkpt><trkpt lat="55.5966550" lon="49.5241947"><time>2025-05-18T10:01:41.997</time></trkpt><trkpt lat="55.5966942" lon="49.5242366"><time>2025-05-18T10:01:45.043</time></trkpt><trkpt lat="55.5967224" lon="49.5243150"><time>2025-05-18T10:01:47.937</time></trkpt><trkpt lat="55.5967651" lon="49.5243751"><time>2025-05-18T10:01:51.960</time></trkpt><trkpt lat="55.5968080" lon="49.5243497"><time>2025-05-18T10:01:56.980</time></trkpt><trkpt lat="55.5968564" lon="49.5243471"><time>2025-05-18T10:02:01.990</time></trkpt><trkpt lat="55.5969001" lon="49.5243687"><time>2025-05-18T10:02:06.943</time></trkpt><trkpt lat="55.5969420" lon="49.5244082"><time>2025-05-18T10:02:12.007</time></trkpt><trkpt lat="55.5969967" lon="49.5244164"><time>2025-05-18T10:02:15.930</time></trkpt><trkpt lat="55.5970466" lon="49.5244703"><time>2025-05-18T10:02:20.143</time></trkpt><trkpt lat="55.5970911" lon="49.5245221"><time>2025-05-18T10:02:24.073</time></trkpt><trkpt lat="55.5971370" lon="49.5245587"><time>2025-05-18T10:02:27.937</time></trkpt><trkpt lat="55.5971929" lon="49.5246011"><time>2025-05-18T10:02:31.940</time></trkpt><trkpt lat="55.5972352" lon="49.5246422"><time>2025-05-18T10:02:34.940</time></trkpt><trkpt lat="55.5972829" lon="49.5246800"><time>2025-05-18T10:02:38.933</time></trkpt><trkpt lat="55.5973276" lon="49.5247050"><time>2025-05-18T10:02:41.990</time></trkpt><trkpt lat="55.5973842" lon="49.5247148"><time>2025-05-18T10:02:46.010</time></trkpt><trkpt lat="55.5974358" lon="49.5247310"><time>2025-05-18T10:02:49.020</time></trkpt><trkpt lat="55.5974874" lon="49.5247670"><time>2025-05-18T10:02:51.980</time></trkpt><trkpt lat="55.5975374" lon="49.5247922"><time>2025-05-18T10:02:54.950</time></trkpt><trkpt lat="55.5975834" lon="49.5248230"><time>2025-05-18T10:02:59.003</time></trkpt><trkpt lat="55.5976291" lon="49.5248522"><time>2025-05-18T10:03:04.017</time></trkpt><trkpt lat="55.5976717" lon="49.5248895"><time>2025-05-18T10:03:08.010</time></trkpt><trkpt lat="55.5977289" lon="49.5249124"><time>2025-05-18T10:03:11.997</time></trkpt><trkpt lat="55.5977776" lon="49.5249392"><time>2025-05-18T10:03:15.940</time></trkpt><trkpt lat="55.5978243" lon="49.5249446"><time>2025-05-18T10:03:19.950</time></trkpt><trkpt lat="55.5978691" lon="49.5249562"><time>2025-05-18T10:03:24</time></trkpt><trkpt lat="55.5979194" lon="49.5249386"><time>2025-05-18T10:03:27.997</time></trkpt><trkpt lat="55.5979797" lon="49.5249600"><time>2025-05-18T10:03:32.003</time></trkpt><trkpt lat="55.5980341" lon="49.5249621"><time>2025-05-18T10:03:36.007</time></trkpt><trkpt lat="55.5980925" lon="49.5249747"><time>2025-05-18T10:03:40.187</time></trkpt><trkpt lat="55.5981515" lon="49.5249788"><time>2025-05-18T10:03:44.020</time></trkpt><trkpt lat="55.5982056" lon="49.5249972"><time>2025-05-18T10:03:48.017</time></trkpt><trkpt lat="55.5982561" lon="49.5250151"><time>2025-05-18T10:03:52.017</time></trkpt><trkpt lat="55.5983124" lon="49.5250351"><time>2025-05-18T10:03:56.163</time></trkpt><trkpt lat="55.5983571" lon="49.5250430"><time>2025-05-18T10:03:59.270</time></trkpt><trkpt lat="55.5984061" lon="49.5250445"><time>2025-05-18T10:04:01.997</time></trkpt><trkpt lat="55.5984540" lon="49.5250624"><time>2025-05-18T10:04:06.010</time></trkpt><trkpt lat="55.5985005" lon="49.5250817"><time>2025-05-18T10:04:10.177</time></trkpt><trkpt lat="55.5985491" lon="49.5250996"><time>2025-05-18T10:04:13.960</time></trkpt><trkpt lat="55.5985950" lon="49.5251236"><time>2025-05-18T10:04:16.993</time></trkpt><trkpt lat="55.5986455" lon="49.5251030"><time>2025-05-18T10:04:20.253</time></trkpt><trkpt lat="55.5986928" lon="49.5251167"><time>2025-05-18T10:04:23.003</time></trkpt><trkpt lat="55.5987432" lon="49.5251356"><time>2025-05-18T10:04:26.903</time></trkpt><trkpt lat="55.5987883" lon="49.5251625"><time>2025-05-18T10:04:31.143</time></trkpt><trkpt lat="55.5988472" lon="49.5251506"><time>2025-05-18T10:04:35.007</time></trkpt><trkpt lat="55.5989037" lon="49.5251579"><time>2025-05-18T10:04:38.930</time></trkpt><trkpt lat="55.5989498" lon="49.5251682"><time>2025-05-18T10:04:43.953</time></trkpt><trkpt lat="55.5990045" lon="49.5251868"><time>2025-05-18T10:04:47.943</time></trkpt><trkpt lat="55.5990625" lon="49.5251998"><time>2025-05-18T10:04:51.943</time></trkpt><trkpt lat="55.5991127" lon="49.5251931"><time>2025-05-18T10:04:54.957</time></trkpt><trkpt lat="55.5991589" lon="49.5252125"><time>2025-05-18T10:04:58.943</time></trkpt><trkpt lat="55.5992105" lon="49.5252458"><time>2025-05-18T10:05:02.960</time></trkpt><trkpt lat="55.5992577" lon="49.5252595"><time>2025-05-18T10:05:06.180</time></trkpt><trkpt lat="55.5993107" lon="49.5252470"><time>2025-05-18T10:05:10.070</time></trkpt><trkpt lat="55.5993604" lon="49.5252396"><time>2025-05-18T10:05:13.923</time></trkpt><trkpt lat="55.5994110" lon="49.5252299"><time>2025-05-18T10:05:16.927</time></trkpt><trkpt lat="55.5994574" lon="49.5252346"><time>2025-05-18T10:05:20.050</time></trkpt><trkpt lat="55.5995150" lon="49.5252293"><time>2025-05-18T10:05:23.930</time></trkpt><trkpt lat="55.5995627" lon="49.5252225"><time>2025-05-18T10:05:27.990</time></trkpt><trkpt lat="55.5996133" lon="49.5251892"><time>2025-05-18T10:05:33.187</time></trkpt><trkpt lat="55.5996602" lon="49.5251695"><time>2025-05-18T10:05:36.187</time></trkpt><trkpt lat="55.5997064" lon="49.5251564"><time>2025-05-18T10:05:38.943</time></trkpt><trkpt lat="55.5997561" lon="49.5251422"><time>2025-05-18T10:05:42.947</time></trkpt><trkpt lat="55.5998126" lon="49.5251552"><time>2025-05-18T10:05:46.047</time></trkpt><trkpt lat="55.5998732" lon="49.5251434"><time>2025-05-18T10:05:50.123</time></trkpt><trkpt lat="55.5999218" lon="49.5251335"><time>2025-05-18T10:05:53.010</time></trkpt><trkpt lat="55.5999658" lon="49.5251170"><time>2025-05-18T10:05:56.190</time></trkpt><trkpt lat="55.6000235" lon="49.5251157"><time>2025-05-18T10:06:00.027</time></trkpt><trkpt lat="55.6000792" lon="49.5251177"><time>2025-05-18T10:06:04.190</time></trkpt><trkpt lat="55.6001288" lon="49.5251133"><time>2025-05-18T10:06:07.010</time></trkpt><trkpt lat="55.6001838" lon="49.5250977"><time>2025-05-18T10:06:11.203</time></trkpt><trkpt lat="55.6002292" lon="49.5251066"><time>2025-05-18T10:06:13.990</time></trkpt><trkpt lat="55.6002862" lon="49.5250977"><time>2025-05-18T10:06:18.003</time></trkpt><trkpt lat="55.6003476" lon="49.5250989"><time>2025-05-18T10:06:21.937</time></trkpt><trkpt lat="55.6004072" lon="49.5250998"><time>2025-05-18T10:06:25.973</time></trkpt><trkpt lat="55.6004531" lon="49.5250910"><time>2025-05-18T10:06:29.007</time></trkpt><trkpt lat="55.6005148" lon="49.5250874"><time>2025-05-18T10:06:31.947</time></trkpt><trkpt lat="55.6005726" lon="49.5250920"><time>2025-05-18T10:06:34.983</time></trkpt><trkpt lat="55.6006180" lon="49.5251098"><time>2025-05-18T10:06:38.010</time></trkpt><trkpt lat="55.6006687" lon="49.5250990"><time>2025-05-18T10:06:42.020</time></trkpt><trkpt lat="55.6007134" lon="49.5250851"><time>2025-05-18T10:06:45.020</time></trkpt><trkpt lat="55.6007703" lon="49.5250661"><time>2025-05-18T10:06:48.940</time></trkpt><trkpt lat="55.6008248" lon="49.5250568"><time>2025-05-18T10:06:52.923</time></trkpt><trkpt lat="55.6008772" lon="49.5250605"><time>2025-05-18T10:06:56.940</time></trkpt><trkpt lat="55.6009203" lon="49.5250308"><time>2025-05-18T10:06:59.947</time></trkpt><trkpt lat="55.6009709" lon="49.5249786"><time>2025-05-18T10:07:02.960</time></trkpt><trkpt lat="55.6010216" lon="49.5249785"><time>2025-05-18T10:07:06.950</time></trkpt><trkpt lat="55.6010430" lon="49.5250137"><time>2025-05-18T10:07:14.877</time></trkpt><trkpt lat="55.6009770" lon="49.5249929"><time>2025-05-18T10:07:23.007</time></trkpt><trkpt lat="55.6009479" lon="49.5250714"><time>2025-05-18T10:07:25.937</time></trkpt><trkpt lat="55.6009456" lon="49.5251534"><time>2025-05-18T10:07:28.930</time></trkpt><trkpt lat="55.6009438" lon="49.5252397"><time>2025-05-18T10:07:32.933</time></trkpt><trkpt lat="55.6009434" lon="49.5253464"><time>2025-05-18T10:07:36.947</time></trkpt><trkpt lat="55.6009590" lon="49.5254384"><time>2025-05-18T10:07:41.057</time></trkpt><trkpt lat="55.6009804" lon="49.5255196"><time>2025-05-18T10:07:44.073</time></trkpt><trkpt lat="55.6009954" lon="49.5255945"><time>2025-05-18T10:07:47.010</time></trkpt><trkpt lat="55.6010010" lon="49.5256740"><time>2025-05-18T10:07:50.003</time></trkpt><trkpt lat="55.6010164" lon="49.5257642"><time>2025-05-18T10:07:53.027</time></trkpt><trkpt lat="55.6010362" lon="49.5258390"><time>2025-05-18T10:07:55.223</time></trkpt><trkpt lat="55.6010503" lon="49.5259151"><time>2025-05-18T10:07:56.953</time></trkpt><trkpt lat="55.6010723" lon="49.5260198"><time>2025-05-18T10:08:00.063</time></trkpt><trkpt lat="55.6011011" lon="49.5261223"><time>2025-05-18T10:08:03.010</time></trkpt><trkpt lat="55.6011316" lon="49.5262167"><time>2025-05-18T10:08:06.053</time></trkpt><trkpt lat="55.6011605" lon="49.5263182"><time>2025-05-18T10:08:09.187</time></trkpt><trkpt lat="55.6011930" lon="49.5264106"><time>2025-05-18T10:08:12.010</time></trkpt><trkpt lat="55.6012150" lon="49.5265131"><time>2025-05-18T10:08:14.990</time></trkpt><trkpt lat="55.6012477" lon="49.5266107"><time>2025-05-18T10:08:18.007</time></trkpt><trkpt lat="55.6012839" lon="49.5267000"><time>2025-05-18T10:08:21.213</time></trkpt><trkpt lat="55.6013239" lon="49.5267915"><time>2025-05-18T10:08:23.910</time></trkpt><trkpt lat="55.6013523" lon="49.5268614"><time>2025-05-18T10:08:25.930</time></trkpt><trkpt lat="55.6013813" lon="49.5269264"><time>2025-05-18T10:08:28.940</time></trkpt><trkpt lat="55.6014143" lon="49.5269910"><time>2025-05-18T10:08:31.953</time></trkpt><trkpt lat="55.6014490" lon="49.5270693"><time>2025-05-18T10:08:34.927</time></trkpt><trkpt lat="55.6014818" lon="49.5271405"><time>2025-05-18T10:08:37.967</time></trkpt><trkpt lat="55.6015240" lon="49.5272326"><time>2025-05-18T10:08:40.973</time></trkpt><trkpt lat="55.6015631" lon="49.5273177"><time>2025-05-18T10:08:43.930</time></trkpt><trkpt lat="55.6016119" lon="49.5273856"><time>2025-05-18T10:08:46.973</time></trkpt><trkpt lat="55.6016538" lon="49.5274558"><time>2025-05-18T10:08:49.970</time></trkpt><trkpt lat="55.6016983" lon="49.5275207"><time>2025-05-18T10:08:52.940</time></trkpt><trkpt lat="55.6017536" lon="49.5275676"><time>2025-05-18T10:08:55.940</time></trkpt><trkpt lat="55.6017972" lon="49.5276143"><time>2025-05-18T10:08:58.960</time></trkpt><trkpt lat="55.6018460" lon="49.5276803"><time>2025-05-18T10:09:01.970</time></trkpt><trkpt lat="55.6018893" lon="49.5277212"><time>2025-05-18T10:09:03.940</time></trkpt><trkpt lat="55.6019263" lon="49.5277815"><time>2025-05-18T10:09:05.957</time></trkpt><trkpt lat="55.6019437" lon="49.5278607"><time>2025-05-18T10:09:07.943</time></trkpt><trkpt lat="55.6019698" lon="49.5279559"><time>2025-05-18T10:09:10.930</time></trkpt><trkpt lat="55.6019999" lon="49.5280255"><time>2025-05-18T10:09:13.930</time></trkpt><trkpt lat="55.6020172" lon="49.5281001"><time>2025-05-18T10:09:15.927</time></trkpt><trkpt lat="55.6020321" lon="49.5282028"><time>2025-05-18T10:09:18.990</time></trkpt><trkpt lat="55.6020568" lon="49.5283055"><time>2025-05-18T10:09:21.947</time></trkpt><trkpt lat="55.6020691" lon="49.5284011"><time>2025-05-18T10:09:24.950</time></trkpt><trkpt lat="55.6020829" lon="49.5284995"><time>2025-05-18T10:09:27.930</time></trkpt><trkpt lat="55.6020948" lon="49.5286091"><time>2025-05-18T10:09:30.957</time></trkpt><trkpt lat="55.6021062" lon="49.5287062"><time>2025-05-18T10:09:33.937</time></trkpt><trkpt lat="55.6021245" lon="49.5288024"><time>2025-05-18T10:09:37.933</time></trkpt><trkpt lat="55.6021389" lon="49.5288908"><time>2025-05-18T10:09:41.937</time></trkpt><trkpt lat="55.6021487" lon="49.5289811"><time>2025-05-18T10:09:45.950</time></trkpt><trkpt lat="55.6021652" lon="49.5290719"><time>2025-05-18T10:09:48.933</time></trkpt><trkpt lat="55.6021762" lon="49.5291630"><time>2025-05-18T10:09:52.957</time></trkpt><trkpt lat="55.6021930" lon="49.5292471"><time>2025-05-18T10:09:55.953</time></trkpt><trkpt lat="55.6022120" lon="49.5293500"><time>2025-05-18T10:09:59.953</time></trkpt><trkpt lat="55.6022259" lon="49.5294372"><time>2025-05-18T10:10:02.943</time></trkpt><trkpt lat="55.6022503" lon="49.5295109"><time>2025-05-18T10:10:05.960</time></trkpt><trkpt lat="55.6022643" lon="49.5295882"><time>2025-05-18T10:10:08.927</time></trkpt><trkpt lat="55.6022856" lon="49.5296690"><time>2025-05-18T10:10:12.923</time></trkpt><trkpt lat="55.6023044" lon="49.5297728"><time>2025-05-18T10:10:16.953</time></trkpt><trkpt lat="55.6023226" lon="49.5298682"><time>2025-05-18T10:10:20.913</time></trkpt><trkpt lat="55.6023300" lon="49.5299651"><time>2025-05-18T10:10:24.940</time></trkpt><trkpt lat="55.6023346" lon="49.5300463"><time>2025-05-18T10:10:27.940</time></trkpt><trkpt lat="55.6023504" lon="49.5301390"><time>2025-05-18T10:10:31.947</time></trkpt><trkpt lat="55.6023644" lon="49.5302163"><time>2025-05-18T10:10:34.930</time></trkpt><trkpt lat="55.6023812" lon="49.5303095"><time>2025-05-18T10:10:38.933</time></trkpt><trkpt lat="55.6023903" lon="49.5304104"><time>2025-05-18T10:10:42.970</time></trkpt><trkpt lat="55.6023972" lon="49.5304977"><time>2025-05-18T10:10:45.943</time></trkpt><trkpt lat="55.6024141" lon="49.5305814"><time>2025-05-18T10:10:48.960</time></trkpt><trkpt lat="55.6024296" lon="49.5306560"><time>2025-05-18T10:10:51.943</time></trkpt><trkpt lat="55.6024254" lon="49.5307420"><time>2025-05-18T10:10:55.960</time></trkpt><trkpt lat="55.6024432" lon="49.5308264"><time>2025-05-18T10:10:58.920</time></trkpt><trkpt lat="55.6024644" lon="49.5309297"><time>2025-05-18T10:11:02.920</time></trkpt><trkpt lat="55.6024802" lon="49.5310111"><time>2025-05-18T10:11:06.960</time></trkpt><trkpt lat="55.6024904" lon="49.5310967"><time>2025-05-18T10:11:09.973</time></trkpt><trkpt lat="55.6025011" lon="49.5311787"><time>2025-05-18T10:11:13.967</time></trkpt><trkpt lat="55.6025261" lon="49.5312720"><time>2025-05-18T10:11:17.953</time></trkpt><trkpt lat="55.6025382" lon="49.5313689"><time>2025-05-18T10:11:21.937</time></trkpt><trkpt lat="55.6025476" lon="49.5314491"><time>2025-05-18T10:11:24.960</time></trkpt><trkpt lat="55.6025608" lon="49.5315326"><time>2025-05-18T10:11:27.943</time></trkpt><trkpt lat="55.6025798" lon="49.5316121"><time>2025-05-18T10:11:30.930</time></trkpt><trkpt lat="55.6025867" lon="49.5316942"><time>2025-05-18T10:11:33.953</time></trkpt><trkpt lat="55.6025974" lon="49.5317891"><time>2025-05-18T10:11:37.943</time></trkpt><trkpt lat="55.6026123" lon="49.5318835"><time>2025-05-18T10:11:41.937</time></trkpt><trkpt lat="55.6026303" lon="49.5319740"><time>2025-05-18T10:11:45.953</time></trkpt><trkpt lat="55.6026447" lon="49.5320613"><time>2025-05-18T10:11:49.937</time></trkpt><trkpt lat="55.6026655" lon="49.5321500"><time>2025-05-18T10:11:53.953</time></trkpt><trkpt lat="55.6026815" lon="49.5322341"><time>2025-05-18T10:11:57.953</time></trkpt><trkpt lat="55.6027015" lon="49.5323193"><time>2025-05-18T10:12:01.950</time></trkpt><trkpt lat="55.6027227" lon="49.5324043"><time>2025-05-18T10:12:05.923</time></trkpt><trkpt lat="55.6027507" lon="49.5324864"><time>2025-05-18T10:12:09.937</time></trkpt><trkpt lat="55.6027810" lon="49.5325659"><time>2025-05-18T10:12:13.947</time></trkpt><trkpt lat="55.6028065" lon="49.5326361"><time>2025-05-18T10:12:17.957</time></trkpt><trkpt lat="55.6028409" lon="49.5327184"><time>2025-05-18T10:12:21.950</time></trkpt><trkpt lat="55.6028506" lon="49.5328139"><time>2025-05-18T10:12:25.920</time></trkpt><trkpt lat="55.6028313" lon="49.5329014"><time>2025-05-18T10:12:29.937</time></trkpt><trkpt lat="55.6028011" lon="49.5329845"><time>2025-05-18T10:12:33.947</time></trkpt><trkpt lat="55.6027652" lon="49.5330782"><time>2025-05-18T10:12:37.933</time></trkpt><trkpt lat="55.6027370" lon="49.5331661"><time>2025-05-18T10:12:40.927</time></trkpt><trkpt lat="55.6027086" lon="49.5332600"><time>2025-05-18T10:12:43.963</time></trkpt><trkpt lat="55.6026932" lon="49.5333473"><time>2025-05-18T10:12:48.953</time></trkpt><trkpt lat="55.6027075" lon="49.5334315"><time>2025-05-18T10:12:54.950</time></trkpt><trkpt lat="55.6027545" lon="49.5334922"><time>2025-05-18T10:12:59.950</time></trkpt><trkpt lat="55.6028082" lon="49.5335232"><time>2025-05-18T10:13:04.960</time></trkpt><trkpt lat="55.6028655" lon="49.5335408"><time>2025-05-18T10:13:08.960</time></trkpt><trkpt lat="55.6029167" lon="49.5335323"><time>2025-05-18T10:13:12.933</time></trkpt><trkpt lat="55.6029616" lon="49.5335393"><time>2025-05-18T10:13:15.953</time></trkpt><trkpt lat="55.6030170" lon="49.5335498"><time>2025-05-18T10:13:21.057</time></trkpt><trkpt lat="55.6030661" lon="49.5335675"><time>2025-05-18T10:13:24.997</time></trkpt><trkpt lat="55.6031282" lon="49.5335691"><time>2025-05-18T10:13:28.923</time></trkpt><trkpt lat="55.6031798" lon="49.5335640"><time>2025-05-18T10:13:31.920</time></trkpt><trkpt lat="55.6032267" lon="49.5335745"><time>2025-05-18T10:13:35.030</time></trkpt><trkpt lat="55.6032772" lon="49.5335869"><time>2025-05-18T10:13:37.960</time></trkpt><trkpt lat="55.6033397" lon="49.5336015"><time>2025-05-18T10:13:41.997</time></trkpt><trkpt lat="55.6033865" lon="49.5335988"><time>2025-05-18T10:13:44.990</time></trkpt><trkpt lat="55.6034392" lon="49.5336174"><time>2025-05-18T10:13:48.033</time></trkpt><trkpt lat="55.6035036" lon="49.5336383"><time>2025-05-18T10:13:51.170</time></trkpt><trkpt lat="55.6035491" lon="49.5336238"><time>2025-05-18T10:13:53.007</time></trkpt><trkpt lat="55.6035980" lon="49.5336112"><time>2025-05-18T10:13:55.020</time></trkpt><trkpt lat="55.6036450" lon="49.5335898"><time>2025-05-18T10:13:57.003</time></trkpt><trkpt lat="55.6037049" lon="49.5335672"><time>2025-05-18T10:14:00.190</time></trkpt><trkpt lat="55.6037623" lon="49.5335413"><time>2025-05-18T10:14:02.993</time></trkpt><trkpt lat="55.6038237" lon="49.5335051"><time>2025-05-18T10:14:06.167</time></trkpt><trkpt lat="55.6038801" lon="49.5334841"><time>2025-05-18T10:14:09.177</time></trkpt><trkpt lat="55.6039403" lon="49.5334659"><time>2025-05-18T10:14:11.923</time></trkpt><trkpt lat="55.6039860" lon="49.5334454"><time>2025-05-18T10:14:15.133</time></trkpt><trkpt lat="55.6040400" lon="49.5334277"><time>2025-05-18T10:14:17.970</time></trkpt><trkpt lat="55.6041053" lon="49.5334170"><time>2025-05-18T10:14:21.057</time></trkpt><trkpt lat="55.6041581" lon="49.5333931"><time>2025-05-18T10:14:24.053</time></trkpt><trkpt lat="55.6042074" lon="49.5333807"><time>2025-05-18T10:14:27.027</time></trkpt><trkpt lat="55.6042719" lon="49.5333772"><time>2025-05-18T10:14:30.090</time></trkpt><trkpt lat="55.6043214" lon="49.5333838"><time>2025-05-18T10:14:32.923</time></trkpt><trkpt lat="55.6043753" lon="49.5333841"><time>2025-05-18T10:14:36.220</time></trkpt><trkpt lat="55.6044254" lon="49.5333899"><time>2025-05-18T10:14:38.977</time></trkpt><trkpt lat="55.6044776" lon="49.5333943"><time>2025-05-18T10:14:41.947</time></trkpt><trkpt lat="55.6045336" lon="49.5333946"><time>2025-05-18T10:14:45.057</time></trkpt><trkpt lat="55.6045791" lon="49.5333989"><time>2025-05-18T10:14:46.933</time></trkpt><trkpt lat="55.6046266" lon="49.5334015"><time>2025-05-18T10:14:49.027</time></trkpt><trkpt lat="55.6046718" lon="49.5334090"><time>2025-05-18T10:14:50.957</time></trkpt><trkpt lat="55.6047156" lon="49.5334274"><time>2025-05-18T10:14:52.953</time></trkpt><trkpt lat="55.6047724" lon="49.5334352"><time>2025-05-18T10:14:55.980</time></trkpt><trkpt lat="55.6048233" lon="49.5334377"><time>2025-05-18T10:14:58.980</time></trkpt><trkpt lat="55.6048752" lon="49.5334286"><time>2025-05-18T10:15:01.083</time></trkpt><trkpt lat="55.6049322" lon="49.5334055"><time>2025-05-18T10:15:04.073</time></trkpt><trkpt lat="55.6049752" lon="49.5333790"><time>2025-05-18T10:15:06.067</time></trkpt><trkpt lat="55.6050329" lon="49.5333808"><time>2025-05-18T10:15:08.960</time></trkpt><trkpt lat="55.6051004" lon="49.5333553"><time>2025-05-18T10:15:11.967</time></trkpt><trkpt lat="55.6051599" lon="49.5333481"><time>2025-05-18T10:15:14.960</time></trkpt><trkpt lat="55.6052163" lon="49.5333580"><time>2025-05-18T10:15:17.967</time></trkpt><trkpt lat="55.6052692" lon="49.5333527"><time>2025-05-18T10:15:20.077</time></trkpt><trkpt lat="55.6053193" lon="49.5333346"><time>2025-05-18T10:15:21.940</time></trkpt><trkpt lat="55.6053645" lon="49.5332955"><time>2025-05-18T10:15:25.080</time></trkpt><trkpt lat="55.6054263" lon="49.5332765"><time>2025-05-18T10:15:27.960</time></trkpt><trkpt lat="55.6054899" lon="49.5332617"><time>2025-05-18T10:15:31.077</time></trkpt><trkpt lat="55.6055429" lon="49.5332215"><time>2025-05-18T10:15:35.080</time></trkpt><trkpt lat="55.6056041" lon="49.5331970"><time>2025-05-18T10:15:37.953</time></trkpt><trkpt lat="55.6056572" lon="49.5331679"><time>2025-05-18T10:15:41.160</time></trkpt><trkpt lat="55.6057170" lon="49.5331476"><time>2025-05-18T10:15:43.950</time></trkpt><trkpt lat="55.6057801" lon="49.5331265"><time>2025-05-18T10:15:46.940</time></trkpt><trkpt lat="55.6058278" lon="49.5331077"><time>2025-05-18T10:15:50.083</time></trkpt><trkpt lat="55.6058857" lon="49.5330767"><time>2025-05-18T10:15:54.077</time></trkpt><trkpt lat="55.6059439" lon="49.5330422"><time>2025-05-18T10:15:56.957</time></trkpt><trkpt lat="55.6059996" lon="49.5330085"><time>2025-05-18T10:16:00.100</time></trkpt><trkpt lat="55.6060502" lon="49.5329809"><time>2025-05-18T10:16:02.973</time></trkpt><trkpt lat="55.6061076" lon="49.5329596"><time>2025-05-18T10:16:06.090</time></trkpt><trkpt lat="55.6061650" lon="49.5329177"><time>2025-05-18T10:16:09.167</time></trkpt><trkpt lat="55.6062136" lon="49.5328791"><time>2025-05-18T10:16:11.957</time></trkpt><trkpt lat="55.6062560" lon="49.5328443"><time>2025-05-18T10:16:14.087</time></trkpt><trkpt lat="55.6063022" lon="49.5328285"><time>2025-05-18T10:16:16.107</time></trkpt><trkpt lat="55.6063472" lon="49.5328211"><time>2025-05-18T10:16:17.970</time></trkpt><trkpt lat="55.6063922" lon="49.5328083"><time>2025-05-18T10:16:20.087</time></trkpt><trkpt lat="55.6064526" lon="49.5327993"><time>2025-05-18T10:16:22.937</time></trkpt><trkpt lat="55.6065041" lon="49.5327918"><time>2025-05-18T10:16:25.967</time></trkpt><trkpt lat="55.6065630" lon="49.5327719"><time>2025-05-18T10:16:28.937</time></trkpt><trkpt lat="55.6066297" lon="49.5327519"><time>2025-05-18T10:16:31.960</time></trkpt><trkpt lat="55.6066756" lon="49.5327328"><time>2025-05-18T10:16:33.960</time></trkpt><trkpt lat="55.6067264" lon="49.5327120"><time>2025-05-18T10:16:35.960</time></trkpt><trkpt lat="55.6067853" lon="49.5327063"><time>2025-05-18T10:16:39.083</time></trkpt><trkpt lat="55.6068439" lon="49.5327172"><time>2025-05-18T10:16:41.950</time></trkpt><trkpt lat="55.6069023" lon="49.5327078"><time>2025-05-18T10:16:44.967</time></trkpt><trkpt lat="55.6069516" lon="49.5327007"><time>2025-05-18T10:16:47.950</time></trkpt><trkpt lat="55.6070143" lon="49.5326744"><time>2025-05-18T10:16:51.017</time></trkpt><trkpt lat="55.6070828" lon="49.5326540"><time>2025-05-18T10:16:54.083</time></trkpt><trkpt lat="55.6071288" lon="49.5326416"><time>2025-05-18T10:16:55.960</time></trkpt><trkpt lat="55.6071929" lon="49.5326130"><time>2025-05-18T10:16:58.953</time></trkpt><trkpt lat="55.6072408" lon="49.5326028"><time>2025-05-18T10:17:01.080</time></trkpt><trkpt lat="55.6072982" lon="49.5325901"><time>2025-05-18T10:17:04.060</time></trkpt><trkpt lat="55.6073440" lon="49.5325783"><time>2025-05-18T10:17:06.950</time></trkpt><trkpt lat="55.6073928" lon="49.5325540"><time>2025-05-18T10:17:10.070</time></trkpt><trkpt lat="55.6074420" lon="49.5325436"><time>2025-05-18T10:17:12.947</time></trkpt><trkpt lat="55.6075059" lon="49.5325335"><time>2025-05-18T10:17:16.097</time></trkpt><trkpt lat="55.6075523" lon="49.5325384"><time>2025-05-18T10:17:17.960</time></trkpt><trkpt lat="55.6076107" lon="49.5325731"><time>2025-05-18T10:17:21.063</time></trkpt><trkpt lat="55.6076645" lon="49.5325945"><time>2025-05-18T10:17:24.137</time></trkpt><trkpt lat="55.6077122" lon="49.5326163"><time>2025-05-18T10:17:26.967</time></trkpt><trkpt lat="55.6077643" lon="49.5326001"><time>2025-05-18T10:17:29.110</time></trkpt><trkpt lat="55.6078259" lon="49.5325954"><time>2025-05-18T10:17:31.940</time></trkpt><trkpt lat="55.6078849" lon="49.5326066"><time>2025-05-18T10:17:35.060</time></trkpt><trkpt lat="55.6079525" lon="49.5326320"><time>2025-05-18T10:17:37.960</time></trkpt><trkpt lat="55.6080047" lon="49.5326433"><time>2025-05-18T10:17:39.947</time></trkpt><trkpt lat="55.6080663" lon="49.5326571"><time>2025-05-18T10:17:42.957</time></trkpt><trkpt lat="55.6081288" lon="49.5326551"><time>2025-05-18T10:17:45.967</time></trkpt><trkpt lat="55.6081936" lon="49.5326736"><time>2025-05-18T10:17:49.063</time></trkpt><trkpt lat="55.6082521" lon="49.5326894"><time>2025-05-18T10:17:51.957</time></trkpt><trkpt lat="55.6083173" lon="49.5326805"><time>2025-05-18T10:17:55.040</time></trkpt><trkpt lat="55.6083748" lon="49.5326838"><time>2025-05-18T10:17:57.960</time></trkpt><trkpt lat="55.6084327" lon="49.5326663"><time>2025-05-18T10:18:01.087</time></trkpt><trkpt lat="55.6084905" lon="49.5326608"><time>2025-05-18T10:18:03.947</time></trkpt><trkpt lat="55.6085452" lon="49.5326291"><time>2025-05-18T10:18:06.970</time></trkpt><trkpt lat="55.6086018" lon="49.5326086"><time>2025-05-18T10:18:10.063</time></trkpt><trkpt lat="55.6086543" lon="49.5326198"><time>2025-05-18T10:18:12.973</time></trkpt><trkpt lat="55.6087052" lon="49.5326169"><time>2025-05-18T10:18:15.957</time></trkpt><trkpt lat="55.6087596" lon="49.5326031"><time>2025-05-18T10:18:18.977</time></trkpt><trkpt lat="55.6088061" lon="49.5325907"><time>2025-05-18T10:18:21.070</time></trkpt><trkpt lat="55.6088687" lon="49.5325593"><time>2025-05-18T10:18:23.950</time></trkpt><trkpt lat="55.6089152" lon="49.5325415"><time>2025-05-18T10:18:26.960</time></trkpt><trkpt lat="55.6089700" lon="49.5325242"><time>2025-05-18T10:18:30.073</time></trkpt><trkpt lat="55.6090216" lon="49.5325044"><time>2025-05-18T10:18:33.167</time></trkpt><trkpt lat="55.6090708" lon="49.5324744"><time>2025-05-18T10:18:35.957</time></trkpt><trkpt lat="55.6091168" lon="49.5324401"><time>2025-05-18T10:18:38.950</time></trkpt><trkpt lat="55.6091654" lon="49.5324166"><time>2025-05-18T10:18:41.957</time></trkpt><trkpt lat="55.6092247" lon="49.5323951"><time>2025-05-18T10:18:45.107</time></trkpt><trkpt lat="55.6092836" lon="49.5323527"><time>2025-05-18T10:18:48.060</time></trkpt><trkpt lat="55.6093406" lon="49.5323143"><time>2025-05-18T10:18:51.177</time></trkpt><trkpt lat="55.6093912" lon="49.5322867"><time>2025-05-18T10:18:54.217</time></trkpt><trkpt lat="55.6094490" lon="49.5322466"><time>2025-05-18T10:18:56.957</time></trkpt><trkpt lat="55.6095067" lon="49.5322056"><time>2025-05-18T10:18:59.920</time></trkpt><trkpt lat="55.6095677" lon="49.5321729"><time>2025-05-18T10:19:02.943</time></trkpt><trkpt lat="55.6096161" lon="49.5321377"><time>2025-05-18T10:19:05.947</time></trkpt><trkpt lat="55.6096686" lon="49.5321004"><time>2025-05-18T10:19:08.987</time></trkpt><trkpt lat="55.6097108" lon="49.5320622"><time>2025-05-18T10:19:11.937</time></trkpt><trkpt lat="55.6097666" lon="49.5320130"><time>2025-05-18T10:19:15.207</time></trkpt><trkpt lat="55.6098207" lon="49.5319702"><time>2025-05-18T10:19:18.203</time></trkpt><trkpt lat="55.6098776" lon="49.5319280"><time>2025-05-18T10:19:21.017</time></trkpt><trkpt lat="55.6099422" lon="49.5318979"><time>2025-05-18T10:19:24.213</time></trkpt><trkpt lat="55.6099895" lon="49.5318753"><time>2025-05-18T10:19:26.187</time></trkpt><trkpt lat="55.6100548" lon="49.5318417"><time>2025-05-18T10:19:29.007</time></trkpt><trkpt lat="55.6101134" lon="49.5318213"><time>2025-05-18T10:19:32.003</time></trkpt><trkpt lat="55.6101709" lon="49.5317856"><time>2025-05-18T10:19:35.197</time></trkpt><trkpt lat="55.6102322" lon="49.5317413"><time>2025-05-18T10:19:38.007</time></trkpt><trkpt lat="55.6102784" lon="49.5317199"><time>2025-05-18T10:19:40.217</time></trkpt><trkpt lat="55.6103222" lon="49.5316980"><time>2025-05-18T10:19:41.993</time></trkpt><trkpt lat="55.6103784" lon="49.5316764"><time>2025-05-18T10:19:45.190</time></trkpt><trkpt lat="55.6104354" lon="49.5316381"><time>2025-05-18T10:19:48</time></trkpt><trkpt lat="55.6104872" lon="49.5316234"><time>2025-05-18T10:19:50.023</time></trkpt><trkpt lat="55.6105325" lon="49.5316116"><time>2025-05-18T10:19:51.950</time></trkpt><trkpt lat="55.6105898" lon="49.5316002"><time>2025-05-18T10:19:55.293</time></trkpt><trkpt lat="55.6106451" lon="49.5315895"><time>2025-05-18T10:19:58.917</time></trkpt><trkpt lat="55.6106964" lon="49.5315860"><time>2025-05-18T10:20:01.937</time></trkpt><trkpt lat="55.6107422" lon="49.5315729"><time>2025-05-18T10:20:05.043</time></trkpt><trkpt lat="55.6108041" lon="49.5315586"><time>2025-05-18T10:20:09.223</time></trkpt><trkpt lat="55.6108572" lon="49.5315514"><time>2025-05-18T10:20:11.990</time></trkpt><trkpt lat="55.6109020" lon="49.5315380"><time>2025-05-18T10:20:16.197</time></trkpt><trkpt lat="55.6109497" lon="49.5315112"><time>2025-05-18T10:20:20.043</time></trkpt><trkpt lat="55.6109951" lon="49.5314897"><time>2025-05-18T10:20:23.183</time></trkpt><trkpt lat="55.6110453" lon="49.5314859"><time>2025-05-18T10:20:26.197</time></trkpt><trkpt lat="55.6111031" lon="49.5314782"><time>2025-05-18T10:20:30.197</time></trkpt><trkpt lat="55.6111578" lon="49.5314532"><time>2025-05-18T10:20:34.217</time></trkpt><trkpt lat="55.6112087" lon="49.5314516"><time>2025-05-18T10:20:38.003</time></trkpt><trkpt lat="55.6112579" lon="49.5314423"><time>2025-05-18T10:20:41.187</time></trkpt><trkpt lat="55.6113046" lon="49.5314278"><time>2025-05-18T10:20:44.017</time></trkpt><trkpt lat="55.6113511" lon="49.5314229"><time>2025-05-18T10:20:47.997</time></trkpt><trkpt lat="55.6114014" lon="49.5314140"><time>2025-05-18T10:20:51.980</time></trkpt><trkpt lat="55.6114566" lon="49.5313938"><time>2025-05-18T10:20:55.933</time></trkpt><trkpt lat="55.6115036" lon="49.5313682"><time>2025-05-18T10:20:59.007</time></trkpt><trkpt lat="55.6115524" lon="49.5313425"><time>2025-05-18T10:21:02.010</time></trkpt><trkpt lat="55.6116122" lon="49.5313304"><time>2025-05-18T10:21:05.200</time></trkpt><trkpt lat="55.6116634" lon="49.5313258"><time>2025-05-18T10:21:08.003</time></trkpt><trkpt lat="55.6117110" lon="49.5313252"><time>2025-05-18T10:21:10.957</time></trkpt><trkpt lat="55.6117728" lon="49.5313322"><time>2025-05-18T10:21:14.997</time></trkpt><trkpt lat="55.6118198" lon="49.5313128"><time>2025-05-18T10:21:17.997</time></trkpt><trkpt lat="55.6118723" lon="49.5312931"><time>2025-05-18T10:21:22.013</time></trkpt><trkpt lat="55.6119220" lon="49.5312839"><time>2025-05-18T10:21:25.197</time></trkpt><trkpt lat="55.6119760" lon="49.5312880"><time>2025-05-18T10:21:29.023</time></trkpt><trkpt lat="55.6120226" lon="49.5312885"><time>2025-05-18T10:21:31.970</time></trkpt><trkpt lat="55.6120711" lon="49.5312832"><time>2025-05-18T10:21:35.177</time></trkpt><trkpt lat="55.6121217" lon="49.5313066"><time>2025-05-18T10:21:40.247</time></trkpt><trkpt lat="55.6121664" lon="49.5312757"><time>2025-05-18T10:21:43.033</time></trkpt><trkpt lat="55.6121727" lon="49.5313607"><time>2025-05-18T10:21:49.187</time></trkpt><trkpt lat="55.6121869" lon="49.5314437"><time>2025-05-18T10:21:53.023</time></trkpt><trkpt lat="55.6122061" lon="49.5315174"><time>2025-05-18T10:22:01.017</time></trkpt><trkpt lat="55.6122317" lon="49.5316055"><time>2025-05-18T10:22:05.167</time></trkpt><trkpt lat="55.6122347" lon="49.5316905"><time>2025-05-18T10:22:10.027</time></trkpt><trkpt lat="55.6122145" lon="49.5317627"><time>2025-05-18T10:22:13.970</time></trkpt><trkpt lat="55.6121896" lon="49.5318308"><time>2025-05-18T10:22:18.030</time></trkpt><trkpt lat="55.6121900" lon="49.5319313"><time>2025-05-18T10:22:21.267</time></trkpt><trkpt lat="55.6122119" lon="49.5320384"><time>2025-05-18T10:22:24.007</time></trkpt><trkpt lat="55.6122205" lon="49.5321256"><time>2025-05-18T10:22:27</time></trkpt><trkpt lat="55.6122393" lon="49.5322119"><time>2025-05-18T10:22:31.197</time></trkpt><trkpt lat="55.6122695" lon="49.5322739"><time>2025-05-18T10:22:34.230</time></trkpt><trkpt lat="55.6122987" lon="49.5323482"><time>2025-05-18T10:22:37.020</time></trkpt><trkpt lat="55.6123406" lon="49.5324106"><time>2025-05-18T10:22:39.947</time></trkpt><trkpt lat="55.6123817" lon="49.5324425"><time>2025-05-18T10:22:42.947</time></trkpt><trkpt lat="55.6124380" lon="49.5324694"><time>2025-05-18T10:22:46.973</time></trkpt><trkpt lat="55.6124855" lon="49.5324840"><time>2025-05-18T10:22:53.003</time></trkpt><trkpt lat="55.6125127" lon="49.5325698"><time>2025-05-18T10:22:56.983</time></trkpt><trkpt lat="55.6125483" lon="49.5326440"><time>2025-05-18T10:23:00.243</time></trkpt><trkpt lat="55.6125902" lon="49.5326974"><time>2025-05-18T10:23:02.017</time></trkpt><trkpt lat="55.6126395" lon="49.5327678"><time>2025-05-18T10:23:05.167</time></trkpt><trkpt lat="55.6126944" lon="49.5327562"><time>2025-05-18T10:23:07.993</time></trkpt><trkpt lat="55.6127364" lon="49.5327275"><time>2025-05-18T10:23:11.197</time></trkpt><trkpt lat="55.6127862" lon="49.5327369"><time>2025-05-18T10:23:14.220</time></trkpt><trkpt lat="55.6128423" lon="49.5327484"><time>2025-05-18T10:23:16.993</time></trkpt><trkpt lat="55.6128946" lon="49.5327440"><time>2025-05-18T10:23:20.240</time></trkpt><trkpt lat="55.6129554" lon="49.5327528"><time>2025-05-18T10:23:23.160</time></trkpt><trkpt lat="55.6129938" lon="49.5327454"><time>2025-05-18T10:23:26.480</time></trkpt><trkpt lat="55.6130030" lon="49.5327405"><time>2025-05-18T10:23:27.220</time></trkpt><trkpt lat="55.6129430" lon="49.5327260"><time>2025-05-18T10:23:34.933</time></trkpt><trkpt lat="55.6128753" lon="49.5327151"><time>2025-05-18T10:23:37.947</time></trkpt><trkpt lat="55.6128300" lon="49.5327059"><time>2025-05-18T10:23:39.940</time></trkpt><trkpt lat="55.6127705" lon="49.5326993"><time>2025-05-18T10:23:43.080</time></trkpt><trkpt lat="55.6127083" lon="49.5326772"><time>2025-05-18T10:23:46.047</time></trkpt><trkpt lat="55.6126623" lon="49.5326872"><time>2025-05-18T10:23:47.917</time></trkpt><trkpt lat="55.6126157" lon="49.5326669"><time>2025-05-18T10:23:50.943</time></trkpt><trkpt lat="55.6125716" lon="49.5325957"><time>2025-05-18T10:23:53.947</time></trkpt><trkpt lat="55.6125384" lon="49.5325413"><time>2025-05-18T10:23:56.030</time></trkpt><trkpt lat="55.6125025" lon="49.5324910"><time>2025-05-18T10:23:57.937</time></trkpt><trkpt lat="55.6124496" lon="49.5324212"><time>2025-05-18T10:24:01.007</time></trkpt><trkpt lat="55.6123872" lon="49.5323846"><time>2025-05-18T10:24:04.067</time></trkpt><trkpt lat="55.6123398" lon="49.5323561"><time>2025-05-18T10:24:06.053</time></trkpt><trkpt lat="55.6122932" lon="49.5323175"><time>2025-05-18T10:24:07.950</time></trkpt><trkpt lat="55.6122551" lon="49.5322467"><time>2025-05-18T10:24:10.957</time></trkpt><trkpt lat="55.6122324" lon="49.5321618"><time>2025-05-18T10:24:14.207</time></trkpt><trkpt lat="55.6122221" lon="49.5320712"><time>2025-05-18T10:24:17</time></trkpt><trkpt lat="55.6122238" lon="49.5319812"><time>2025-05-18T10:24:20.207</time></trkpt><trkpt lat="55.6122254" lon="49.5318827"><time>2025-05-18T10:24:24.223</time></trkpt><trkpt lat="55.6122271" lon="49.5317998"><time>2025-05-18T10:24:26.987</time></trkpt><trkpt lat="55.6122377" lon="49.5317158"><time>2025-05-18T10:24:29.933</time></trkpt><trkpt lat="55.6122685" lon="49.5316269"><time>2025-05-18T10:24:33.947</time></trkpt><trkpt lat="55.6122939" lon="49.5315563"><time>2025-05-18T10:24:59.960</time></trkpt><trkpt lat="55.6123207" lon="49.5314862"><time>2025-05-18T10:25:05.943</time></trkpt><trkpt lat="55.6123574" lon="49.5314285"><time>2025-05-18T10:25:12.960</time></trkpt><trkpt lat="55.6123898" lon="49.5313377"><time>2025-05-18T10:25:16.953</time></trkpt><trkpt lat="55.6124255" lon="49.5312571"><time>2025-05-18T10:25:21.073</time></trkpt><trkpt lat="55.6124670" lon="49.5311909"><time>2025-05-18T10:25:25.093</time></trkpt><trkpt lat="55.6125159" lon="49.5311594"><time>2025-05-18T10:25:29.090</time></trkpt><trkpt lat="55.6125677" lon="49.5311491"><time>2025-05-18T10:25:31.957</time></trkpt><trkpt lat="55.6126119" lon="49.5311235"><time>2025-05-18T10:25:34.963</time></trkpt><trkpt lat="55.6126582" lon="49.5310787"><time>2025-05-18T10:25:40.063</time></trkpt><trkpt lat="55.6127023" lon="49.5310329"><time>2025-05-18T10:25:45.157</time></trkpt><trkpt lat="55.6127563" lon="49.5310081"><time>2025-05-18T10:25:48.947</time></trkpt><trkpt lat="55.6128106" lon="49.5309798"><time>2025-05-18T10:25:51.923</time></trkpt><trkpt lat="55.6128571" lon="49.5309723"><time>2025-05-18T10:25:55.053</time></trkpt><trkpt lat="55.6129086" lon="49.5309433"><time>2025-05-18T10:25:58.937</time></trkpt><trkpt lat="55.6129547" lon="49.5309061"><time>2025-05-18T10:26:01.943</time></trkpt><trkpt lat="55.6130045" lon="49.5308638"><time>2025-05-18T10:26:06.017</time></trkpt><trkpt lat="55.6130549" lon="49.5308242"><time>2025-05-18T10:26:10.193</time></trkpt><trkpt lat="55.6131007" lon="49.5307928"><time>2025-05-18T10:26:12.980</time></trkpt><trkpt lat="55.6131457" lon="49.5307537"><time>2025-05-18T10:26:15.937</time></trkpt><trkpt lat="55.6132003" lon="49.5307249"><time>2025-05-18T10:26:19.987</time></trkpt><trkpt lat="55.6132489" lon="49.5306784"><time>2025-05-18T10:26:24.027</time></trkpt><trkpt lat="55.6132971" lon="49.5306512"><time>2025-05-18T10:26:27.007</time></trkpt><trkpt lat="55.6133507" lon="49.5306383"><time>2025-05-18T10:26:31.190</time></trkpt><trkpt lat="55.6133953" lon="49.5306091"><time>2025-05-18T10:26:34.010</time></trkpt><trkpt lat="55.6134486" lon="49.5305919"><time>2025-05-18T10:26:37.957</time></trkpt><trkpt lat="55.6135069" lon="49.5305688"><time>2025-05-18T10:26:41.940</time></trkpt><trkpt lat="55.6135608" lon="49.5305199"><time>2025-05-18T10:26:45.943</time></trkpt><trkpt lat="55.6136093" lon="49.5304933"><time>2025-05-18T10:26:49.020</time></trkpt><trkpt lat="55.6136595" lon="49.5304618"><time>2025-05-18T10:26:54.013</time></trkpt><trkpt lat="55.6137061" lon="49.5304530"><time>2025-05-18T10:26:57.947</time></trkpt><trkpt lat="55.6137544" lon="49.5304424"><time>2025-05-18T10:27:01.957</time></trkpt><trkpt lat="55.6138003" lon="49.5304239"><time>2025-05-18T10:27:05.210</time></trkpt><trkpt lat="55.6138532" lon="49.5304079"><time>2025-05-18T10:27:08.060</time></trkpt><trkpt lat="55.6139031" lon="49.5304055"><time>2025-05-18T10:27:11.977</time></trkpt><trkpt lat="55.6139544" lon="49.5303804"><time>2025-05-18T10:27:14.990</time></trkpt><trkpt lat="55.6140058" lon="49.5303416"><time>2025-05-18T10:27:20.047</time></trkpt><trkpt lat="55.6140601" lon="49.5303126"><time>2025-05-18T10:27:23.007</time></trkpt><trkpt lat="55.6141151" lon="49.5302838"><time>2025-05-18T10:27:26.203</time></trkpt><trkpt lat="55.6141606" lon="49.5302623"><time>2025-05-18T10:27:29.187</time></trkpt><trkpt lat="55.6142156" lon="49.5302396"><time>2025-05-18T10:27:33.013</time></trkpt><trkpt lat="55.6142714" lon="49.5302163"><time>2025-05-18T10:27:37</time></trkpt><trkpt lat="55.6143254" lon="49.5301705"><time>2025-05-18T10:27:40.987</time></trkpt><trkpt lat="55.6143782" lon="49.5301547"><time>2025-05-18T10:27:44.017</time></trkpt><trkpt lat="55.6144339" lon="49.5301238"><time>2025-05-18T10:27:46.997</time></trkpt><trkpt lat="55.6144875" lon="49.5300898"><time>2025-05-18T10:27:51.023</time></trkpt><trkpt lat="55.6145342" lon="49.5300469"><time>2025-05-18T10:27:55</time></trkpt><trkpt lat="55.6145890" lon="49.5300085"><time>2025-05-18T10:27:59.253</time></trkpt><trkpt lat="55.6146417" lon="49.5299931"><time>2025-05-18T10:28:02.013</time></trkpt><trkpt lat="55.6147046" lon="49.5300235"><time>2025-05-18T10:28:06.187</time></trkpt><trkpt lat="55.6147642" lon="49.5300114"><time>2025-05-18T10:28:09.010</time></trkpt><trkpt lat="55.6148102" lon="49.5299775"><time>2025-05-18T10:28:11.993</time></trkpt><trkpt lat="55.6148655" lon="49.5299485"><time>2025-05-18T10:28:16.187</time></trkpt><trkpt lat="55.6149218" lon="49.5299230"><time>2025-05-18T10:28:20.193</time></trkpt><trkpt lat="55.6149681" lon="49.5298924"><time>2025-05-18T10:28:23.183</time></trkpt><trkpt lat="55.6150222" lon="49.5298570"><time>2025-05-18T10:28:26.987</time></trkpt><trkpt lat="55.6150658" lon="49.5298375"><time>2025-05-18T10:28:30.207</time></trkpt><trkpt lat="55.6151122" lon="49.5298123"><time>2025-05-18T10:28:34.017</time></trkpt><trkpt lat="55.6151592" lon="49.5297613"><time>2025-05-18T10:28:38.187</time></trkpt><trkpt lat="55.6152084" lon="49.5297077"><time>2025-05-18T10:28:42.027</time></trkpt><trkpt lat="55.6152502" lon="49.5296609"><time>2025-05-18T10:28:45.233</time></trkpt><trkpt lat="55.6153074" lon="49.5296231"><time>2025-05-18T10:28:49</time></trkpt><trkpt lat="55.6153499" lon="49.5295908"><time>2025-05-18T10:28:52.023</time></trkpt><trkpt lat="55.6154028" lon="49.5295324"><time>2025-05-18T10:28:55.987</time></trkpt><trkpt lat="55.6154417" lon="49.5294796"><time>2025-05-18T10:28:59.017</time></trkpt><trkpt lat="55.6154802" lon="49.5294105"><time>2025-05-18T10:29:03.003</time></trkpt><trkpt lat="55.6155228" lon="49.5293703"><time>2025-05-18T10:29:06.027</time></trkpt><trkpt lat="55.6155662" lon="49.5293011"><time>2025-05-18T10:29:09.977</time></trkpt><trkpt lat="55.6155915" lon="49.5292350"><time>2025-05-18T10:29:13.017</time></trkpt><trkpt lat="55.6156245" lon="49.5291569"><time>2025-05-18T10:29:16.997</time></trkpt><trkpt lat="55.6156423" lon="49.5290749"><time>2025-05-18T10:29:20.957</time></trkpt><trkpt lat="55.6156552" lon="49.5289849"><time>2025-05-18T10:29:31.227</time></trkpt><trkpt lat="55.6156827" lon="49.5289197"><time>2025-05-18T10:29:33.997</time></trkpt><trkpt lat="55.6157165" lon="49.5288497"><time>2025-05-18T10:29:38.030</time></trkpt><trkpt lat="55.6157414" lon="49.5287805"><time>2025-05-18T10:29:41.977</time></trkpt><trkpt lat="55.6157659" lon="49.5287011"><time>2025-05-18T10:29:46.180</time></trkpt><trkpt lat="55.6157826" lon="49.5286137"><time>2025-05-18T10:29:50.083</time></trkpt><trkpt lat="55.6158088" lon="49.5285241"><time>2025-05-18T10:29:53.020</time></trkpt><trkpt lat="55.6158291" lon="49.5284499"><time>2025-05-18T10:29:56.203</time></trkpt><trkpt lat="55.6158512" lon="49.5283783"><time>2025-05-18T10:29:59.230</time></trkpt><trkpt lat="55.6158706" lon="49.5282904"><time>2025-05-18T10:30:03.067</time></trkpt><trkpt lat="55.6158926" lon="49.5282005"><time>2025-05-18T10:30:07.013</time></trkpt><trkpt lat="55.6159167" lon="49.5281284"><time>2025-05-18T10:30:10</time></trkpt><trkpt lat="55.6159371" lon="49.5280552"><time>2025-05-18T10:30:13.003</time></trkpt><trkpt lat="55.6159566" lon="49.5279747"><time>2025-05-18T10:30:16.170</time></trkpt><trkpt lat="55.6159909" lon="49.5278986"><time>2025-05-18T10:30:20.253</time></trkpt><trkpt lat="55.6160243" lon="49.5278153"><time>2025-05-18T10:30:24.007</time></trkpt><trkpt lat="55.6160361" lon="49.5277248"><time>2025-05-18T10:30:28.010</time></trkpt><trkpt lat="55.6160579" lon="49.5276253"><time>2025-05-18T10:30:32.020</time></trkpt><trkpt lat="55.6160846" lon="49.5275293"><time>2025-05-18T10:30:36.003</time></trkpt><trkpt lat="55.6161054" lon="49.5274489"><time>2025-05-18T10:30:40.013</time></trkpt><trkpt lat="55.6161239" lon="49.5273572"><time>2025-05-18T10:30:44.010</time></trkpt><trkpt lat="55.6161547" lon="49.5272652"><time>2025-05-18T10:30:47.993</time></trkpt><trkpt lat="55.6161785" lon="49.5271731"><time>2025-05-18T10:30:52.017</time></trkpt><trkpt lat="55.6161997" lon="49.5270808"><time>2025-05-18T10:30:56.017</time></trkpt><trkpt lat="55.6162239" lon="49.5269879"><time>2025-05-18T10:31:00.007</time></trkpt><trkpt lat="55.6162554" lon="49.5269106"><time>2025-05-18T10:31:04.003</time></trkpt><trkpt lat="55.6162825" lon="49.5268295"><time>2025-05-18T10:31:08.017</time></trkpt><trkpt lat="55.6162918" lon="49.5267320"><time>2025-05-18T10:31:12</time></trkpt><trkpt lat="55.6163068" lon="49.5266561"><time>2025-05-18T10:31:15.173</time></trkpt><trkpt lat="55.6163205" lon="49.5265757"><time>2025-05-18T10:31:18.003</time></trkpt><trkpt lat="55.6163370" lon="49.5264977"><time>2025-05-18T10:31:21</time></trkpt><trkpt lat="55.6163535" lon="49.5264028"><time>2025-05-18T10:31:25.013</time></trkpt><trkpt lat="55.6163790" lon="49.5263330"><time>2025-05-18T10:31:28</time></trkpt><trkpt lat="55.6164038" lon="49.5262602"><time>2025-05-18T10:31:30.983</time></trkpt><trkpt lat="55.6164327" lon="49.5261840"><time>2025-05-18T10:31:35.010</time></trkpt><trkpt lat="55.6164618" lon="49.5260968"><time>2025-05-18T10:31:39.017</time></trkpt><trkpt lat="55.6164874" lon="49.5260017"><time>2025-05-18T10:31:43.047</time></trkpt><trkpt lat="55.6165153" lon="49.5259311"><time>2025-05-18T10:31:46.227</time></trkpt><trkpt lat="55.6165481" lon="49.5258673"><time>2025-05-18T10:31:49.287</time></trkpt><trkpt lat="55.6165791" lon="49.5258022"><time>2025-05-18T10:31:51.973</time></trkpt><trkpt lat="55.6166102" lon="49.5257279"><time>2025-05-18T10:31:55.270</time></trkpt><trkpt lat="55.6166240" lon="49.5256514"><time>2025-05-18T10:31:57.997</time></trkpt><trkpt lat="55.6166478" lon="49.5255822"><time>2025-05-18T10:32:02.007</time></trkpt><trkpt lat="55.6166882" lon="49.5255108"><time>2025-05-18T10:32:05.253</time></trkpt><trkpt lat="55.6167158" lon="49.5254440"><time>2025-05-18T10:32:07.997</time></trkpt><trkpt lat="55.6167473" lon="49.5253830"><time>2025-05-18T10:32:12.013</time></trkpt><trkpt lat="55.6167730" lon="49.5253070"><time>2025-05-18T10:32:16.010</time></trkpt><trkpt lat="55.6168041" lon="49.5252487"><time>2025-05-18T10:32:19.197</time></trkpt><trkpt lat="55.6168263" lon="49.5251534"><time>2025-05-18T10:32:23.007</time></trkpt><trkpt lat="55.6168418" lon="49.5250699"><time>2025-05-18T10:32:27</time></trkpt><trkpt lat="55.6168647" lon="49.5249822"><time>2025-05-18T10:32:31.217</time></trkpt><trkpt lat="55.6168972" lon="49.5249118"><time>2025-05-18T10:32:34.970</time></trkpt><trkpt lat="55.6169141" lon="49.5248351"><time>2025-05-18T10:32:38.017</time></trkpt><trkpt lat="55.6169399" lon="49.5247406"><time>2025-05-18T10:32:41.977</time></trkpt><trkpt lat="55.6169596" lon="49.5246543"><time>2025-05-18T10:32:46.033</time></trkpt><trkpt lat="55.6169873" lon="49.5245782"><time>2025-05-18T10:32:50.203</time></trkpt><trkpt lat="55.6170195" lon="49.5244871"><time>2025-05-18T10:32:54.013</time></trkpt><trkpt lat="55.6170420" lon="49.5244179"><time>2025-05-18T10:32:56.947</time></trkpt><trkpt lat="55.6170692" lon="49.5243494"><time>2025-05-18T10:33:00.173</time></trkpt><trkpt lat="55.6170979" lon="49.5242607"><time>2025-05-18T10:33:04.027</time></trkpt><trkpt lat="55.6171293" lon="49.5241750"><time>2025-05-18T10:33:08.007</time></trkpt><trkpt lat="55.6171607" lon="49.5241055"><time>2025-05-18T10:33:11.997</time></trkpt><trkpt lat="55.6171895" lon="49.5240300"><time>2025-05-18T10:33:16.183</time></trkpt><trkpt lat="55.6172089" lon="49.5239482"><time>2025-05-18T10:33:19.003</time></trkpt><trkpt lat="55.6172324" lon="49.5238664"><time>2025-05-18T10:33:22.963</time></trkpt><trkpt lat="55.6172571" lon="49.5237988"><time>2025-05-18T10:33:26.043</time></trkpt><trkpt lat="55.6172810" lon="49.5237224"><time>2025-05-18T10:33:29.303</time></trkpt><trkpt lat="55.6173159" lon="49.5236433"><time>2025-05-18T10:33:33.020</time></trkpt><trkpt lat="55.6173479" lon="49.5235672"><time>2025-05-18T10:33:37.020</time></trkpt><trkpt lat="55.6173844" lon="49.5234898"><time>2025-05-18T10:33:41.187</time></trkpt><trkpt lat="55.6174268" lon="49.5234084"><time>2025-05-18T10:33:45.207</time></trkpt><trkpt lat="55.6174544" lon="49.5233332"><time>2025-05-18T10:33:48.190</time></trkpt><trkpt lat="55.6174837" lon="49.5232590"><time>2025-05-18T10:33:51.027</time></trkpt><trkpt lat="55.6175071" lon="49.5231666"><time>2025-05-18T10:33:55.190</time></trkpt><trkpt lat="55.6175322" lon="49.5230840"><time>2025-05-18T10:33:59.200</time></trkpt><trkpt lat="55.6175605" lon="49.5229885"><time>2025-05-18T10:34:04.187</time></trkpt><trkpt lat="55.6175787" lon="49.5228959"><time>2025-05-18T10:34:08.007</time></trkpt><trkpt lat="55.6176047" lon="49.5228001"><time>2025-05-18T10:34:12.013</time></trkpt><trkpt lat="55.6176310" lon="49.5227118"><time>2025-05-18T10:34:16.227</time></trkpt><trkpt lat="55.6176660" lon="49.5226340"><time>2025-05-18T10:34:20.247</time></trkpt><trkpt lat="55.6176862" lon="49.5225600"><time>2025-05-18T10:34:24.267</time></trkpt><trkpt lat="55.6177131" lon="49.5224704"><time>2025-05-18T10:34:28.017</time></trkpt><trkpt lat="55.6177381" lon="49.5223799"><time>2025-05-18T10:34:31.977</time></trkpt><trkpt lat="55.6177612" lon="49.5223010"><time>2025-05-18T10:34:36.167</time></trkpt><trkpt lat="55.6177885" lon="49.5222183"><time>2025-05-18T10:34:40.023</time></trkpt><trkpt lat="55.6178084" lon="49.5221323"><time>2025-05-18T10:34:44.010</time></trkpt><trkpt lat="55.6178260" lon="49.5220363"><time>2025-05-18T10:34:48.130</time></trkpt><trkpt lat="55.6178363" lon="49.5219585"><time>2025-05-18T10:34:51.273</time></trkpt><trkpt lat="55.6178517" lon="49.5218709"><time>2025-05-18T10:34:55.310</time></trkpt><trkpt lat="55.6178674" lon="49.5217964"><time>2025-05-18T10:34:58.013</time></trkpt><trkpt lat="55.6178905" lon="49.5217191"><time>2025-05-18T10:35:01.983</time></trkpt><trkpt lat="55.6179167" lon="49.5216317"><time>2025-05-18T10:35:06.240</time></trkpt><trkpt lat="55.6179427" lon="49.5215380"><time>2025-05-18T10:35:10.193</time></trkpt><trkpt lat="55.6179631" lon="49.5214595"><time>2025-05-18T10:35:13.023</time></trkpt><trkpt lat="55.6179890" lon="49.5213800"><time>2025-05-18T10:35:16.963</time></trkpt><trkpt lat="55.6180151" lon="49.5212940"><time>2025-05-18T10:35:20.990</time></trkpt><trkpt lat="55.6180307" lon="49.5212025"><time>2025-05-18T10:35:25.013</time></trkpt><trkpt lat="55.6180498" lon="49.5211254"><time>2025-05-18T10:35:28.027</time></trkpt><trkpt lat="55.6180674" lon="49.5210273"><time>2025-05-18T10:35:30.983</time></trkpt><trkpt lat="55.6180909" lon="49.5209449"><time>2025-05-18T10:35:34.023</time></trkpt><trkpt lat="55.6181211" lon="49.5208682"><time>2025-05-18T10:35:37.013</time></trkpt><trkpt lat="55.6181485" lon="49.5207732"><time>2025-05-18T10:35:40.010</time></trkpt><trkpt lat="55.6181726" lon="49.5206744"><time>2025-05-18T10:35:43.023</time></trkpt><trkpt lat="55.6181967" lon="49.5206071"><time>2025-05-18T10:35:45.213</time></trkpt><trkpt lat="55.6182254" lon="49.5205083"><time>2025-05-18T10:35:48.023</time></trkpt><trkpt lat="55.6182496" lon="49.5204045"><time>2025-05-18T10:35:51.023</time></trkpt><trkpt lat="55.6182736" lon="49.5203019"><time>2025-05-18T10:35:54</time></trkpt><trkpt lat="55.6182929" lon="49.5202260"><time>2025-05-18T10:35:56.207</time></trkpt><trkpt lat="55.6183226" lon="49.5201218"><time>2025-05-18T10:35:59.263</time></trkpt><trkpt lat="55.6183497" lon="49.5200205"><time>2025-05-18T10:36:02.030</time></trkpt><trkpt lat="55.6183662" lon="49.5199347"><time>2025-05-18T10:36:05.170</time></trkpt><trkpt lat="55.6183637" lon="49.5198544"><time>2025-05-18T10:36:13.017</time></trkpt><trkpt lat="55.6183677" lon="49.5197648"><time>2025-05-18T10:36:18.023</time></trkpt><trkpt lat="55.6183756" lon="49.5196728"><time>2025-05-18T10:36:22.023</time></trkpt><trkpt lat="55.6183849" lon="49.5195770"><time>2025-05-18T10:36:26.200</time></trkpt><trkpt lat="55.6183992" lon="49.5194913"><time>2025-05-18T10:36:30.040</time></trkpt><trkpt lat="55.6184159" lon="49.5194009"><time>2025-05-18T10:36:33.997</time></trkpt><trkpt lat="55.6184097" lon="49.5193216"><time>2025-05-18T10:36:37.007</time></trkpt><trkpt lat="55.6183970" lon="49.5192331"><time>2025-05-18T10:36:40.263</time></trkpt><trkpt lat="55.6183896" lon="49.5191458"><time>2025-05-18T10:36:43.027</time></trkpt><trkpt lat="55.6183876" lon="49.5190604"><time>2025-05-18T10:36:46.020</time></trkpt><trkpt lat="55.6183659" lon="49.5189709"><time>2025-05-18T10:36:50.187</time></trkpt><trkpt lat="55.6183534" lon="49.5188861"><time>2025-05-18T10:36:53.013</time></trkpt><trkpt lat="55.6183364" lon="49.5188014"><time>2025-05-18T10:36:56.280</time></trkpt><trkpt lat="55.6183236" lon="49.5186981"><time>2025-05-18T10:37:00.200</time></trkpt><trkpt lat="55.6183176" lon="49.5186132"><time>2025-05-18T10:37:03.020</time></trkpt><trkpt lat="55.6182995" lon="49.5185221"><time>2025-05-18T10:37:06.990</time></trkpt><trkpt lat="55.6182835" lon="49.5184255"><time>2025-05-18T10:37:11.267</time></trkpt><trkpt lat="55.6182715" lon="49.5183263"><time>2025-05-18T10:37:15.210</time></trkpt><trkpt lat="55.6182627" lon="49.5182483"><time>2025-05-18T10:37:18.193</time></trkpt><trkpt lat="55.6182490" lon="49.5181413"><time>2025-05-18T10:37:21.987</time></trkpt><trkpt lat="55.6182382" lon="49.5180593"><time>2025-05-18T10:37:25.200</time></trkpt><trkpt lat="55.6182184" lon="49.5179611"><time>2025-05-18T10:37:29.020</time></trkpt><trkpt lat="55.6182127" lon="49.5178808"><time>2025-05-18T10:37:32.030</time></trkpt><trkpt lat="55.6182035" lon="49.5177954"><time>2025-05-18T10:37:35.187</time></trkpt><trkpt lat="55.6181909" lon="49.5177182"><time>2025-05-18T10:37:38.003</time></trkpt><trkpt lat="55.6181764" lon="49.5176249"><time>2025-05-18T10:37:42.010</time></trkpt><trkpt lat="55.6181646" lon="49.5175443"><time>2025-05-18T10:37:44.943</time></trkpt><trkpt lat="55.6181631" lon="49.5174483"><time>2025-05-18T10:37:49.033</time></trkpt><trkpt lat="55.6181505" lon="49.5173678"><time>2025-05-18T10:37:52.020</time></trkpt><trkpt lat="55.6181383" lon="49.5172680"><time>2025-05-18T10:37:56.217</time></trkpt><trkpt lat="55.6181279" lon="49.5171870"><time>2025-05-18T10:37:59.193</time></trkpt><trkpt lat="55.6181153" lon="49.5170914"><time>2025-05-18T10:38:02.017</time></trkpt><trkpt lat="55.6180965" lon="49.5170026"><time>2025-05-18T10:38:05.207</time></trkpt><trkpt lat="55.6180848" lon="49.5169174"><time>2025-05-18T10:38:08.010</time></trkpt><trkpt lat="55.6180719" lon="49.5168200"><time>2025-05-18T10:38:11.217</time></trkpt><trkpt lat="55.6180568" lon="49.5167434"><time>2025-05-18T10:38:13.030</time></trkpt><trkpt lat="55.6180415" lon="49.5166330"><time>2025-05-18T10:38:16.180</time></trkpt><trkpt lat="55.6180244" lon="49.5165163"><time>2025-05-18T10:38:19.207</time></trkpt><trkpt lat="55.6180092" lon="49.5164034"><time>2025-05-18T10:38:22.010</time></trkpt><trkpt lat="55.6179978" lon="49.5163211"><time>2025-05-18T10:38:24.250</time></trkpt><trkpt lat="55.6179826" lon="49.5162460"><time>2025-05-18T10:38:26.233</time></trkpt><trkpt lat="55.6179644" lon="49.5161349"><time>2025-05-18T10:38:29.057</time></trkpt><trkpt lat="55.6179535" lon="49.5160528"><time>2025-05-18T10:38:31.183</time></trkpt><trkpt lat="55.6179468" lon="49.5159418"><time>2025-05-18T10:38:34.040</time></trkpt><trkpt lat="55.6179316" lon="49.5158288"><time>2025-05-18T10:38:37.027</time></trkpt><trkpt lat="55.6179149" lon="49.5157161"><time>2025-05-18T10:38:39.947</time></trkpt><trkpt lat="55.6178970" lon="49.5156126"><time>2025-05-18T10:38:43.063</time></trkpt><trkpt lat="55.6178808" lon="49.5155101"><time>2025-05-18T10:38:45.980</time></trkpt><trkpt lat="55.6178684" lon="49.5153963"><time>2025-05-18T10:38:49.230</time></trkpt><trkpt lat="55.6178554" lon="49.5152808"><time>2025-05-18T10:38:51.973</time></trkpt><trkpt lat="55.6178344" lon="49.5151661"><time>2025-05-18T10:38:55.277</time></trkpt><trkpt lat="55.6178111" lon="49.5150563"><time>2025-05-18T10:38:58.027</time></trkpt><trkpt lat="55.6177934" lon="49.5149469"><time>2025-05-18T10:39:01.030</time></trkpt><trkpt lat="55.6177854" lon="49.5148613"><time>2025-05-18T10:39:03.013</time></trkpt><trkpt lat="55.6177807" lon="49.5147720"><time>2025-05-18T10:39:05.027</time></trkpt><trkpt lat="55.6177748" lon="49.5146859"><time>2025-05-18T10:39:07.010</time></trkpt><trkpt lat="55.6177717" lon="49.5146029"><time>2025-05-18T10:39:09.297</time></trkpt><trkpt lat="55.6177858" lon="49.5144920"><time>2025-05-18T10:39:12</time></trkpt><trkpt lat="55.6178118" lon="49.5144175"><time>2025-05-18T10:39:14.033</time></trkpt><trkpt lat="55.6178331" lon="49.5143462"><time>2025-05-18T10:39:16.230</time></trkpt><trkpt lat="55.6178689" lon="49.5142606"><time>2025-05-18T10:39:19.237</time></trkpt><trkpt lat="55.6179031" lon="49.5141662"><time>2025-05-18T10:39:22.017</time></trkpt><trkpt lat="55.6179398" lon="49.5140827"><time>2025-05-18T10:39:25.207</time></trkpt><trkpt lat="55.6179706" lon="49.5139802"><time>2025-05-18T10:39:28.023</time></trkpt><trkpt lat="55.6180054" lon="49.5138788"><time>2025-05-18T10:39:31.200</time></trkpt><trkpt lat="55.6180392" lon="49.5137754"><time>2025-05-18T10:39:34.217</time></trkpt><trkpt lat="55.6180759" lon="49.5136782"><time>2025-05-18T10:39:37.023</time></trkpt><trkpt lat="55.6181102" lon="49.5135789"><time>2025-05-18T10:39:40.213</time></trkpt><trkpt lat="55.6181361" lon="49.5135110"><time>2025-05-18T10:39:42.003</time></trkpt><trkpt lat="55.6181724" lon="49.5134218"><time>2025-05-18T10:39:45.237</time></trkpt><trkpt lat="55.6182047" lon="49.5133237"><time>2025-05-18T10:39:48.020</time></trkpt><trkpt lat="55.6182402" lon="49.5132218"><time>2025-05-18T10:39:51.267</time></trkpt><trkpt lat="55.6182663" lon="49.5131527"><time>2025-05-18T10:39:53.013</time></trkpt><trkpt lat="55.6182915" lon="49.5130847"><time>2025-05-18T10:39:55.293</time></trkpt><trkpt lat="55.6183340" lon="49.5129935"><time>2025-05-18T10:39:58.017</time></trkpt><trkpt lat="55.6183604" lon="49.5129280"><time>2025-05-18T10:40:00.170</time></trkpt><trkpt lat="55.6183838" lon="49.5128582"><time>2025-05-18T10:40:02</time></trkpt><trkpt lat="55.6184096" lon="49.5127888"><time>2025-05-18T10:40:04</time></trkpt><trkpt lat="55.6184335" lon="49.5127204"><time>2025-05-18T10:40:05.997</time></trkpt><trkpt lat="55.6184575" lon="49.5126494"><time>2025-05-18T10:40:08.027</time></trkpt><trkpt lat="55.6184918" lon="49.5125525"><time>2025-05-18T10:40:11.230</time></trkpt><trkpt lat="55.6185221" lon="49.5124535"><time>2025-05-18T10:40:13.977</time></trkpt><trkpt lat="55.6185520" lon="49.5123708"><time>2025-05-18T10:40:17.020</time></trkpt><trkpt lat="55.6185826" lon="49.5122721"><time>2025-05-18T10:40:20.193</time></trkpt><trkpt lat="55.6186164" lon="49.5121892"><time>2025-05-18T10:40:23.020</time></trkpt><trkpt lat="55.6186466" lon="49.5120967"><time>2025-05-18T10:40:26.017</time></trkpt><trkpt lat="55.6186759" lon="49.5119983"><time>2025-05-18T10:40:29.227</time></trkpt><trkpt lat="55.6186876" lon="49.5118933"><time>2025-05-18T10:40:32.027</time></trkpt><trkpt lat="55.6186937" lon="49.5117885"><time>2025-05-18T10:40:34.950</time></trkpt><trkpt lat="55.6186820" lon="49.5116821"><time>2025-05-18T10:40:38.040</time></trkpt><trkpt lat="55.6186725" lon="49.5115792"><time>2025-05-18T10:40:41.047</time></trkpt><trkpt lat="55.6186677" lon="49.5114785"><time>2025-05-18T10:40:44.220</time></trkpt><trkpt lat="55.6186618" lon="49.5113979"><time>2025-05-18T10:40:47.027</time></trkpt><trkpt lat="55.6186659" lon="49.5112936"><time>2025-05-18T10:40:51.197</time></trkpt><trkpt lat="55.6186603" lon="49.5111915"><time>2025-05-18T10:40:55.030</time></trkpt><trkpt lat="55.6186580" lon="49.5110876"><time>2025-05-18T10:40:59.263</time></trkpt><trkpt lat="55.6186580" lon="49.5110079"><time>2025-05-18T10:41:01.997</time></trkpt><trkpt lat="55.6186550" lon="49.5109055"><time>2025-05-18T10:41:06.210</time></trkpt><trkpt lat="55.6186589" lon="49.5108091"><time>2025-05-18T10:41:10.273</time></trkpt><trkpt lat="55.6186685" lon="49.5107251"><time>2025-05-18T10:41:13.007</time></trkpt><trkpt lat="55.6186760" lon="49.5106268"><time>2025-05-18T10:41:17.017</time></trkpt><trkpt lat="55.6186963" lon="49.5105385"><time>2025-05-18T10:41:21.273</time></trkpt><trkpt lat="55.6187076" lon="49.5104503"><time>2025-05-18T10:41:25.030</time></trkpt><trkpt lat="55.6187134" lon="49.5103669"><time>2025-05-18T10:41:28.033</time></trkpt><trkpt lat="55.6187169" lon="49.5102670"><time>2025-05-18T10:41:31.967</time></trkpt><trkpt lat="55.6187116" lon="49.5101702"><time>2025-05-18T10:41:36.057</time></trkpt><trkpt lat="55.6187321" lon="49.5100814"><time>2025-05-18T10:41:40.020</time></trkpt><trkpt lat="55.6187730" lon="49.5100224"><time>2025-05-18T10:41:43.010</time></trkpt><trkpt lat="55.6188152" lon="49.5099795"><time>2025-05-18T10:41:48.027</time></trkpt><trkpt lat="55.6188588" lon="49.5100020"><time>2025-05-18T10:41:51.030</time></trkpt><trkpt lat="55.6189158" lon="49.5100206"><time>2025-05-18T10:41:55.203</time></trkpt><trkpt lat="55.6189606" lon="49.5100404"><time>2025-05-18T10:41:58.023</time></trkpt><trkpt lat="55.6190186" lon="49.5100536"><time>2025-05-18T10:42:03.003</time></trkpt><trkpt lat="55.6190618" lon="49.5100319"><time>2025-05-18T10:42:07.037</time></trkpt><trkpt lat="55.6191072" lon="49.5100189"><time>2025-05-18T10:42:11.057</time></trkpt><trkpt lat="55.6190970" lon="49.5099317"><time>2025-05-18T10:42:16.217</time></trkpt><trkpt lat="55.6191102" lon="49.5098419"><time>2025-05-18T10:42:27.037</time></trkpt><trkpt lat="55.6191397" lon="49.5097628"><time>2025-05-18T10:42:30.013</time></trkpt><trkpt lat="55.6191698" lon="49.5096851"><time>2025-05-18T10:42:33.027</time></trkpt><trkpt lat="55.6191999" lon="49.5096168"><time>2025-05-18T10:42:35.963</time></trkpt><trkpt lat="55.6192260" lon="49.5095418"><time>2025-05-18T10:42:41.960</time></trkpt><trkpt lat="55.6192260" lon="49.5095418"><time>2025-05-18T10:42:42.590</time></trkpt><trkpt lat="55.6191798" lon="49.5095554"><time>2025-05-18T10:42:49.947</time></trkpt><trkpt lat="55.6191460" lon="49.5096313"><time>2025-05-18T10:42:53.023</time></trkpt><trkpt lat="55.6191158" lon="49.5097039"><time>2025-05-18T10:42:56.193</time></trkpt><trkpt lat="55.6190927" lon="49.5097995"><time>2025-05-18T10:42:59.240</time></trkpt><trkpt lat="55.6191122" lon="49.5098859"><time>2025-05-18T10:43:03.033</time></trkpt><trkpt lat="55.6191702" lon="49.5099156"><time>2025-05-18T10:43:07.030</time></trkpt><trkpt lat="55.6192012" lon="49.5099897"><time>2025-05-18T10:43:16.230</time></trkpt><trkpt lat="55.6192460" lon="49.5100021"><time>2025-05-18T10:44:00.243</time></trkpt><trkpt lat="55.6192910" lon="49.5100200"><time>2025-05-18T10:44:04.210</time></trkpt><trkpt lat="55.6193368" lon="49.5099989"><time>2025-05-18T10:44:07.010</time></trkpt><trkpt lat="55.6193795" lon="49.5099727"><time>2025-05-18T10:44:11.060</time></trkpt><trkpt lat="55.6194302" lon="49.5099641"><time>2025-05-18T10:44:15.207</time></trkpt><trkpt lat="55.6194797" lon="49.5100198"><time>2025-05-18T10:44:19.240</time></trkpt><trkpt lat="55.6195228" lon="49.5099697"><time>2025-05-18T10:44:22.013</time></trkpt><trkpt lat="55.6195800" lon="49.5099324"><time>2025-05-18T10:44:26.207</time></trkpt><trkpt lat="55.6196278" lon="49.5099148"><time>2025-05-18T10:44:29.220</time></trkpt><trkpt lat="55.6196822" lon="49.5099255"><time>2025-05-18T10:44:33.033</time></trkpt><trkpt lat="55.6197334" lon="49.5099459"><time>2025-05-18T10:44:37.013</time></trkpt><trkpt lat="55.6197794" lon="49.5099648"><time>2025-05-18T10:44:41.233</time></trkpt><trkpt lat="55.6198404" lon="49.5099781"><time>2025-05-18T10:44:45.027</time></trkpt><trkpt lat="55.6198852" lon="49.5100029"><time>2025-05-18T10:44:50.283</time></trkpt><trkpt lat="55.6199362" lon="49.5099783"><time>2025-05-18T10:44:55.027</time></trkpt><trkpt lat="55.6199864" lon="49.5099670"><time>2025-05-18T10:44:58.030</time></trkpt><trkpt lat="55.6200427" lon="49.5099446"><time>2025-05-18T10:45:02.030</time></trkpt><trkpt lat="55.6200870" lon="49.5099300"><time>2025-05-18T10:45:06.013</time></trkpt><trkpt lat="55.6201384" lon="49.5099108"><time>2025-05-18T10:45:10.030</time></trkpt><trkpt lat="55.6201987" lon="49.5098956"><time>2025-05-18T10:45:14.033</time></trkpt><trkpt lat="55.6202454" lon="49.5098729"><time>2025-05-18T10:45:17.027</time></trkpt><trkpt lat="55.6202906" lon="49.5098629"><time>2025-05-18T10:45:20.300</time></trkpt><trkpt lat="55.6203354" lon="49.5098578"><time>2025-05-18T10:45:23.030</time></trkpt><trkpt lat="55.6203861" lon="49.5098217"><time>2025-05-18T10:45:26.220</time></trkpt><trkpt lat="55.6204319" lon="49.5098014"><time>2025-05-18T10:45:31.223</time></trkpt><trkpt lat="55.6204804" lon="49.5097822"><time>2025-05-18T10:45:36.217</time></trkpt><trkpt lat="55.6205389" lon="49.5097690"><time>2025-05-18T10:45:40.193</time></trkpt><trkpt lat="55.6205883" lon="49.5097983"><time>2025-05-18T10:45:44.203</time></trkpt><trkpt lat="55.6206348" lon="49.5098441"><time>2025-05-18T10:45:47.997</time></trkpt><trkpt lat="55.6206834" lon="49.5097933"><time>2025-05-18T10:45:58.213</time></trkpt><trkpt lat="55.6207202" lon="49.5097409"><time>2025-05-18T10:46:02.023</time></trkpt><trkpt lat="55.6207582" lon="49.5096727"><time>2025-05-18T10:46:14.217</time></trkpt><trkpt lat="55.6207879" lon="49.5096132"><time>2025-05-18T10:46:16.997</time></trkpt><trkpt lat="55.6208303" lon="49.5095554"><time>2025-05-18T10:46:21.027</time></trkpt><trkpt lat="55.6208631" lon="49.5094942"><time>2025-05-18T10:46:25.023</time></trkpt><trkpt lat="55.6209041" lon="49.5094385"><time>2025-05-18T10:46:29.020</time></trkpt><trkpt lat="55.6209521" lon="49.5093941"><time>2025-05-18T10:46:33.020</time></trkpt><trkpt lat="55.6209931" lon="49.5093522"><time>2025-05-18T10:46:36.207</time></trkpt><trkpt lat="55.6210243" lon="49.5092833"><time>2025-05-18T10:46:40.183</time></trkpt><trkpt lat="55.6210703" lon="49.5092263"><time>2025-05-18T10:46:44.213</time></trkpt><trkpt lat="55.6211088" lon="49.5091617"><time>2025-05-18T10:46:48.030</time></trkpt><trkpt lat="55.6211440" lon="49.5090980"><time>2025-05-18T10:46:52.023</time></trkpt><trkpt lat="55.6211899" lon="49.5090346"><time>2025-05-18T10:46:56.040</time></trkpt><trkpt lat="55.6212331" lon="49.5089876"><time>2025-05-18T10:47:00.307</time></trkpt><trkpt lat="55.6212664" lon="49.5089095"><time>2025-05-18T10:47:04.023</time></trkpt><trkpt lat="55.6213011" lon="49.5088524"><time>2025-05-18T10:47:07.030</time></trkpt><trkpt lat="55.6213413" lon="49.5087664"><time>2025-05-18T10:47:11.013</time></trkpt><trkpt lat="55.6213754" lon="49.5086993"><time>2025-05-18T10:47:14.033</time></trkpt><trkpt lat="55.6214074" lon="49.5086398"><time>2025-05-18T10:47:17.027</time></trkpt><trkpt lat="55.6214604" lon="49.5086142"><time>2025-05-18T10:47:20.980</time></trkpt><trkpt lat="55.6215034" lon="49.5085697"><time>2025-05-18T10:47:26.217</time></trkpt><trkpt lat="55.6215477" lon="49.5085463"><time>2025-05-18T10:47:29.287</time></trkpt><trkpt lat="55.6215887" lon="49.5085017"><time>2025-05-18T10:47:33.227</time></trkpt><trkpt lat="55.6216419" lon="49.5084484"><time>2025-05-18T10:47:37.007</time></trkpt><trkpt lat="55.6216905" lon="49.5084214"><time>2025-05-18T10:47:40.030</time></trkpt><trkpt lat="55.6217424" lon="49.5083709"><time>2025-05-18T10:47:44.020</time></trkpt><trkpt lat="55.6217723" lon="49.5082935"><time>2025-05-18T10:47:49.223</time></trkpt><trkpt lat="55.6218038" lon="49.5082276"><time>2025-05-18T10:47:53.027</time></trkpt><trkpt lat="55.6218317" lon="49.5081643"><time>2025-05-18T10:47:57.007</time></trkpt><trkpt lat="55.6218698" lon="49.5080905"><time>2025-05-18T10:48:01.270</time></trkpt><trkpt lat="55.6219003" lon="49.5080075"><time>2025-05-18T10:48:05.217</time></trkpt><trkpt lat="55.6219354" lon="49.5079438"><time>2025-05-18T10:48:08.023</time></trkpt><trkpt lat="55.6219725" lon="49.5078762"><time>2025-05-18T10:48:11</time></trkpt><trkpt lat="55.6219997" lon="49.5077924"><time>2025-05-18T10:48:15.040</time></trkpt><trkpt lat="55.6220193" lon="49.5077134"><time>2025-05-18T10:48:19.040</time></trkpt><trkpt lat="55.6220392" lon="49.5076269"><time>2025-05-18T10:48:23.017</time></trkpt><trkpt lat="55.6220512" lon="49.5075356"><time>2025-05-18T10:48:27.030</time></trkpt><trkpt lat="55.6220855" lon="49.5074605"><time>2025-05-18T10:48:31.217</time></trkpt><trkpt lat="55.6220980" lon="49.5073689"><time>2025-05-18T10:48:36.980</time></trkpt><trkpt lat="55.6220973" lon="49.5072733"><time>2025-05-18T10:48:41.227</time></trkpt><trkpt lat="55.6220719" lon="49.5071865"><time>2025-05-18T10:48:45.210</time></trkpt><trkpt lat="55.6220509" lon="49.5070772"><time>2025-05-18T10:48:49.010</time></trkpt><trkpt lat="55.6220287" lon="49.5069783"><time>2025-05-18T10:48:52.027</time></trkpt><trkpt lat="55.6219928" lon="49.5069036"><time>2025-05-18T10:48:57.007</time></trkpt><trkpt lat="55.6219670" lon="49.5068312"><time>2025-05-18T10:49:01.003</time></trkpt><trkpt lat="55.6219457" lon="49.5067463"><time>2025-05-18T10:49:05.030</time></trkpt><trkpt lat="55.6219220" lon="49.5066638"><time>2025-05-18T10:49:08.980</time></trkpt><trkpt lat="55.6218905" lon="49.5065783"><time>2025-05-18T10:49:13.010</time></trkpt><trkpt lat="55.6218683" lon="49.5065084"><time>2025-05-18T10:49:16.023</time></trkpt><trkpt lat="55.6218481" lon="49.5064174"><time>2025-05-18T10:49:20.027</time></trkpt><trkpt lat="55.6218200" lon="49.5063304"><time>2025-05-18T10:49:23.993</time></trkpt><trkpt lat="55.6217955" lon="49.5062433"><time>2025-05-18T10:49:28.017</time></trkpt><trkpt lat="55.6217692" lon="49.5061580"><time>2025-05-18T10:49:32.033</time></trkpt><trkpt lat="55.6217450" lon="49.5060629"><time>2025-05-18T10:49:36.230</time></trkpt><trkpt lat="55.6217321" lon="49.5059806"><time>2025-05-18T10:49:39.007</time></trkpt><trkpt lat="55.6217089" lon="49.5058912"><time>2025-05-18T10:49:43.027</time></trkpt><trkpt lat="55.6216811" lon="49.5058257"><time>2025-05-18T10:49:46.260</time></trkpt><trkpt lat="55.6216458" lon="49.5057481"><time>2025-05-18T10:49:50.030</time></trkpt><trkpt lat="55.6216185" lon="49.5056815"><time>2025-05-18T10:49:53.207</time></trkpt><trkpt lat="55.6215953" lon="49.5055938"><time>2025-05-18T10:49:57.030</time></trkpt><trkpt lat="55.6215758" lon="49.5055000"><time>2025-05-18T10:50:01.217</time></trkpt><trkpt lat="55.6215557" lon="49.5054195"><time>2025-05-18T10:50:05.203</time></trkpt><trkpt lat="55.6215314" lon="49.5053302"><time>2025-05-18T10:50:09.183</time></trkpt><trkpt lat="55.6215055" lon="49.5052530"><time>2025-05-18T10:50:13.197</time></trkpt><trkpt lat="55.6214828" lon="49.5051820"><time>2025-05-18T10:50:17.033</time></trkpt><trkpt lat="55.6214659" lon="49.5051068"><time>2025-05-18T10:50:21.207</time></trkpt><trkpt lat="55.6214625" lon="49.5050204"><time>2025-05-18T10:50:26.047</time></trkpt><trkpt lat="55.6214852" lon="49.5049141"><time>2025-05-18T10:50:29.037</time></trkpt><trkpt lat="55.6215208" lon="49.5048406"><time>2025-05-18T10:50:32.003</time></trkpt><trkpt lat="55.6215703" lon="49.5047999"><time>2025-05-18T10:50:36.030</time></trkpt><trkpt lat="55.6216168" lon="49.5047888"><time>2025-05-18T10:50:40.197</time></trkpt><trkpt lat="55.6216619" lon="49.5047718"><time>2025-05-18T10:50:43.037</time></trkpt><trkpt lat="55.6217067" lon="49.5047531"><time>2025-05-18T10:50:46.037</time></trkpt><trkpt lat="55.6217531" lon="49.5047178"><time>2025-05-18T10:50:49.213</time></trkpt><trkpt lat="55.6217851" lon="49.5046595"><time>2025-05-18T10:50:52.017</time></trkpt><trkpt lat="55.6218207" lon="49.5045939"><time>2025-05-18T10:50:56.107</time></trkpt><trkpt lat="55.6218545" lon="49.5045407"><time>2025-05-18T10:51:00</time></trkpt><trkpt lat="55.6218834" lon="49.5045156"><time>2025-05-18T10:51:08.783</time></trkpt><trkpt lat="55.6219012" lon="49.5044845"><time>2025-05-18T10:51:13.003</time></trkpt><trkpt lat="55.6219419" lon="49.5044179"><time>2025-05-18T10:51:17.997</time></trkpt><trkpt lat="55.6219602" lon="49.5043357"><time>2025-05-18T10:51:22.040</time></trkpt><trkpt lat="55.6219846" lon="49.5042581"><time>2025-05-18T10:51:26.187</time></trkpt><trkpt lat="55.6220110" lon="49.5041918"><time>2025-05-18T10:51:29.263</time></trkpt><trkpt lat="55.6220473" lon="49.5041178"><time>2025-05-18T10:51:33.017</time></trkpt><trkpt lat="55.6220776" lon="49.5040515"><time>2025-05-18T10:51:36.217</time></trkpt><trkpt lat="55.6221227" lon="49.5040173"><time>2025-05-18T10:51:39.017</time></trkpt><trkpt lat="55.6221605" lon="49.5039663"><time>2025-05-18T10:51:42.013</time></trkpt><trkpt lat="55.6221852" lon="49.5038761"><time>2025-05-18T10:51:46.210</time></trkpt><trkpt lat="55.6222063" lon="49.5037770"><time>2025-05-18T10:51:50.213</time></trkpt><trkpt lat="55.6222372" lon="49.5036861"><time>2025-05-18T10:51:54.023</time></trkpt><trkpt lat="55.6222739" lon="49.5036404"><time>2025-05-18T10:51:57.030</time></trkpt><trkpt lat="55.6223112" lon="49.5035935"><time>2025-05-18T10:52:00.033</time></trkpt><trkpt lat="55.6223555" lon="49.5035472"><time>2025-05-18T10:52:03.210</time></trkpt><trkpt lat="55.6223971" lon="49.5035071"><time>2025-05-18T10:52:06.193</time></trkpt><trkpt lat="55.6224509" lon="49.5034740"><time>2025-05-18T10:52:10.023</time></trkpt><trkpt lat="55.6224922" lon="49.5034309"><time>2025-05-18T10:52:13.043</time></trkpt><trkpt lat="55.6225374" lon="49.5033906"><time>2025-05-18T10:52:16.043</time></trkpt><trkpt lat="55.6225903" lon="49.5033610"><time>2025-05-18T10:52:20.033</time></trkpt><trkpt lat="55.6226442" lon="49.5033074"><time>2025-05-18T10:52:23.993</time></trkpt><trkpt lat="55.6226868" lon="49.5032740"><time>2025-05-18T10:52:27.020</time></trkpt><trkpt lat="55.6227419" lon="49.5032327"><time>2025-05-18T10:52:31.067</time></trkpt><trkpt lat="55.6228010" lon="49.5031842"><time>2025-05-18T10:52:34.027</time></trkpt><trkpt lat="55.6228560" lon="49.5031486"><time>2025-05-18T10:52:36.997</time></trkpt><trkpt lat="55.6229135" lon="49.5031066"><time>2025-05-18T10:52:40.237</time></trkpt><trkpt lat="55.6229696" lon="49.5030609"><time>2025-05-18T10:52:43.217</time></trkpt><trkpt lat="55.6230207" lon="49.5030249"><time>2025-05-18T10:52:46.023</time></trkpt><trkpt lat="55.6230691" lon="49.5029787"><time>2025-05-18T10:52:49.047</time></trkpt><trkpt lat="55.6231170" lon="49.5029385"><time>2025-05-18T10:52:52.030</time></trkpt><trkpt lat="55.6231681" lon="49.5028855"><time>2025-05-18T10:52:55.283</time></trkpt><trkpt lat="55.6232199" lon="49.5028281"><time>2025-05-18T10:52:58.020</time></trkpt><trkpt lat="55.6232665" lon="49.5027662"><time>2025-05-18T10:53:01.210</time></trkpt><trkpt lat="55.6233139" lon="49.5026990"><time>2025-05-18T10:53:04.003</time></trkpt><trkpt lat="55.6233688" lon="49.5026426"><time>2025-05-18T10:53:06.997</time></trkpt><trkpt lat="55.6234193" lon="49.5026023"><time>2025-05-18T10:53:10.213</time></trkpt><trkpt lat="55.6234667" lon="49.5025634"><time>2025-05-18T10:53:13.050</time></trkpt><trkpt lat="55.6235069" lon="49.5025113"><time>2025-05-18T10:53:16.033</time></trkpt><trkpt lat="55.6235620" lon="49.5024507"><time>2025-05-18T10:53:19.217</time></trkpt><trkpt lat="55.6236001" lon="49.5024055"><time>2025-05-18T10:53:21.300</time></trkpt><trkpt lat="55.6236558" lon="49.5023452"><time>2025-05-18T10:53:24.223</time></trkpt><trkpt lat="55.6237148" lon="49.5022983"><time>2025-05-18T10:53:27.030</time></trkpt><trkpt lat="55.6237655" lon="49.5022556"><time>2025-05-18T10:53:30.213</time></trkpt><trkpt lat="55.6238126" lon="49.5022131"><time>2025-05-18T10:53:33.043</time></trkpt><trkpt lat="55.6238645" lon="49.5021635"><time>2025-05-18T10:53:36.207</time></trkpt><trkpt lat="55.6239233" lon="49.5021137"><time>2025-05-18T10:53:39.253</time></trkpt><trkpt lat="55.6239666" lon="49.5020525"><time>2025-05-18T10:53:42.033</time></trkpt><trkpt lat="55.6240116" lon="49.5019992"><time>2025-05-18T10:53:45.207</time></trkpt><trkpt lat="55.6240632" lon="49.5019470"><time>2025-05-18T10:53:48.020</time></trkpt><trkpt lat="55.6241137" lon="49.5018888"><time>2025-05-18T10:53:51.217</time></trkpt><trkpt lat="55.6241532" lon="49.5018452"><time>2025-05-18T10:53:53.020</time></trkpt><trkpt lat="55.6242107" lon="49.5017897"><time>2025-05-18T10:53:56.223</time></trkpt><trkpt lat="55.6242652" lon="49.5017376"><time>2025-05-18T10:53:59.037</time></trkpt><trkpt lat="55.6243146" lon="49.5016762"><time>2025-05-18T10:54:01.990</time></trkpt><trkpt lat="55.6243646" lon="49.5016245"><time>2025-05-18T10:54:05.217</time></trkpt><trkpt lat="55.6244049" lon="49.5015884"><time>2025-05-18T10:54:07.030</time></trkpt><trkpt lat="55.6244558" lon="49.5015351"><time>2025-05-18T10:54:10.240</time></trkpt><trkpt lat="55.6245112" lon="49.5014724"><time>2025-05-18T10:54:13.060</time></trkpt><trkpt lat="55.6245626" lon="49.5014254"><time>2025-05-18T10:54:16.013</time></trkpt><trkpt lat="55.6246173" lon="49.5013760"><time>2025-05-18T10:54:19.233</time></trkpt><trkpt lat="55.6246690" lon="49.5013227"><time>2025-05-18T10:54:22.037</time></trkpt><trkpt lat="55.6247172" lon="49.5012715"><time>2025-05-18T10:54:24.977</time></trkpt><trkpt lat="55.6247614" lon="49.5012160"><time>2025-05-18T10:54:28.010</time></trkpt><trkpt lat="55.6248156" lon="49.5011610"><time>2025-05-18T10:54:31.217</time></trkpt><trkpt lat="55.6248715" lon="49.5011056"><time>2025-05-18T10:54:34.017</time></trkpt><trkpt lat="55.6249215" lon="49.5010665"><time>2025-05-18T10:54:36.990</time></trkpt><trkpt lat="55.6249674" lon="49.5010003"><time>2025-05-18T10:54:40.023</time></trkpt><trkpt lat="55.6250106" lon="49.5009355"><time>2025-05-18T10:54:43.007</time></trkpt><trkpt lat="55.6250593" lon="49.5008801"><time>2025-05-18T10:54:46.037</time></trkpt><trkpt lat="55.6251072" lon="49.5008233"><time>2025-05-18T10:54:49.040</time></trkpt><trkpt lat="55.6251536" lon="49.5007618"><time>2025-05-18T10:54:52.040</time></trkpt><trkpt lat="55.6252037" lon="49.5007091"><time>2025-05-18T10:54:55.200</time></trkpt><trkpt lat="55.6252474" lon="49.5006554"><time>2025-05-18T10:54:57.983</time></trkpt><trkpt lat="55.6252965" lon="49.5006032"><time>2025-05-18T10:55:01.227</time></trkpt><trkpt lat="55.6253424" lon="49.5005557"><time>2025-05-18T10:55:04.267</time></trkpt><trkpt lat="55.6253859" lon="49.5005021"><time>2025-05-18T10:55:07.037</time></trkpt><trkpt lat="55.6254227" lon="49.5004407"><time>2025-05-18T10:55:10.317</time></trkpt><trkpt lat="55.6254484" lon="49.5003718"><time>2025-05-18T10:55:13.047</time></trkpt><trkpt lat="55.6254983" lon="49.5003104"><time>2025-05-18T10:55:16.030</time></trkpt><trkpt lat="55.6255521" lon="49.5002581"><time>2025-05-18T10:55:19.230</time></trkpt><trkpt lat="55.6256095" lon="49.5002285"><time>2025-05-18T10:55:22.033</time></trkpt><trkpt lat="55.6256588" lon="49.5001900"><time>2025-05-18T10:55:25.037</time></trkpt><trkpt lat="55.6257038" lon="49.5001359"><time>2025-05-18T10:55:28.047</time></trkpt><trkpt lat="55.6257534" lon="49.5000650"><time>2025-05-18T10:55:31</time></trkpt><trkpt lat="55.6257963" lon="49.5000063"><time>2025-05-18T10:55:34.047</time></trkpt><trkpt lat="55.6258451" lon="49.4999665"><time>2025-05-18T10:55:37.023</time></trkpt><trkpt lat="55.6258972" lon="49.4999296"><time>2025-05-18T10:55:40.213</time></trkpt><trkpt lat="55.6259503" lon="49.4998784"><time>2025-05-18T10:55:43.040</time></trkpt><trkpt lat="55.6260001" lon="49.4998248"><time>2025-05-18T10:55:46.217</time></trkpt><trkpt lat="55.6260466" lon="49.4997627"><time>2025-05-18T10:55:49.260</time></trkpt><trkpt lat="55.6260925" lon="49.4997118"><time>2025-05-18T10:55:51.973</time></trkpt><trkpt lat="55.6261426" lon="49.4996685"><time>2025-05-18T10:55:55.237</time></trkpt><trkpt lat="55.6261925" lon="49.4996267"><time>2025-05-18T10:55:58.200</time></trkpt><trkpt lat="55.6262459" lon="49.4995827"><time>2025-05-18T10:56:01.303</time></trkpt><trkpt lat="55.6262991" lon="49.4995403"><time>2025-05-18T10:56:04.027</time></trkpt><trkpt lat="55.6263529" lon="49.4995085"><time>2025-05-18T10:56:07.040</time></trkpt><trkpt lat="55.6264048" lon="49.4994696"><time>2025-05-18T10:56:10.220</time></trkpt><trkpt lat="55.6264548" lon="49.4994226"><time>2025-05-18T10:56:13.027</time></trkpt><trkpt lat="55.6265008" lon="49.4993706"><time>2025-05-18T10:56:16.023</time></trkpt><trkpt lat="55.6265427" lon="49.4993288"><time>2025-05-18T10:56:19.037</time></trkpt><trkpt lat="55.6265913" lon="49.4992883"><time>2025-05-18T10:56:22.037</time></trkpt><trkpt lat="55.6266414" lon="49.4992450"><time>2025-05-18T10:56:25.237</time></trkpt><trkpt lat="55.6266970" lon="49.4992047"><time>2025-05-18T10:56:28.230</time></trkpt><trkpt lat="55.6267491" lon="49.4991714"><time>2025-05-18T10:56:31.003</time></trkpt><trkpt lat="55.6267957" lon="49.4991392"><time>2025-05-18T10:56:34.043</time></trkpt><trkpt lat="55.6268451" lon="49.4991067"><time>2025-05-18T10:56:37.040</time></trkpt><trkpt lat="55.6268966" lon="49.4990615"><time>2025-05-18T10:56:40.013</time></trkpt><trkpt lat="55.6269407" lon="49.4990066"><time>2025-05-18T10:56:43.023</time></trkpt><trkpt lat="55.6269816" lon="49.4989391"><time>2025-05-18T10:56:46.040</time></trkpt><trkpt lat="55.6270325" lon="49.4988791"><time>2025-05-18T10:56:50.030</time></trkpt><trkpt lat="55.6270805" lon="49.4988289"><time>2025-05-18T10:56:54.053</time></trkpt><trkpt lat="55.6271290" lon="49.4987910"><time>2025-05-18T10:56:58.030</time></trkpt><trkpt lat="55.6271724" lon="49.4987504"><time>2025-05-18T10:57:02.037</time></trkpt><trkpt lat="55.6272149" lon="49.4987068"><time>2025-05-18T10:57:05.227</time></trkpt><trkpt lat="55.6272609" lon="49.4986495"><time>2025-05-18T10:57:09.040</time></trkpt><trkpt lat="55.6272993" lon="49.4986069"><time>2025-05-18T10:57:11.993</time></trkpt><trkpt lat="55.6273467" lon="49.4985653"><time>2025-05-18T10:57:15.253</time></trkpt><trkpt lat="55.6273942" lon="49.4985132"><time>2025-05-18T10:57:18.040</time></trkpt><trkpt lat="55.6274421" lon="49.4984694"><time>2025-05-18T10:57:21.247</time></trkpt><trkpt lat="55.6274862" lon="49.4984295"><time>2025-05-18T10:57:24.267</time></trkpt><trkpt lat="55.6275311" lon="49.4983828"><time>2025-05-18T10:57:27.030</time></trkpt><trkpt lat="55.6275687" lon="49.4983385"><time>2025-05-18T10:57:30.243</time></trkpt><trkpt lat="55.6276098" lon="49.4982912"><time>2025-05-18T10:57:33.210</time></trkpt><trkpt lat="55.6276585" lon="49.4982436"><time>2025-05-18T10:57:37.033</time></trkpt><trkpt lat="55.6277017" lon="49.4981835"><time>2025-05-18T10:57:41.203</time></trkpt><trkpt lat="55.6277337" lon="49.4981215"><time>2025-05-18T10:57:43.997</time></trkpt><trkpt lat="55.6277618" lon="49.4980592"><time>2025-05-18T10:57:47.023</time></trkpt><trkpt lat="55.6278006" lon="49.4980037"><time>2025-05-18T10:57:50.207</time></trkpt><trkpt lat="55.6278443" lon="49.4979510"><time>2025-05-18T10:57:53.010</time></trkpt><trkpt lat="55.6278854" lon="49.4978974"><time>2025-05-18T10:57:56.213</time></trkpt><trkpt lat="55.6279278" lon="49.4978531"><time>2025-05-18T10:57:58.983</time></trkpt><trkpt lat="55.6279700" lon="49.4978065"><time>2025-05-18T10:58:01.980</time></trkpt><trkpt lat="55.6280156" lon="49.4977638"><time>2025-05-18T10:58:05.213</time></trkpt><trkpt lat="55.6280656" lon="49.4977125"><time>2025-05-18T10:58:09.220</time></trkpt><trkpt lat="55.6281176" lon="49.4976557"><time>2025-05-18T10:58:13.043</time></trkpt><trkpt lat="55.6281668" lon="49.4976247"><time>2025-05-18T10:58:17.033</time></trkpt><trkpt lat="55.6282085" lon="49.4975867"><time>2025-05-18T10:58:21.030</time></trkpt><trkpt lat="55.6282601" lon="49.4975450"><time>2025-05-18T10:58:25.270</time></trkpt><trkpt lat="55.6283158" lon="49.4974901"><time>2025-05-18T10:58:28.960</time></trkpt><trkpt lat="55.6283637" lon="49.4974478"><time>2025-05-18T10:58:33.313</time></trkpt><trkpt lat="55.6284138" lon="49.4974105"><time>2025-05-18T10:58:36.977</time></trkpt><trkpt lat="55.6284704" lon="49.4973489"><time>2025-05-18T10:58:39.987</time></trkpt><trkpt lat="55.6285027" lon="49.4972904"><time>2025-05-18T10:58:41.973</time></trkpt><trkpt lat="55.6285568" lon="49.4972271"><time>2025-05-18T10:58:44.970</time></trkpt><trkpt lat="55.6286003" lon="49.4971905"><time>2025-05-18T10:58:46.970</time></trkpt><trkpt lat="55.6286473" lon="49.4971402"><time>2025-05-18T10:58:48.990</time></trkpt><trkpt lat="55.6287007" lon="49.4970729"><time>2025-05-18T10:58:51.967</time></trkpt><trkpt lat="55.6287563" lon="49.4970106"><time>2025-05-18T10:58:54.980</time></trkpt><trkpt lat="55.6288091" lon="49.4969413"><time>2025-05-18T10:58:57.997</time></trkpt><trkpt lat="55.6288631" lon="49.4968797"><time>2025-05-18T10:59:00.953</time></trkpt><trkpt lat="55.6289052" lon="49.4968307"><time>2025-05-18T10:59:02.967</time></trkpt><trkpt lat="55.6289464" lon="49.4967801"><time>2025-05-18T10:59:04.970</time></trkpt><trkpt lat="55.6289868" lon="49.4967360"><time>2025-05-18T10:59:06.960</time></trkpt><trkpt lat="55.6290287" lon="49.4966893"><time>2025-05-18T10:59:08.957</time></trkpt><trkpt lat="55.6290727" lon="49.4966433"><time>2025-05-18T10:59:10.953</time></trkpt><trkpt lat="55.6291163" lon="49.4966176"><time>2025-05-18T10:59:12.943</time></trkpt><trkpt lat="55.6291717" lon="49.4965792"><time>2025-05-18T10:59:14.973</time></trkpt><trkpt lat="55.6292148" lon="49.4965338"><time>2025-05-18T10:59:17.030</time></trkpt><trkpt lat="55.6292630" lon="49.4964953"><time>2025-05-18T10:59:19.037</time></trkpt><trkpt lat="55.6293070" lon="49.4964510"><time>2025-05-18T10:59:21.037</time></trkpt><trkpt lat="55.6293583" lon="49.4964062"><time>2025-05-18T10:59:23.027</time></trkpt><trkpt lat="55.6294002" lon="49.4963590"><time>2025-05-18T10:59:25.023</time></trkpt><trkpt lat="55.6294421" lon="49.4963062"><time>2025-05-18T10:59:27.037</time></trkpt><trkpt lat="55.6294808" lon="49.4962539"><time>2025-05-18T10:59:29.050</time></trkpt><trkpt lat="55.6295243" lon="49.4962109"><time>2025-05-18T10:59:31.050</time></trkpt><trkpt lat="55.6295704" lon="49.4961722"><time>2025-05-18T10:59:33.040</time></trkpt><trkpt lat="55.6296120" lon="49.4961184"><time>2025-05-18T10:59:35.020</time></trkpt><trkpt lat="55.6296581" lon="49.4960562"><time>2025-05-18T10:59:37.047</time></trkpt><trkpt lat="55.6296934" lon="49.4959840"><time>2025-05-18T10:59:39.047</time></trkpt><trkpt lat="55.6297256" lon="49.4959114"><time>2025-05-18T10:59:41.047</time></trkpt><trkpt lat="55.6297618" lon="49.4958412"><time>2025-05-18T10:59:43.017</time></trkpt><trkpt lat="55.6297952" lon="49.4957732"><time>2025-05-18T10:59:45.033</time></trkpt><trkpt lat="55.6298239" lon="49.4957079"><time>2025-05-18T10:59:47.013</time></trkpt><trkpt lat="55.6298625" lon="49.4956438"><time>2025-05-18T10:59:49.233</time></trkpt><trkpt lat="55.6299041" lon="49.4955888"><time>2025-05-18T10:59:51.217</time></trkpt><trkpt lat="55.6299545" lon="49.4955480"><time>2025-05-18T10:59:53.037</time></trkpt><trkpt lat="55.6300019" lon="49.4955281"><time>2025-05-18T10:59:55.037</time></trkpt><trkpt lat="55.6300453" lon="49.4955051"><time>2025-05-18T10:59:57.027</time></trkpt><trkpt lat="55.6300877" lon="49.4954717"><time>2025-05-18T10:59:59.237</time></trkpt><trkpt lat="55.6301311" lon="49.4954252"><time>2025-05-18T11:00:01.213</time></trkpt><trkpt lat="55.6301790" lon="49.4953744"><time>2025-05-18T11:00:03.247</time></trkpt><trkpt lat="55.6302205" lon="49.4953267"><time>2025-05-18T11:00:05.207</time></trkpt><trkpt lat="55.6302669" lon="49.4952773"><time>2025-05-18T11:00:07.003</time></trkpt><trkpt lat="55.6303123" lon="49.4952491"><time>2025-05-18T11:00:09.037</time></trkpt><trkpt lat="55.6303558" lon="49.4952163"><time>2025-05-18T11:00:11.217</time></trkpt><trkpt lat="55.6304015" lon="49.4951731"><time>2025-05-18T11:00:13.037</time></trkpt><trkpt lat="55.6304507" lon="49.4951188"><time>2025-05-18T11:00:15.217</time></trkpt><trkpt lat="55.6304921" lon="49.4950646"><time>2025-05-18T11:00:17.020</time></trkpt><trkpt lat="55.6305341" lon="49.4950199"><time>2025-05-18T11:00:19.223</time></trkpt><trkpt lat="55.6305782" lon="49.4949780"><time>2025-05-18T11:00:21.210</time></trkpt><trkpt lat="55.6306186" lon="49.4949335"><time>2025-05-18T11:00:23.217</time></trkpt><trkpt lat="55.6306631" lon="49.4948748"><time>2025-05-18T11:00:24.960</time></trkpt><trkpt lat="55.6306968" lon="49.4948197"><time>2025-05-18T11:00:27.017</time></trkpt><trkpt lat="55.6307357" lon="49.4947649"><time>2025-05-18T11:00:28.987</time></trkpt><trkpt lat="55.6307751" lon="49.4947157"><time>2025-05-18T11:00:31.033</time></trkpt><trkpt lat="55.6308276" lon="49.4946570"><time>2025-05-18T11:00:34.230</time></trkpt><trkpt lat="55.6308787" lon="49.4945753"><time>2025-05-18T11:00:37.030</time></trkpt><trkpt lat="55.6309219" lon="49.4945160"><time>2025-05-18T11:00:38.940</time></trkpt><trkpt lat="55.6309680" lon="49.4944564"><time>2025-05-18T11:00:41.177</time></trkpt><trkpt lat="55.6310052" lon="49.4943942"><time>2025-05-18T11:00:42.960</time></trkpt><trkpt lat="55.6310419" lon="49.4943379"><time>2025-05-18T11:00:45.213</time></trkpt><trkpt lat="55.6310778" lon="49.4942757"><time>2025-05-18T11:00:47.023</time></trkpt><trkpt lat="55.6311104" lon="49.4941997"><time>2025-05-18T11:00:49.277</time></trkpt><trkpt lat="55.6311324" lon="49.4941213"><time>2025-05-18T11:00:51.213</time></trkpt><trkpt lat="55.6311664" lon="49.4940646"><time>2025-05-18T11:00:53.043</time></trkpt><trkpt lat="55.6312096" lon="49.4940161"><time>2025-05-18T11:00:55.267</time></trkpt><trkpt lat="55.6312566" lon="49.4939834"><time>2025-05-18T11:00:57.003</time></trkpt><trkpt lat="55.6312962" lon="49.4939356"><time>2025-05-18T11:00:59.203</time></trkpt><trkpt lat="55.6313391" lon="49.4938836"><time>2025-05-18T11:01:01.233</time></trkpt><trkpt lat="55.6313808" lon="49.4938231"><time>2025-05-18T11:01:03.037</time></trkpt><trkpt lat="55.6314242" lon="49.4937601"><time>2025-05-18T11:01:05.197</time></trkpt><trkpt lat="55.6314609" lon="49.4936970"><time>2025-05-18T11:01:07.027</time></trkpt><trkpt lat="55.6315059" lon="49.4936184"><time>2025-05-18T11:01:09.267</time></trkpt><trkpt lat="55.6315503" lon="49.4935463"><time>2025-05-18T11:01:11.037</time></trkpt><trkpt lat="55.6315913" lon="49.4934779"><time>2025-05-18T11:01:13.043</time></trkpt><trkpt lat="55.6316237" lon="49.4934137"><time>2025-05-18T11:01:14.990</time></trkpt><trkpt lat="55.6316613" lon="49.4933679"><time>2025-05-18T11:01:16.977</time></trkpt><trkpt lat="55.6317051" lon="49.4933267"><time>2025-05-18T11:01:19.117</time></trkpt><trkpt lat="55.6317579" lon="49.4932827"><time>2025-05-18T11:01:21.010</time></trkpt><trkpt lat="55.6318049" lon="49.4932322"><time>2025-05-18T11:01:23.040</time></trkpt><trkpt lat="55.6318462" lon="49.4931935"><time>2025-05-18T11:01:25.250</time></trkpt><trkpt lat="55.6319029" lon="49.4931629"><time>2025-05-18T11:01:27.033</time></trkpt><trkpt lat="55.6319470" lon="49.4931376"><time>2025-05-18T11:01:29.027</time></trkpt><trkpt lat="55.6319897" lon="49.4931107"><time>2025-05-18T11:01:31.223</time></trkpt><trkpt lat="55.6320532" lon="49.4930672"><time>2025-05-18T11:01:34.197</time></trkpt><trkpt lat="55.6321025" lon="49.4930355"><time>2025-05-18T11:01:36.207</time></trkpt><trkpt lat="55.6321520" lon="49.4930169"><time>2025-05-18T11:01:38.063</time></trkpt><trkpt lat="55.6322020" lon="49.4929679"><time>2025-05-18T11:01:40.037</time></trkpt><trkpt lat="55.6322510" lon="49.4929172"><time>2025-05-18T11:01:42.033</time></trkpt><trkpt lat="55.6322944" lon="49.4928829"><time>2025-05-18T11:01:44.253</time></trkpt><trkpt lat="55.6323388" lon="49.4928509"><time>2025-05-18T11:01:46.237</time></trkpt><trkpt lat="55.6323840" lon="49.4928205"><time>2025-05-18T11:01:48.030</time></trkpt><trkpt lat="55.6324427" lon="49.4927724"><time>2025-05-18T11:01:51.013</time></trkpt><trkpt lat="55.6325094" lon="49.4927217"><time>2025-05-18T11:01:54.223</time></trkpt><trkpt lat="55.6325604" lon="49.4926871"><time>2025-05-18T11:01:56.247</time></trkpt><trkpt lat="55.6326085" lon="49.4926558"><time>2025-05-18T11:01:58.047</time></trkpt><trkpt lat="55.6326537" lon="49.4926216"><time>2025-05-18T11:02:00.263</time></trkpt><trkpt lat="55.6327039" lon="49.4925950"><time>2025-05-18T11:02:02.007</time></trkpt><trkpt lat="55.6327523" lon="49.4925606"><time>2025-05-18T11:02:04.313</time></trkpt><trkpt lat="55.6328056" lon="49.4925221"><time>2025-05-18T11:02:06.197</time></trkpt><trkpt lat="55.6328490" lon="49.4924921"><time>2025-05-18T11:02:08.043</time></trkpt><trkpt lat="55.6328893" lon="49.4924566"><time>2025-05-18T11:02:10.043</time></trkpt><trkpt lat="55.6329325" lon="49.4924277"><time>2025-05-18T11:02:12.050</time></trkpt><trkpt lat="55.6329772" lon="49.4924056"><time>2025-05-18T11:02:14.010</time></trkpt><trkpt lat="55.6330224" lon="49.4923734"><time>2025-05-18T11:02:16.197</time></trkpt><trkpt lat="55.6330753" lon="49.4923033"><time>2025-05-18T11:02:19.017</time></trkpt><trkpt lat="55.6331115" lon="49.4922389"><time>2025-05-18T11:02:22.023</time></trkpt><trkpt lat="55.6331433" lon="49.4921808"><time>2025-05-18T11:02:24.037</time></trkpt><trkpt lat="55.6331762" lon="49.4921259"><time>2025-05-18T11:02:26.037</time></trkpt><trkpt lat="55.6332169" lon="49.4920495"><time>2025-05-18T11:02:29.043</time></trkpt><trkpt lat="55.6332604" lon="49.4919777"><time>2025-05-18T11:02:32.027</time></trkpt><trkpt lat="55.6333094" lon="49.4919253"><time>2025-05-18T11:02:35.290</time></trkpt><trkpt lat="55.6333645" lon="49.4918974"><time>2025-05-18T11:02:38.977</time></trkpt><trkpt lat="55.6333675" lon="49.4917964"><time>2025-05-18T11:02:41.980</time></trkpt><trkpt lat="55.6333463" lon="49.4917006"><time>2025-05-18T11:02:44.020</time></trkpt><trkpt lat="55.6333366" lon="49.4916075"><time>2025-05-18T11:02:46.967</time></trkpt><trkpt lat="55.6333400" lon="49.4915110"><time>2025-05-18T11:02:51.077</time></trkpt><trkpt lat="55.6333768" lon="49.4914537"><time>2025-05-18T11:02:55.970</time></trkpt><trkpt lat="55.6334228" lon="49.4914260"><time>2025-05-18T11:02:58.957</time></trkpt><trkpt lat="55.6334659" lon="49.4914053"><time>2025-05-18T11:03:06.647</time></trkpt><trkpt lat="55.6333888" lon="49.4913400"><time>2025-05-18T11:03:23.013</time></trkpt><trkpt lat="55.6333497" lon="49.4912855"><time>2025-05-18T11:03:26.977</time></trkpt><trkpt lat="55.6333262" lon="49.4912131"><time>2025-05-18T11:03:31.043</time></trkpt><trkpt lat="55.6333338" lon="49.4911291"><time>2025-05-18T11:03:38.967</time></trkpt><trkpt lat="55.6333865" lon="49.4911008"><time>2025-05-18T11:03:42.033</time></trkpt><trkpt lat="55.6334216" lon="49.4910219"><time>2025-05-18T11:03:45.027</time></trkpt><trkpt lat="55.6334663" lon="49.4909610"><time>2025-05-18T11:03:48.023</time></trkpt><trkpt lat="55.6334970" lon="49.4908578"><time>2025-05-18T11:03:51.017</time></trkpt><trkpt lat="55.6335076" lon="49.4907625"><time>2025-05-18T11:03:54.213</time></trkpt><trkpt lat="55.6335023" lon="49.4906718"><time>2025-05-18T11:03:57.013</time></trkpt><trkpt lat="55.6335130" lon="49.4905806"><time>2025-05-18T11:04:01.237</time></trkpt><trkpt lat="55.6335207" lon="49.4904903"><time>2025-05-18T11:04:05.050</time></trkpt><trkpt lat="55.6335663" lon="49.4904420"><time>2025-05-18T11:04:08.033</time></trkpt><trkpt lat="55.6336151" lon="49.4903996"><time>2025-05-18T11:04:11.207</time></trkpt><trkpt lat="55.6336659" lon="49.4903723"><time>2025-05-18T11:04:14.050</time></trkpt><trkpt lat="55.6337161" lon="49.4903533"><time>2025-05-18T11:04:16.997</time></trkpt><trkpt lat="55.6337709" lon="49.4903573"><time>2025-05-18T11:04:21.227</time></trkpt><trkpt lat="55.6338188" lon="49.4903803"><time>2025-05-18T11:04:25.217</time></trkpt><trkpt lat="55.6338700" lon="49.4903356"><time>2025-05-18T11:04:28.997</time></trkpt><trkpt lat="55.6339169" lon="49.4903035"><time>2025-05-18T11:04:32.037</time></trkpt><trkpt lat="55.6339779" lon="49.4902889"><time>2025-05-18T11:04:35.037</time></trkpt><trkpt lat="55.6340282" lon="49.4902853"><time>2025-05-18T11:04:38.197</time></trkpt><trkpt lat="55.6340700" lon="49.4903369"><time>2025-05-18T11:04:43.037</time></trkpt><trkpt lat="55.6341140" lon="49.4903600"><time>2025-05-18T11:04:49.200</time></trkpt><trkpt lat="55.6341616" lon="49.4903391"><time>2025-05-18T11:04:54.017</time></trkpt><trkpt lat="55.6342075" lon="49.4903522"><time>2025-05-18T11:04:59.247</time></trkpt><trkpt lat="55.6342520" lon="49.4903416"><time>2025-05-18T11:05:03.020</time></trkpt><trkpt lat="55.6343189" lon="49.4903356"><time>2025-05-18T11:05:06.250</time></trkpt><trkpt lat="55.6343699" lon="49.4903435"><time>2025-05-18T11:05:08.053</time></trkpt><trkpt lat="55.6344308" lon="49.4903611"><time>2025-05-18T11:05:11.040</time></trkpt><trkpt lat="55.6344791" lon="49.4903745"><time>2025-05-18T11:05:14.070</time></trkpt><trkpt lat="55.6345403" lon="49.4903952"><time>2025-05-18T11:05:19.027</time></trkpt><trkpt lat="55.6345751" lon="49.4903341"><time>2025-05-18T11:05:25.023</time></trkpt><trkpt lat="55.6345969" lon="49.4902460"><time>2025-05-18T11:05:30.230</time></trkpt><trkpt lat="55.6346124" lon="49.4901495"><time>2025-05-18T11:05:33.017</time></trkpt><trkpt lat="55.6346319" lon="49.4900467"><time>2025-05-18T11:05:36.217</time></trkpt><trkpt lat="55.6346414" lon="49.4899378"><time>2025-05-18T11:05:39.240</time></trkpt><trkpt lat="55.6346551" lon="49.4898316"><time>2025-05-18T11:05:42.057</time></trkpt><trkpt lat="55.6346680" lon="49.4897350"><time>2025-05-18T11:05:45.033</time></trkpt><trkpt lat="55.6347071" lon="49.4896754"><time>2025-05-18T11:05:50.037</time></trkpt><trkpt lat="55.6347611" lon="49.4896303"><time>2025-05-18T11:05:54.250</time></trkpt><trkpt lat="55.6348043" lon="49.4895996"><time>2025-05-18T11:05:58.047</time></trkpt><trkpt lat="55.6347607" lon="49.4895581"><time>2025-05-18T11:06:09.047</time></trkpt><trkpt lat="55.6347281" lon="49.4896162"><time>2025-05-18T11:06:12.017</time></trkpt><trkpt lat="55.6346813" lon="49.4896631"><time>2025-05-18T11:06:17.020</time></trkpt><trkpt lat="55.6346524" lon="49.4897409"><time>2025-05-18T11:06:21.237</time></trkpt><trkpt lat="55.6346443" lon="49.4898560"><time>2025-05-18T11:06:24.040</time></trkpt><trkpt lat="55.6346414" lon="49.4899421"><time>2025-05-18T11:06:26.233</time></trkpt><trkpt lat="55.6346335" lon="49.4900637"><time>2025-05-18T11:06:29.003</time></trkpt><trkpt lat="55.6346220" lon="49.4901480"><time>2025-05-18T11:06:31.080</time></trkpt><trkpt lat="55.6346117" lon="49.4902367"><time>2025-05-18T11:06:33.027</time></trkpt><trkpt lat="55.6346049" lon="49.4903201"><time>2025-05-18T11:06:35.207</time></trkpt><trkpt lat="55.6345940" lon="49.4904068"><time>2025-05-18T11:06:37.030</time></trkpt><trkpt lat="55.6345807" lon="49.4904890"><time>2025-05-18T11:06:39.220</time></trkpt><trkpt lat="55.6345731" lon="49.4905770"><time>2025-05-18T11:06:41.303</time></trkpt><trkpt lat="55.6345653" lon="49.4906567"><time>2025-05-18T11:06:43.053</time></trkpt><trkpt lat="55.6345533" lon="49.4907360"><time>2025-05-18T11:06:45.203</time></trkpt><trkpt lat="55.6345285" lon="49.4908382"><time>2025-05-18T11:06:48.040</time></trkpt><trkpt lat="55.6345006" lon="49.4909356"><time>2025-05-18T11:06:50.990</time></trkpt><trkpt lat="55.6344865" lon="49.4910153"><time>2025-05-18T11:06:53.190</time></trkpt><trkpt lat="55.6344664" lon="49.4910971"><time>2025-05-18T11:06:55.050</time></trkpt><trkpt lat="55.6344518" lon="49.4911796"><time>2025-05-18T11:06:57.047</time></trkpt><trkpt lat="55.6344427" lon="49.4912898"><time>2025-05-18T11:07:00.193</time></trkpt><trkpt lat="55.6344324" lon="49.4913782"><time>2025-05-18T11:07:03.037</time></trkpt><trkpt lat="55.6344237" lon="49.4914639"><time>2025-05-18T11:07:07.003</time></trkpt><trkpt lat="55.6344287" lon="49.4915503"><time>2025-05-18T11:07:10.007</time></trkpt><trkpt lat="55.6344365" lon="49.4916676"><time>2025-05-18T11:07:13.297</time></trkpt><trkpt lat="55.6344458" lon="49.4917744"><time>2025-05-18T11:07:16.240</time></trkpt><trkpt lat="55.6344551" lon="49.4918876"><time>2025-05-18T11:07:19.227</time></trkpt><trkpt lat="55.6344591" lon="49.4919723"><time>2025-05-18T11:07:21.037</time></trkpt><trkpt lat="55.6344507" lon="49.4920819"><time>2025-05-18T11:07:24.273</time></trkpt><trkpt lat="55.6344665" lon="49.4921678"><time>2025-05-18T11:07:27.040</time></trkpt><trkpt lat="55.6344884" lon="49.4922698"><time>2025-05-18T11:07:30.040</time></trkpt><trkpt lat="55.6345028" lon="49.4923647"><time>2025-05-18T11:07:33.050</time></trkpt><trkpt lat="55.6344842" lon="49.4924441"><time>2025-05-18T11:07:37.047</time></trkpt><trkpt lat="55.6344860" lon="49.4923611"><time>2025-05-18T11:07:49.987</time></trkpt><trkpt lat="55.6344955" lon="49.4922659"><time>2025-05-18T11:07:55.287</time></trkpt><trkpt lat="55.6344764" lon="49.4921591"><time>2025-05-18T11:07:58.227</time></trkpt><trkpt lat="55.6344583" lon="49.4920840"><time>2025-05-18T11:08:00.230</time></trkpt><trkpt lat="55.6344497" lon="49.4920051"><time>2025-05-18T11:08:03.027</time></trkpt><trkpt lat="55.6344393" lon="49.4919125"><time>2025-05-18T11:08:07.963</time></trkpt><trkpt lat="55.6344458" lon="49.4918248"><time>2025-05-18T11:08:12.047</time></trkpt><trkpt lat="55.6344425" lon="49.4917345"><time>2025-05-18T11:08:15.023</time></trkpt><trkpt lat="55.6344387" lon="49.4916270"><time>2025-05-18T11:08:18.050</time></trkpt><trkpt lat="55.6344363" lon="49.4915129"><time>2025-05-18T11:08:21.030</time></trkpt><trkpt lat="55.6344389" lon="49.4913915"><time>2025-05-18T11:08:24.023</time></trkpt><trkpt lat="55.6344446" lon="49.4912984"><time>2025-05-18T11:08:27.040</time></trkpt><trkpt lat="55.6344556" lon="49.4911849"><time>2025-05-18T11:08:31.017</time></trkpt><trkpt lat="55.6344701" lon="49.4910821"><time>2025-05-18T11:08:34.227</time></trkpt><trkpt lat="55.6344860" lon="49.4910060"><time>2025-05-18T11:08:36.017</time></trkpt><trkpt lat="55.6344978" lon="49.4909274"><time>2025-05-18T11:08:38.053</time></trkpt><trkpt lat="55.6345165" lon="49.4908295"><time>2025-05-18T11:08:41.023</time></trkpt><trkpt lat="55.6345375" lon="49.4907294"><time>2025-05-18T11:08:44.207</time></trkpt><trkpt lat="55.6345517" lon="49.4906475"><time>2025-05-18T11:08:46.217</time></trkpt><trkpt lat="55.6345719" lon="49.4905413"><time>2025-05-18T11:08:49.230</time></trkpt><trkpt lat="55.6345787" lon="49.4904519"><time>2025-05-18T11:08:52.037</time></trkpt><trkpt lat="55.6346012" lon="49.4903615"><time>2025-05-18T11:08:56.217</time></trkpt><trkpt lat="55.6346199" lon="49.4902542"><time>2025-05-18T11:08:59.260</time></trkpt><trkpt lat="55.6346326" lon="49.4901396"><time>2025-05-18T11:09:02.040</time></trkpt><trkpt lat="55.6346390" lon="49.4900438"><time>2025-05-18T11:09:05.023</time></trkpt><trkpt lat="55.6346481" lon="49.4899609"><time>2025-05-18T11:09:09.227</time></trkpt><trkpt lat="55.6346578" lon="49.4898648"><time>2025-05-18T11:09:14.027</time></trkpt><trkpt lat="55.6346717" lon="49.4897728"><time>2025-05-18T11:09:17.020</time></trkpt><trkpt lat="55.6346492" lon="49.4896812"><time>2025-05-18T11:09:20.200</time></trkpt><trkpt lat="55.6345898" lon="49.4896746"><time>2025-05-18T11:09:23.027</time></trkpt><trkpt lat="55.6345330" lon="49.4896526"><time>2025-05-18T11:09:26.020</time></trkpt><trkpt lat="55.6344741" lon="49.4896020"><time>2025-05-18T11:09:29.030</time></trkpt><trkpt lat="55.6344241" lon="49.4895735"><time>2025-05-18T11:09:31.050</time></trkpt><trkpt lat="55.6343768" lon="49.4895572"><time>2025-05-18T11:09:33.043</time></trkpt><trkpt lat="55.6343233" lon="49.4895097"><time>2025-05-18T11:09:36.047</time></trkpt><trkpt lat="55.6342744" lon="49.4894569"><time>2025-05-18T11:09:39.213</time></trkpt><trkpt lat="55.6342186" lon="49.4894038"><time>2025-05-18T11:09:42.040</time></trkpt><trkpt lat="55.6341676" lon="49.4893855"><time>2025-05-18T11:09:44.247</time></trkpt><trkpt lat="55.6341144" lon="49.4893987"><time>2025-05-18T11:09:46.210</time></trkpt><trkpt lat="55.6340695" lon="49.4894029"><time>2025-05-18T11:09:48.033</time></trkpt><trkpt lat="55.6340074" lon="49.4894312"><time>2025-05-18T11:09:51.047</time></trkpt><trkpt lat="55.6339664" lon="49.4894659"><time>2025-05-18T11:09:53.047</time></trkpt><trkpt lat="55.6339235" lon="49.4894981"><time>2025-05-18T11:09:55.033</time></trkpt><trkpt lat="55.6338781" lon="49.4895361"><time>2025-05-18T11:09:57.033</time></trkpt><trkpt lat="55.6338313" lon="49.4895731"><time>2025-05-18T11:09:59.267</time></trkpt><trkpt lat="55.6337808" lon="49.4895856"><time>2025-05-18T11:10:01.237</time></trkpt><trkpt lat="55.6337329" lon="49.4895998"><time>2025-05-18T11:10:03.047</time></trkpt><trkpt lat="55.6336738" lon="49.4896230"><time>2025-05-18T11:10:06.227</time></trkpt><trkpt lat="55.6336230" lon="49.4896727"><time>2025-05-18T11:10:09.047</time></trkpt><trkpt lat="55.6335894" lon="49.4897375"><time>2025-05-18T11:10:13.223</time></trkpt><trkpt lat="55.6335648" lon="49.4898083"><time>2025-05-18T11:10:17.013</time></trkpt><trkpt lat="55.6335235" lon="49.4898653"><time>2025-05-18T11:10:21.037</time></trkpt><trkpt lat="55.6334884" lon="49.4899234"><time>2025-05-18T11:10:23.043</time></trkpt><trkpt lat="55.6334433" lon="49.4899896"><time>2025-05-18T11:10:26.043</time></trkpt><trkpt lat="55.6334043" lon="49.4900333"><time>2025-05-18T11:10:28.050</time></trkpt><trkpt lat="55.6333724" lon="49.4900984"><time>2025-05-18T11:10:34.273</time></trkpt><trkpt lat="55.6333925" lon="49.4900261"><time>2025-05-18T11:10:43.043</time></trkpt><trkpt lat="55.6334368" lon="49.4899706"><time>2025-05-18T11:10:46.087</time></trkpt><trkpt lat="55.6334863" lon="49.4899327"><time>2025-05-18T11:10:48.037</time></trkpt><trkpt lat="55.6335330" lon="49.4898790"><time>2025-05-18T11:10:50.050</time></trkpt><trkpt lat="55.6335692" lon="49.4898155"><time>2025-05-18T11:10:52.030</time></trkpt><trkpt lat="55.6336120" lon="49.4897480"><time>2025-05-18T11:10:54.237</time></trkpt><trkpt lat="55.6336593" lon="49.4896822"><time>2025-05-18T11:10:56.290</time></trkpt><trkpt lat="55.6337096" lon="49.4896379"><time>2025-05-18T11:10:58.053</time></trkpt><trkpt lat="55.6337603" lon="49.4896059"><time>2025-05-18T11:11:00.230</time></trkpt><trkpt lat="55.6338165" lon="49.4895887"><time>2025-05-18T11:11:02.003</time></trkpt><trkpt lat="55.6338841" lon="49.4895766"><time>2025-05-18T11:11:04.020</time></trkpt><trkpt lat="55.6339412" lon="49.4895241"><time>2025-05-18T11:11:06.043</time></trkpt><trkpt lat="55.6339872" lon="49.4894968"><time>2025-05-18T11:11:08.040</time></trkpt><trkpt lat="55.6340497" lon="49.4894675"><time>2025-05-18T11:11:11.217</time></trkpt><trkpt lat="55.6341054" lon="49.4894253"><time>2025-05-18T11:11:14.240</time></trkpt><trkpt lat="55.6341498" lon="49.4894069"><time>2025-05-18T11:11:16.213</time></trkpt><trkpt lat="55.6341951" lon="49.4893902"><time>2025-05-18T11:11:18.030</time></trkpt><trkpt lat="55.6342659" lon="49.4894020"><time>2025-05-18T11:11:21.233</time></trkpt><trkpt lat="55.6343089" lon="49.4894431"><time>2025-05-18T11:11:23.027</time></trkpt><trkpt lat="55.6343488" lon="49.4894931"><time>2025-05-18T11:11:25.053</time></trkpt><trkpt lat="55.6343715" lon="49.4895757"><time>2025-05-18T11:11:30.030</time></trkpt><trkpt lat="55.6344400" lon="49.4895871"><time>2025-05-18T11:11:33.043</time></trkpt><trkpt lat="55.6344903" lon="49.4896186"><time>2025-05-18T11:11:35.210</time></trkpt><trkpt lat="55.6345523" lon="49.4896372"><time>2025-05-18T11:11:38.053</time></trkpt><trkpt lat="55.6345985" lon="49.4896443"><time>2025-05-18T11:11:39.977</time></trkpt><trkpt lat="55.6346439" lon="49.4896619"><time>2025-05-18T11:11:41.977</time></trkpt><trkpt lat="55.6346986" lon="49.4896703"><time>2025-05-18T11:11:45.103</time></trkpt><trkpt lat="55.6347406" lon="49.4896294"><time>2025-05-18T11:11:47.983</time></trkpt><trkpt lat="55.6347836" lon="49.4895469"><time>2025-05-18T11:11:51.160</time></trkpt><trkpt lat="55.6348346" lon="49.4895177"><time>2025-05-18T11:11:54.220</time></trkpt><trkpt lat="55.6348874" lon="49.4895068"><time>2025-05-18T11:11:57.010</time></trkpt><trkpt lat="55.6349263" lon="49.4895546"><time>2025-05-18T11:12:01.237</time></trkpt><trkpt lat="55.6348621" lon="49.4895352"><time>2025-05-18T11:12:07.063</time></trkpt><trkpt lat="55.6348110" lon="49.4895419"><time>2025-05-18T11:12:09.297</time></trkpt><trkpt lat="55.6347655" lon="49.4895484"><time>2025-05-18T11:12:11.083</time></trkpt><trkpt lat="55.6347084" lon="49.4895768"><time>2025-05-18T11:12:14.253</time></trkpt><trkpt lat="55.6346510" lon="49.4896004"><time>2025-05-18T11:12:18.047</time></trkpt><trkpt lat="55.6345960" lon="49.4896312"><time>2025-05-18T11:12:21.047</time></trkpt><trkpt lat="55.6345323" lon="49.4896559"><time>2025-05-18T11:12:24.123</time></trkpt><trkpt lat="55.6344746" lon="49.4896767"><time>2025-05-18T11:12:26.977</time></trkpt><trkpt lat="55.6344290" lon="49.4897140"><time>2025-05-18T11:12:30.093</time></trkpt><trkpt lat="55.6343829" lon="49.4897177"><time>2025-05-18T11:12:31.960</time></trkpt><trkpt lat="55.6343380" lon="49.4897519"><time>2025-05-18T11:12:33.970</time></trkpt><trkpt lat="55.6343084" lon="49.4898172"><time>2025-05-18T11:12:36.100</time></trkpt><trkpt lat="55.6342552" lon="49.4898754"><time>2025-05-18T11:12:38.997</time></trkpt><trkpt lat="55.6342022" lon="49.4898351"><time>2025-05-18T11:12:41.993</time></trkpt><trkpt lat="55.6341596" lon="49.4897533"><time>2025-05-18T11:12:45.100</time></trkpt><trkpt lat="55.6341219" lon="49.4896917"><time>2025-05-18T11:12:47</time></trkpt><trkpt lat="55.6340815" lon="49.4896329"><time>2025-05-18T11:12:49.007</time></trkpt><trkpt lat="55.6340341" lon="49.4895802"><time>2025-05-18T11:12:50.970</time></trkpt><trkpt lat="55.6339944" lon="49.4895382"><time>2025-05-18T11:12:52.960</time></trkpt><trkpt lat="55.6339401" lon="49.4894938"><time>2025-05-18T11:12:55.943</time></trkpt><trkpt lat="55.6338906" lon="49.4894823"><time>2025-05-18T11:12:57.980</time></trkpt><trkpt lat="55.6338443" lon="49.4895099"><time>2025-05-18T11:12:59.973</time></trkpt><trkpt lat="55.6337920" lon="49.4895445"><time>2025-05-18T11:13:01.980</time></trkpt><trkpt lat="55.6337463" lon="49.4895491"><time>2025-05-18T11:13:03.963</time></trkpt><trkpt lat="55.6336797" lon="49.4895542"><time>2025-05-18T11:13:06.980</time></trkpt><trkpt lat="55.6336360" lon="49.4895793"><time>2025-05-18T11:13:09.043</time></trkpt><trkpt lat="55.6335927" lon="49.4896161"><time>2025-05-18T11:13:11.040</time></trkpt><trkpt lat="55.6335542" lon="49.4896681"><time>2025-05-18T11:13:13.033</time></trkpt><trkpt lat="55.6335238" lon="49.4897674"><time>2025-05-18T11:13:16.037</time></trkpt><trkpt lat="55.6334767" lon="49.4898530"><time>2025-05-18T11:13:19.047</time></trkpt><trkpt lat="55.6334316" lon="49.4898997"><time>2025-05-18T11:13:21.033</time></trkpt><trkpt lat="55.6333893" lon="49.4899547"><time>2025-05-18T11:13:22.997</time></trkpt><trkpt lat="55.6333517" lon="49.4900068"><time>2025-05-18T11:13:25.037</time></trkpt><trkpt lat="55.6333167" lon="49.4900746"><time>2025-05-18T11:13:27.017</time></trkpt><trkpt lat="55.6332798" lon="49.4901392"><time>2025-05-18T11:13:29.250</time></trkpt><trkpt lat="55.6332479" lon="49.4902082"><time>2025-05-18T11:13:31.307</time></trkpt><trkpt lat="55.6332136" lon="49.4902602"><time>2025-05-18T11:13:33.040</time></trkpt><trkpt lat="55.6331820" lon="49.4903182"><time>2025-05-18T11:13:35.197</time></trkpt><trkpt lat="55.6331461" lon="49.4903742"><time>2025-05-18T11:13:37.007</time></trkpt><trkpt lat="55.6330982" lon="49.4904548"><time>2025-05-18T11:13:40.230</time></trkpt><trkpt lat="55.6330627" lon="49.4905049"><time>2025-05-18T11:13:42.013</time></trkpt><trkpt lat="55.6330075" lon="49.4905735"><time>2025-05-18T11:13:45.037</time></trkpt><trkpt lat="55.6329675" lon="49.4906103"><time>2025-05-18T11:13:47.047</time></trkpt><trkpt lat="55.6329125" lon="49.4906538"><time>2025-05-18T11:13:50.270</time></trkpt><trkpt lat="55.6328612" lon="49.4906974"><time>2025-05-18T11:13:53.017</time></trkpt><trkpt lat="55.6328171" lon="49.4907533"><time>2025-05-18T11:13:56.050</time></trkpt><trkpt lat="55.6327897" lon="49.4908233"><time>2025-05-18T11:13:58.047</time></trkpt><trkpt lat="55.6327663" lon="49.4909103"><time>2025-05-18T11:14:00.080</time></trkpt><trkpt lat="55.6327477" lon="49.4909918"><time>2025-05-18T11:14:02.030</time></trkpt><trkpt lat="55.6327297" lon="49.4910810"><time>2025-05-18T11:14:04.197</time></trkpt><trkpt lat="55.6327259" lon="49.4911800"><time>2025-05-18T11:14:06.217</time></trkpt><trkpt lat="55.6327262" lon="49.4912700"><time>2025-05-18T11:14:08.050</time></trkpt><trkpt lat="55.6327114" lon="49.4913545"><time>2025-05-18T11:14:10.050</time></trkpt><trkpt lat="55.6326996" lon="49.4914347"><time>2025-05-18T11:14:12.047</time></trkpt><trkpt lat="55.6326937" lon="49.4915161"><time>2025-05-18T11:14:14.277</time></trkpt><trkpt lat="55.6326630" lon="49.4916208"><time>2025-05-18T11:14:17.003</time></trkpt><trkpt lat="55.6326433" lon="49.4916931"><time>2025-05-18T11:14:19.030</time></trkpt><trkpt lat="55.6326300" lon="49.4917752"><time>2025-05-18T11:14:21.227</time></trkpt><trkpt lat="55.6326086" lon="49.4918557"><time>2025-05-18T11:14:23.040</time></trkpt><trkpt lat="55.6325834" lon="49.4919315"><time>2025-05-18T11:14:25.310</time></trkpt><trkpt lat="55.6325510" lon="49.4920006"><time>2025-05-18T11:14:27.037</time></trkpt><trkpt lat="55.6325143" lon="49.4920554"><time>2025-05-18T11:14:29.223</time></trkpt><trkpt lat="55.6324616" lon="49.4921255"><time>2025-05-18T11:14:32.047</time></trkpt><trkpt lat="55.6324259" lon="49.4921768"><time>2025-05-18T11:14:34.220</time></trkpt><trkpt lat="55.6323889" lon="49.4922297"><time>2025-05-18T11:14:36.213</time></trkpt><trkpt lat="55.6323516" lon="49.4922900"><time>2025-05-18T11:14:38.040</time></trkpt><trkpt lat="55.6323240" lon="49.4923567"><time>2025-05-18T11:14:40.247</time></trkpt><trkpt lat="55.6322875" lon="49.4924153"><time>2025-05-18T11:14:42.040</time></trkpt><trkpt lat="55.6322560" lon="49.4924811"><time>2025-05-18T11:14:44.030</time></trkpt><trkpt lat="55.6322211" lon="49.4925443"><time>2025-05-18T11:14:46.217</time></trkpt><trkpt lat="55.6321879" lon="49.4926039"><time>2025-05-18T11:14:48.037</time></trkpt><trkpt lat="55.6321581" lon="49.4926675"><time>2025-05-18T11:14:49.977</time></trkpt><trkpt lat="55.6321217" lon="49.4927252"><time>2025-05-18T11:14:54.047</time></trkpt><trkpt lat="55.6320719" lon="49.4927506"><time>2025-05-18T11:14:58.047</time></trkpt><trkpt lat="55.6320268" lon="49.4927857"><time>2025-05-18T11:15:02.030</time></trkpt><trkpt lat="55.6319800" lon="49.4928106"><time>2025-05-18T11:15:04.997</time></trkpt><trkpt lat="55.6319213" lon="49.4928389"><time>2025-05-18T11:15:08.043</time></trkpt><trkpt lat="55.6318712" lon="49.4928673"><time>2025-05-18T11:15:11.227</time></trkpt><trkpt lat="55.6318302" lon="49.4929147"><time>2025-05-18T11:15:14.983</time></trkpt><trkpt lat="55.6317758" lon="49.4929411"><time>2025-05-18T11:15:19.050</time></trkpt><trkpt lat="55.6317190" lon="49.4929837"><time>2025-05-18T11:15:23.050</time></trkpt><trkpt lat="55.6316664" lon="49.4930207"><time>2025-05-18T11:15:27.057</time></trkpt><trkpt lat="55.6316126" lon="49.4930437"><time>2025-05-18T11:15:30.197</time></trkpt><trkpt lat="55.6315556" lon="49.4930717"><time>2025-05-18T11:15:33.037</time></trkpt><trkpt lat="55.6315064" lon="49.4930885"><time>2025-05-18T11:15:37.023</time></trkpt><trkpt lat="55.6314604" lon="49.4931137"><time>2025-05-18T11:15:40.187</time></trkpt><trkpt lat="55.6314122" lon="49.4931161"><time>2025-05-18T11:15:43.050</time></trkpt><trkpt lat="55.6313673" lon="49.4931019"><time>2025-05-18T11:15:46.307</time></trkpt><trkpt lat="55.6313126" lon="49.4930994"><time>2025-05-18T11:15:49.033</time></trkpt><trkpt lat="55.6312577" lon="49.4931054"><time>2025-05-18T11:15:52.043</time></trkpt><trkpt lat="55.6312044" lon="49.4931093"><time>2025-05-18T11:15:55.050</time></trkpt><trkpt lat="55.6311549" lon="49.4931251"><time>2025-05-18T11:15:58.247</time></trkpt><trkpt lat="55.6311104" lon="49.4931498"><time>2025-05-18T11:16:01.230</time></trkpt><trkpt lat="55.6310595" lon="49.4931886"><time>2025-05-18T11:16:05.027</time></trkpt><trkpt lat="55.6310025" lon="49.4931996"><time>2025-05-18T11:16:09.217</time></trkpt><trkpt lat="55.6309501" lon="49.4932284"><time>2025-05-18T11:16:13.227</time></trkpt><trkpt lat="55.6308978" lon="49.4932263"><time>2025-05-18T11:16:17.043</time></trkpt><trkpt lat="55.6308367" lon="49.4932258"><time>2025-05-18T11:16:21.230</time></trkpt><trkpt lat="55.6307883" lon="49.4932131"><time>2025-05-18T11:16:24.263</time></trkpt><trkpt lat="55.6307321" lon="49.4931897"><time>2025-05-18T11:16:29.043</time></trkpt><trkpt lat="55.6306838" lon="49.4931814"><time>2025-05-18T11:16:32.033</time></trkpt><trkpt lat="55.6306315" lon="49.4931679"><time>2025-05-18T11:16:35.220</time></trkpt><trkpt lat="55.6305825" lon="49.4931716"><time>2025-05-18T11:16:38.043</time></trkpt><trkpt lat="55.6305210" lon="49.4931760"><time>2025-05-18T11:16:42.063</time></trkpt><trkpt lat="55.6304625" lon="49.4931908"><time>2025-05-18T11:16:45.230</time></trkpt><trkpt lat="55.6304095" lon="49.4931956"><time>2025-05-18T11:16:49.050</time></trkpt><trkpt lat="55.6303534" lon="49.4931832"><time>2025-05-18T11:16:52.007</time></trkpt><trkpt lat="55.6302971" lon="49.4931699"><time>2025-05-18T11:16:56.097</time></trkpt><trkpt lat="55.6302383" lon="49.4931897"><time>2025-05-18T11:16:59.117</time></trkpt><trkpt lat="55.6301823" lon="49.4932283"><time>2025-05-18T11:17:02.980</time></trkpt><trkpt lat="55.6301184" lon="49.4932208"><time>2025-05-18T11:17:06.207</time></trkpt><trkpt lat="55.6300697" lon="49.4932066"><time>2025-05-18T11:17:08.063</time></trkpt><trkpt lat="55.6300064" lon="49.4931887"><time>2025-05-18T11:17:11.230</time></trkpt><trkpt lat="55.6299509" lon="49.4931547"><time>2025-05-18T11:17:14.257</time></trkpt><trkpt lat="55.6299172" lon="49.4930614"><time>2025-05-18T11:17:16.983</time></trkpt><trkpt lat="55.6299054" lon="49.4929488"><time>2025-05-18T11:17:20.053</time></trkpt><trkpt lat="55.6298851" lon="49.4928621"><time>2025-05-18T11:17:23.237</time></trkpt><trkpt lat="55.6298796" lon="49.4927679"><time>2025-05-18T11:17:26.203</time></trkpt><trkpt lat="55.6298663" lon="49.4926741"><time>2025-05-18T11:17:29.053</time></trkpt><trkpt lat="55.6298502" lon="49.4925833"><time>2025-05-18T11:17:32.020</time></trkpt><trkpt lat="55.6298284" lon="49.4924915"><time>2025-05-18T11:17:35.237</time></trkpt><trkpt lat="55.6297935" lon="49.4923992"><time>2025-05-18T11:17:38.033</time></trkpt><trkpt lat="55.6297546" lon="49.4923175"><time>2025-05-18T11:17:41.057</time></trkpt><trkpt lat="55.6297225" lon="49.4922341"><time>2025-05-18T11:17:44.230</time></trkpt><trkpt lat="55.6296916" lon="49.4921402"><time>2025-05-18T11:17:47.037</time></trkpt><trkpt lat="55.6296601" lon="49.4920508"><time>2025-05-18T11:17:50.053</time></trkpt><trkpt lat="55.6296251" lon="49.4919561"><time>2025-05-18T11:17:53.227</time></trkpt><trkpt lat="55.6295968" lon="49.4918643"><time>2025-05-18T11:17:56.047</time></trkpt><trkpt lat="55.6295688" lon="49.4917750"><time>2025-05-18T11:17:59.017</time></trkpt><trkpt lat="55.6295420" lon="49.4916902"><time>2025-05-18T11:18:02.050</time></trkpt><trkpt lat="55.6295222" lon="49.4916082"><time>2025-05-18T11:18:05.037</time></trkpt><trkpt lat="55.6294894" lon="49.4915316"><time>2025-05-18T11:18:08.037</time></trkpt><trkpt lat="55.6294599" lon="49.4914488"><time>2025-05-18T11:18:11.213</time></trkpt><trkpt lat="55.6294257" lon="49.4913687"><time>2025-05-18T11:18:14.320</time></trkpt><trkpt lat="55.6294044" lon="49.4912781"><time>2025-05-18T11:18:16.980</time></trkpt><trkpt lat="55.6293997" lon="49.4911800"><time>2025-05-18T11:18:20.010</time></trkpt><trkpt lat="55.6293864" lon="49.4910686"><time>2025-05-18T11:18:23.213</time></trkpt><trkpt lat="55.6293872" lon="49.4909857"><time>2025-05-18T11:18:25.030</time></trkpt><trkpt lat="55.6293944" lon="49.4908814"><time>2025-05-18T11:18:28.043</time></trkpt><trkpt lat="55.6293989" lon="49.4907895"><time>2025-05-18T11:18:31.033</time></trkpt><trkpt lat="55.6293927" lon="49.4906900"><time>2025-05-18T11:18:34.233</time></trkpt><trkpt lat="55.6293781" lon="49.4905984"><time>2025-05-18T11:18:37.040</time></trkpt><trkpt lat="55.6293602" lon="49.4905084"><time>2025-05-18T11:18:40.220</time></trkpt><trkpt lat="55.6293362" lon="49.4904018"><time>2025-05-18T11:18:43.247</time></trkpt><trkpt lat="55.6293088" lon="49.4903181"><time>2025-05-18T11:18:46.230</time></trkpt><trkpt lat="55.6292951" lon="49.4902237"><time>2025-05-18T11:18:50.040</time></trkpt><trkpt lat="55.6292755" lon="49.4901467"><time>2025-05-18T11:18:53.187</time></trkpt><trkpt lat="55.6292507" lon="49.4900665"><time>2025-05-18T11:18:56.983</time></trkpt><trkpt lat="55.6292218" lon="49.4899884"><time>2025-05-18T11:19:01.220</time></trkpt><trkpt lat="55.6291889" lon="49.4899320"><time>2025-05-18T11:19:05.047</time></trkpt><trkpt lat="55.6291461" lon="49.4898731"><time>2025-05-18T11:19:09.207</time></trkpt><trkpt lat="55.6290997" lon="49.4898280"><time>2025-05-18T11:19:13.040</time></trkpt><trkpt lat="55.6290541" lon="49.4897668"><time>2025-05-18T11:19:17.047</time></trkpt><trkpt lat="55.6290114" lon="49.4897279"><time>2025-05-18T11:19:21.050</time></trkpt><trkpt lat="55.6289628" lon="49.4896889"><time>2025-05-18T11:19:25.237</time></trkpt><trkpt lat="55.6289183" lon="49.4896326"><time>2025-05-18T11:19:29.217</time></trkpt><trkpt lat="55.6288882" lon="49.4895603"><time>2025-05-18T11:19:33.033</time></trkpt><trkpt lat="55.6288472" lon="49.4895106"><time>2025-05-18T11:19:36.983</time></trkpt><trkpt lat="55.6287966" lon="49.4894566"><time>2025-05-18T11:19:41.020</time></trkpt><trkpt lat="55.6287563" lon="49.4894146"><time>2025-05-18T11:19:44.047</time></trkpt><trkpt lat="55.6287356" lon="49.4893258"><time>2025-05-18T11:19:48.233</time></trkpt><trkpt lat="55.6287632" lon="49.4892591"><time>2025-05-18T11:19:53.223</time></trkpt><trkpt lat="55.6287884" lon="49.4891777"><time>2025-05-18T11:19:57.033</time></trkpt><trkpt lat="55.6287719" lon="49.4890788"><time>2025-05-18T11:20:00.983</time></trkpt><trkpt lat="55.6287667" lon="49.4889829"><time>2025-05-18T11:20:04.977</time></trkpt></trkseg></trk></gpx>